     2              OBSERVATION DATA    GPS                 RINEX VERSION / TYPE
ASRINEXO V2.4.4 UX USGS 20-MAY-96 12:13                     PGM / RUN BY / DATE
                                                            COMMENT
Contact: kwendt@isdmnl.wr.usgs.gov (Ph: 415-329-4866)       COMMENT
Contact: kwendt@isdmnl.wr.usgs.gov (Ph: 415-329-4866)       COMMENT
Contact: kwendt@isdmnl.wr.usgs.gov (Ph: 415-329-4866)       COMMENT
Contact: kwendt@isdmnl.wr.usgs.gov (Ph: 415-329-4866)       COMMENT
Original Marker Name: pk59 Park_1959_DWR                    COMMENT
Campaign Name: USGS Parkfield                               COMMENT
4-Character Station Name: PK59                              COMMENT
6-Character Antenna Code: ASHL12                            COMMENT
Vertical Measurement Point: BBE                             COMMENT
Vertical Offset to Rinex Ref. Point: 0.0595                 COMMENT
Radial Measurement Point: EGP                               COMMENT
Radial Offset to Rinex Ref. Point: 0.1424                   COMMENT
Antenna Height from Field Measurement: 1.2100 m             COMMENT
Additional Antenna Identification Info.:                    COMMENT
Original Ashtech L1/L2 (700228ABC)                          COMMENT
Original XYZ: -2614080.0200 -4478237.9700 3702276.3100      COMMENT
New XYZ position is based on association with SCEC monument COMMENT
E1F1N3K5+0011. Position of that monument is believed to be  COMMENT
valid to within 1 m horizontally; vertical accuracy         COMMENT
should be no worse than 3-times this value.                 COMMENT
                                                            COMMENT
Revised Rinex header created by UCSD GPS archive for        COMMENT
GSAC on 11-Jul-2000 (2000:193) 00:59:31 GMT                 COMMENT
For assistance contact dagnew@ucsd.edu                      COMMENT
or anderson@python.ucsd.edu                                 COMMENT
                                                            COMMENT
PARK 1959                                                   MARKER NAME
GDH US GEOLOGICAL SURVEY                                    OBSERVER / AGENCY
597 ASHTECH Z-XII3 1F00                                     REC # / TYPE / VERS
0598 ASHTECH GEODETIC L                                     ANT # / TYPE
 -2610615.7544 -4466448.1790  3719270.3964                  APPROX POSITION XYZ
        1.1421        0.0000        0.0000                  ANTENNA: DELTA H/E/N
     1     1     0                                          WAVELENGTH FACT L1/2
     5    C1    L1    L2    P1    P2                        # / TYPES OF OBSERV
    30                                                      INTERVAL
  1996     5    11    16    55    0.000000                  TIME OF FIRST OBS
  1996     5    11    23    59   60.000000                  TIME OF LAST OBS
                                                            END OF HEADER
 96  5 11 16 55  0.0000000  0  1  2
  19650543.951      -16055.02619
 96  5 11 16 55 30.0000000  0  6 19  2 27  7 26 15
  21240705.199       25211.54219     15713.39959                  21240712.7324
  19640388.080      -69430.98759    -44164.12459  19640384.4314   19640391.2604
  19073154.469      -26215.83619    -16360.37359                  19073162.0474
  19644438.032     -129501.03919    -81482.74659                  19644442.6544
  21652764.035     -112331.92019    -71540.19759                  21652770.0684
  22446760.190      -70962.06519
 96  5 11 16 56  0.0000000  0  1  2
  21128928.530     -124182.63649    -86827.73949  21128927.8344   21128934.5604
 96  5 11 16 56 30.0000000  0  6 19  2 27  7 26 15
  22747661.626       67220.72659     48447.75449  22747661.7034   22747668.2944
  21118209.835     -180519.53159   -130726.60759  21118207.4214   21118214.2114
  20562363.747      -77483.91559    -56309.51749  20562362.1094   20562368.3294
  21097403.300     -371205.76559   -269824.05849  21097403.1334   21097410.1494
  23111294.719     -324815.12559   -237111.50949  23111291.3964   23111297.9024
  23912863.985     -243690.29659   -166166.47659  23912854.6744   23912862.8174
 96  5 11 16 57  0.0000000  0  6 19  2 27  7 26 15
  22751219.786       85928.77059     63025.41459  22751220.8384   22751229.2884
  21107176.390     -238504.48749   -175909.68349  21107173.2374   21107180.2394
  20557099.739     -105144.91759    -77863.54259  20557098.4474   20557104.9824
  21074017.693     -494114.36259   -365596.96959  21074014.0204   21074021.3344
  23090706.970     -433011.51859   -321420.38359  23090702.2464   23090709.0404
  23896044.332     -331996.06759   -234976.15259  23896049.7154   23896057.9344
 96  5 11 16 57 30.0000000  0  6 19  2 27  7 26 15
  22754483.119      103059.89149     76374.29749  22754481.1584   22754488.7574
  21095825.508     -298146.59749   -222384.04949  21095823.4554   21095830.4174
  20551570.454     -134207.46449   -100509.68649  20551568.0544   20551574.6724
  21050362.054     -618411.07849   -462451.52749  21050361.0624   21050368.3884
  23069857.423     -542556.46449   -406780.06249  23069856.5564   23069862.6524
  23878997.766     -421634.28349   -304824.06249  23878992.5214   23879001.6614
 96  5 11 16 58  0.0000000  0  6 19  2 27  7 26 15
  22757453.925      118675.33949     88542.14849  22757452.2064   22757461.0994
  21084172.867     -359381.10949   -270099.24349  21084171.1654   21084177.9754
  20545785.799     -164601.45149   -124193.31349  20545784.2084   20545790.7424
  21026456.540     -744038.45949   -560342.94849  21026455.1914   21026462.3034
  23048765.548     -653392.59549   -493145.86249  23048765.3564   23048772.1924
  23861692.439     -512546.34749   -375664.57949  23861691.2834   23861700.8374
 96  5 11 16 58 30.0000000  0  6 19  2 27  7 26 15
  22760149.308      132835.37649     99575.88449  22760147.5994   22760155.3854
  21072228.131     -422147.94149   -319008.44949  21072227.1274   21072233.9014
  20539763.191     -196257.85149   -148860.64149  20539760.4654   20539766.5854
  21002308.648     -870938.46849   -659226.02049  21002306.8364   21002314.3334
  23027436.229     -765489.14749   -580493.80749  23027434.6534   23027440.0244
  23844161.177     -604679.99449   -447457.00949  23844160.5874   23844167.8114
 96  5 11 16 59  0.0000000  0  6 19  2 27  7 26 15
  22762575.241      145603.72649    109525.23549  22762577.1904   22762585.1424
  21060005.276     -486390.48049   -369067.56649  21060002.0934   21060009.1904
  20533509.134     -229120.81849   -174468.15349  20533507.0704   20533513.2854
  20977928.094     -999062.66949   -759063.03249  20977925.5534   20977933.2204
  23005874.247     -878791.24049   -668781.14049  23005873.5194   23005879.7034
  23826410.102     -697981.95949   -520159.78249  23826405.6664   23826414.1934
 96  5 11 16 59 30.0000000  0  6 19  2 27  7 26 15
  22764748.252      157007.26449    118411.05859  22764746.8604   22764754.5924
  21047501.174     -552096.62949   -420267.15049  21047498.5724   21047505.4604
  20527029.558     -263161.22049   -200993.14949  20527028.9344   20527035.4874
  20953317.119    -1128388.82349   -859836.61649  20953315.8954   20953323.1354
  22984090.888     -993259.53449   -757977.19549  22984090.2104   22984097.3794
  23808435.941     -792422.18149   -593749.54449  23808434.0764   23808443.2614
 96  5 11 17  0  0.0000000  0  6 19  2 27  7 26 15
  22766659.411      167055.98849    126241.20149  22766659.6934   22766667.2804
  21034719.872     -619256.13849   -472599.22949  21034718.6044   21034725.2534
  20520332.766     -298356.37349   -228417.95349  20520331.2964   20520338.1874
  20928480.358    -1258904.87449   -961537.39249  20928479.2884   20928486.7414
  22962092.315    -1108867.48149   -848061.29849  22962090.7864   22962098.0084
  23790252.905     -887976.78549   -668207.63249  23790250.7554   23790258.7624
 96  5 11 17  0 30.0000000  0  6 19  2 27  7 26 15
  22768328.356      175820.46349    133070.63049  22768327.2124   22768335.1924
  21021679.451     -687788.60449   -526001.14049  21021677.5174   21021684.0894
  20513428.764     -334639.89049   -256690.83149  20513427.0364   20513433.5524
  20903435.049    -1390523.94149  -1064097.65749  20903432.7714   20903440.1874
  22939892.153    -1225531.35549   -938968.19749  22939890.3804   22939897.3114
  23771868.199     -984563.79749   -743470.19949  23771870.5534   23771879.3004
 96  5 11 17  1  0.0000000  0  6 19  2 27  7 26 15
  22769756.627      183319.19349    138913.76449  22769754.6364   22769761.5364
  21008382.492     -757661.24849   -580447.34249  21008381.2634   21008387.7744
  20506322.740     -371987.67949   -285793.00949  20506320.1984   20506326.6874
  20878185.076    -1523210.07849  -1167489.40449  20878183.6924   20878190.7894
  22917499.923    -1343194.94349  -1030654.08749  22917499.7804   22917507.0714
  23753308.017    -1082147.82249   -819509.65549  23753301.8134   23753309.5764
 96  5 11 17  1 30.0000000  0  6 19  2 27  7 26 15
  22770942.559      189557.17149    143774.49249  22770941.4364   22770948.7904
  20994838.717     -828838.15849   -635909.85649  20994836.7484   20994843.3404
  20499016.422     -410371.61549   -315702.56949  20499015.8204   20499022.6924
  20852740.464    -1656926.17449  -1271683.72449  20852738.0784   20852745.3594
  22894925.283    -1461830.72149  -1123097.54149  22894924.7354   22894930.6834
  23734546.722    -1180699.47149   -896303.10849  23734546.8254   23734555.2374
 96  5 11 17  2  0.0000000  0  6 19  2 27  7 26 15
  22771899.291      194595.19749    147700.19349  22771900.6064   22771908.3954
  20981061.365     -901240.68449   -692327.40049  20981058.9464   20981065.5704
  20491527.261     -449731.63949   -346372.71049  20491526.0254   20491532.6114
  20827111.783    -1791595.69349  -1376620.97149  20827111.5844   20827118.6614
  22872175.429    -1581374.08049  -1216248.20249  22872175.8104   22872182.5814
  23715618.263    -1280155.24249   -973801.08449  23715619.7334   23715629.9094
 96  5 11 17  2 30.0000000  0  6 19  2 27  7 26 15
  22772644.442      198498.42449    150741.62349  22772643.1854   22772651.3914
  20967059.169     -974813.08049   -749656.52649  20967058.4364   20967065.0974
  20483861.573     -490014.73649   -377762.13649  20483860.3984   20483866.9334
  20801315.104    -1927161.19849  -1482256.39449  20801314.2444   20801321.4934
  22849266.710    -1701773.73449  -1310066.11449  22849265.2184   22849271.6544
  23696541.645    -1380462.87549  -1051962.81849  23696534.5744   23696542.0234
 96  5 11 17  3  0.0000000  0  6 19  2 27  7 26 15
  22773211.060      201477.63149    153063.05749  22773210.4944   22773218.2794
  20952873.256    -1049366.08949   -807749.76749  20952871.7694   20952878.4134
  20476057.946     -531025.06949   -409718.23849  20476056.4504   20476062.9484
  20775386.102    -2063422.72149  -1588434.17749  20775384.4314   20775391.8424
  22826227.185    -1822838.27549  -1404402.10149  22826226.8514   22826233.5624
  23677320.774    -1481420.19749  -1130630.80649  23677321.8234   23677330.4254
 96  5 11 17  3 29.9990000  0  6 19  2 27  7 26 15
  22773644.802      203745.97049    154830.55749  22773641.5144   22773649.9304
  20938536.253    -1124707.57049   -866457.40549  20938534.8314   20938541.5504
  20468153.340     -572563.37249   -442085.73949  20468152.0764   20468158.4754
  20749358.245    -2200192.11349  -1695007.70149  20749358.1884   20749365.5794
  22803097.141    -1944390.59549  -1499118.17549  22803096.3474   22803102.9384
  23658023.223    -1582827.64449  -1209649.57349  23658024.9334   23658033.8744
 96  5 11 17  3 59.9990000  0  6 19  2 27  7 26 15
  22773968.332      205473.53449    156176.66849  22773970.1424   22773979.0384
  20924075.460    -1200699.61649   -925671.97449  20924073.7924   20924080.4224
  20460176.495     -614477.93549   -474746.43349  20460175.8444   20460182.4494
  20723260.729    -2337339.71849  -1801875.93449  20723260.0104   20723267.3334
  22779902.037    -2066283.81649  -1594099.89149  22779900.8554   22779907.1284
  23638674.692    -1684531.93849  -1288899.61049  23638670.6434   23638678.8594
 96  5 11 17  4 29.9990000  0  6 19  2 27  7 26 15
  22774218.918      206778.01149    157193.08549  22774218.9574   22774226.9604
  20909511.784    -1277227.03849   -985303.71949  20909511.3524   20909518.0184
  20452152.335     -656644.74949   -507603.68349  20452151.7954   20452158.3994
  20697112.019    -2474750.11449  -1908948.94449  20697111.5854   20697118.7144
  22756665.480    -2188390.21749  -1689247.73349  22756664.8234   22756671.0294
  23619289.001    -1786405.07649  -1368281.23049  23619285.5804   23619294.0514
 96  5 11 17  4 59.9990000  0  6 19  2 27  7 26 15
  22774405.340      207744.76949    157946.36749  22774402.6624   22774410.7384
  20894866.831    -1354191.52049  -1045276.03049  20894865.5604   20894872.0334
  20444100.140     -698961.40749   -540577.70449  20444099.3884   20444105.8434
  20670932.734    -2612323.72149  -2016149.12949  20670931.9684   20670939.1534
  22733409.217    -2310605.63449  -1784480.51949  22733407.6704   22733414.6624
  23599888.512    -1888345.29249  -1447715.12349  23599886.8524   23599894.6854
 96  5 11 17  5 29.9990000  0  6 19  2 27  7 26 15
  22774536.815      208432.21449    158481.98849  22774533.4704   22774541.6124
  20880153.513    -1431510.92149  -1105524.90249  20880151.9724   20880158.8234
  20436035.497     -741344.32649   -573603.35849  20436034.0114   20436040.4794
  20644737.739    -2749990.15549  -2123421.64449  20644735.2104   20644742.4384
  22710148.211    -2432837.24449  -1879725.90849  22710147.7224   22710154.1174
  23580491.556    -1990276.59949  -1527142.08249  23580490.3774   23580498.4534
 96  5 11 17  5 59.9990000  0  6 19  2 27  7 26 15
  22774623.849      208897.29549    158844.35049  22774621.8614   22774630.0474
  20865384.115    -1509118.25549  -1165998.13749  20865383.8504   20865390.5974
  20427970.600     -783724.34049   -606626.74949  20427969.4464   20427975.9474
  20618538.799    -2887655.86149  -2230693.59349  20618538.2094   20618545.6674
  22686902.822    -2554995.21149  -1974913.93049  22686902.4964   22686908.6734
  23561110.599    -2092125.16749  -1606504.55849  23561109.2184   23561118.1254
 96  5 11 17  6 29.9990000  0  6 19  2 27  7 26 15
  22774681.912      209203.35949    159082.79049  22774680.9634   22774688.4604
  20850572.454    -1586956.81849  -1226651.55549  20850571.6804   20850578.4034
  20419916.464     -826043.31549   -639602.57649  20419916.2034   20419922.9534
  20592357.743    -3025242.04849  -2337903.57649  20592356.4654   20592363.8514
  22663681.514    -2677019.58449  -2069997.85449  22663682.3424   22663688.1344
  23541755.571    -2193829.24549  -1685754.46949  23541755.7424   23541764.2674
 96  5 11 17  6 59.9990000  0  6 19  2 27  7 26 15
  22774709.239      209347.19849    159194.82649  22774708.5294   22774715.6964
  20835714.196    -1665034.48949  -1287491.28849  20835713.8864   20835720.5244
  20411872.414     -868314.69449   -672541.31549  20411872.4854   20411878.9664
  20566189.772    -3162753.12749  -2445055.03449  20566188.9814   20566196.5494
  22640483.140    -2798922.64049  -2164987.22949  22640484.3274   22640491.5154
  23522427.799    -2295394.04549  -1764895.83149  23522427.2944   23522437.0984
 96  5 11 17  7 29.9990000  0  6 19  2 27  7 26 15
  22774724.015      209434.60949    159262.89749  22774724.5084   22774733.3354
  20820829.756    -1743255.41049  -1348442.64749  20820829.2244   20820835.7904
  20403856.014     -910441.92049   -705367.72149  20403856.1014   20403862.2374
  20540053.933    -3300094.97749  -2552074.62549  20540053.6774   20540061.2234
  22617326.622    -2920612.82349  -2259810.74649  22617327.5144   22617334.0394
  23503145.968    -2396725.32349  -1843855.23849  23503145.4764   23503154.5094
 96  5 11 17  7 59.9990000  0  6 19  2 27  7 26 15
  22774743.634      209532.56849    159339.18749  22774744.5514   22774751.6054
  20805927.931    -1821564.78549  -1409462.93449  20805927.1244   20805933.7324
  20395877.751     -952377.06749   -738044.46149  20395876.0814   20395882.4734
  20513961.179    -3437213.83649  -2658920.45649  20513960.8534   20513968.0044
  22594216.667    -3042059.37049  -2354444.41749  22594217.0044   22594223.7944
  23483918.589    -2497776.60949  -1922596.50249  23483916.0964   23483925.1964
 96  5 11 17  8 29.9990000  0  6 19  2 27  7 26 15
  22774772.194      209680.47949    159454.39449  22774771.8744   22774779.3584
  20791019.003    -1899905.34149  -1470507.51249  20791019.4914   20791026.2604
  20387940.320     -994079.91649   -770540.18249  20387940.1624   20387946.6624
  20487916.070    -3574087.40849  -2765575.15249  20487914.5834   20487921.8624
  22571159.040    -3163226.11649  -2448860.04449  22571159.7884   22571166.5154
  23464748.581    -2598509.24549  -2001089.43849  23464747.8584   23464754.8584
 96  5 11 17  8 59.9990000  0  6 19  2 27  7 26 15
  22774818.497      209908.29949    159631.87049  22774815.4294   22774823.4294
  20776116.322    -1978227.84549  -1531538.02949  20776115.3524   20776122.1554
  20380058.026    -1035499.93449   -802815.53049  20380058.2034   20380064.8164
  20461921.359    -3710679.28249  -2872010.35149  20461921.9194   20461929.3394
  22548164.956    -3284066.83449  -2543021.64349  22548165.1684   22548171.5524
  23445648.546    -2698884.96849  -2079304.26549  23445646.3474   23445654.2784
 96  5 11 17  9 29.9990000  0  6 19  2 27  7 26 15
  22774878.208      210245.94049    159894.91849  22774879.3134   22774887.8244
  20761221.828    -2056494.06649  -1592524.69149  20761222.0124   20761228.6424
  20372240.483    -1076582.28449   -834827.75349  20372240.5784   20372247.1644
  20435990.934    -3846950.32349  -2978195.54449  20435990.4624   20435997.4324
  22525238.610    -3404544.62649  -2636900.43649  22525239.0324   22525245.1254
  23426623.300    -2798870.21249  -2157214.82949  23426619.9104   23426627.3164
 96  5 11 17  9 59.9990000  0  6 19  2 27  7 26 15
  22774968.424      210709.41349    160256.01749  22774967.9734   22774976.0674
  20746344.274    -2134682.96249  -1653451.09749  20746342.9234   20746349.6474
  20364490.594    -1117312.10049   -866565.27949  20364490.0594   20364496.1164
  20410124.851    -3982878.19949  -3084113.33849  20410124.3134   20410131.5254
  22502386.512    -3524628.69649  -2730472.42249  22502387.6814   22502394.2044
  23407671.583    -2898434.10549  -2234797.05649  23407673.1014   23407681.5374
 96  5 11 17 10 29.9990000  0  6 19  2 27  7 26 15
  22775078.948      211294.70949    160712.05349  22775078.3874   22775087.4624
  20731480.439    -2212788.45949  -1714312.51649  20731480.1254   20731486.8334
  20356808.719    -1157678.19149   -898019.37749  20356808.8694   20356814.9964
  20384326.564    -4118445.69049  -3189750.31449  20384326.7644   20384333.7444
  22479618.071    -3644285.78549  -2823711.70949  22479617.3854   22479623.9134
  23388812.976    -2997552.67249  -2312032.27449  23388811.6494   23388818.7704
 96  5 11 17 10 59.9990000  0  6 19  2 27  7 26 15
  22775220.163      212032.61549    161286.99549  22775219.9834   22775228.0244
  20716634.880    -2290799.91849  -1775100.66749  20716635.0194   20716641.5514
  20349202.068    -1197648.62749   -929165.18149  20349202.7544   20349209.0804
  20358605.829    -4253612.29649  -3295074.91049  20358605.3574   20358612.3184
  22456931.617    -3763500.43649  -2916606.24049  22456931.6394   22456938.3414
  23370042.619    -3096196.37449  -2388897.47049  23370040.6344   23370047.8904
 96  5 11 17 11 29.9990000  0  6 19  2 27  7 26 15
  22775394.380      212938.38749    161992.73449  22775392.2134   22775400.6674
  20701809.871    -2368703.97849  -1835805.12749  20701810.3524   20701817.1314
  20341670.283    -1237227.44349   -960005.83249  20341671.1324   20341677.5444
  20332962.479    -4388368.53849  -3400079.74849  20332962.2454   20332969.2534
  22434331.077    -3882264.61949  -3009149.74849  22434331.5964   22434338.3754
  23351364.018    -3194347.11249  -2465378.53849  23351363.5334   23351371.7384
 96  5 11 17 11 59.9990000  0  6 19  2 27  7 26 15
  22775597.266      214018.90949    162834.64649  22775597.8444   22775605.5614
  20687006.744    -2446496.76649  -1896422.88149  20687006.8694   20687013.6294
  20334212.133    -1276422.83649   -990547.70549  20334212.2244   20334218.6314
  20307397.052    -4522704.03349  -3504756.72849  20307399.0864   20307406.0064
  22411819.592    -4000564.22649  -3101331.24749  22411820.1724   22411826.8324
  23332786.151    -3291989.43349  -2541463.43649  23332783.2964   23332791.3624
 96  5 11 17 12 29.9980000  0  6 19  2 27  7 26 15
  22775835.326      215290.51449    163825.45449  22775839.6934   22775848.8004
  20672227.935    -2524162.08649  -1956941.31249  20672227.8244   20672234.4674
  20326833.006    -1315198.08849  -1020762.19649  20326833.7454   20326840.0384
  20281921.434    -4656590.12949  -3609083.52649  20281921.2794   20281928.3674
  22389399.722    -4118382.26549  -3193137.51349  22389399.8084   22389405.9774
  23314301.485    -3389105.36449  -2617138.16349  23314302.4084   23314309.3974
 96  5 11 17 12 59.9980000  0  6 19  2 27  7 26 15
  22776123.035      216782.35249    164987.87049  22776123.6794   22776131.5954
  20657473.889    -2601696.17249  -2017357.47849  20657473.5494   20657480.3564
  20319539.647    -1353533.65249  -1050634.07749  20319538.8754   20319545.2794
  20256527.950    -4790031.80849  -3713064.03149  20256528.0704   20256535.2434
  22367072.660    -4235709.19149  -3284561.07949  22367072.9494   22367080.0994
  23295924.214    -3485691.51149  -2692400.05249  23295923.6394   23295929.8384
 96  5 11 17 13 29.9980000  0  6 19  2 27  7 26 15
  22776445.558      218491.02749    166319.26349  22776448.4904   22776456.9464
  20642745.888    -2679088.73449  -2077663.36649  20642746.1694   20642753.0024
  20312324.367    -1391443.60249  -1080174.31449  20312324.4664   20312331.1944
  20231217.359    -4923041.52949  -3816707.93949  20231217.3304   20231224.3604
  22344844.480    -4352516.08249  -3375579.42249  22344846.3544   22344852.6204
  23277643.698    -3581744.55949  -2767246.57449  23277643.9414   23277653.6994
 96  5 11 17 13 59.9980000  0  6 19  2 27  7 26 15
  22776820.446      220427.23449    167827.93949  22776817.3234   22776825.6224
  20628049.133    -2756326.98549  -2137849.01049  20628048.2054   20628055.2314
  20305194.676    -1428905.72349  -1109365.58249  20305196.1514   20305202.6284
  20205991.394    -5055599.95049  -3920000.18849  20205992.1824   20205999.0324
  22322718.916    -4468784.79449  -3466178.40549  22322720.7344   22322727.2434
  23259469.505    -3677259.39449  -2841673.68649  23259468.2064   23259476.0064
 96  5 11 17 14 29.9980000  0  6 19  2 27  7 26 15
  22777229.601      222599.97849    169520.92149  22777231.0894   22777239.2984
  20613382.348    -2833389.80249  -2197897.95849  20613383.5304   20613390.5344
  20298155.024    -1465908.13449  -1138198.63249  20298154.6154   20298161.0394
  20180853.963    -5187701.18549  -4022936.18849  20180854.2484   20180861.2884
  22300697.017    -4584515.43449  -3556358.12349  22300697.6154   22300704.5424
  23241396.592    -3772233.97849  -2915679.84649  23241395.5104   23241403.7294
 96  5 11 17 14 59.9980000  0  6 19  2 27  7 26 15
  22777686.391      225003.50249    171393.75549  22777687.6914   22777696.3694
  20598755.307    -2910265.19249  -2257800.85549  20598754.8764   20598761.5194
  20291196.215    -1502474.17649  -1166691.65149  20291196.6154   20291202.9324
  20155801.836    -5319347.19049  -4125517.46549  20155802.9314   20155809.7384
  22278775.979    -4699705.59549  -3646116.67249  22278777.7334   22278784.5344
  23223421.544    -3866671.17749  -2989267.25749  23223423.7804   23223434.6704
 96  5 11 17 15 29.9980000  0  6 19  2 27  7 26 15
  22778184.039      227613.92049    173427.78649  22778184.5724   22778193.9564
  20584163.069    -2986946.28849  -2317552.35749  20584162.9314   20584169.8314
  20284316.041    -1538625.91249  -1194861.84249  20284317.1234   20284323.6624
  20130837.588    -5450538.13949  -4227744.14849  20130838.0104   20130844.9514
  22256953.006    -4814384.51549  -3735476.86849  22256954.7054   22256961.6454
  23205556.288    -3960581.84649  -3062444.40749  23205554.1594   23205561.3624
 96  5 11 17 15 59.9980000  0  6 19  2 27  7 26 15
  22778722.426      230419.28149    175613.72549  22778718.9554   22778728.1574
  20569603.441    -3063457.52449  -2377171.49749  20569603.3674   20569610.0504
  20277514.676    -1574366.42249  -1222711.60649  20277515.7254   20277522.5234
  20105958.507    -5581276.53849  -4329618.19249  20105959.3784   20105966.3294
  22235221.879    -4928593.54349  -3824470.91349  22235222.3154   22235228.5494
  23187778.433    -4053979.74049  -3135221.99649  23187781.6344   23187788.6664
 96  5 11 17 16 29.9980000  0  6 19  2 27  7 26 15
  22779288.576      233398.46449    177935.11449  22779286.3654   22779294.0494
  20555070.766    -3139823.23449  -2436677.23849  20555071.2704   20555078.1224
  20270785.648    -1609729.47149  -1250267.23749  20270786.4874   20270793.0654
  20081160.823    -5711590.36249  -4431161.40449  20081161.3684   20081168.4714
  22213573.188    -5042349.08249  -3913111.59349  22213575.0114   22213582.4884
  23170103.180    -4146874.01949  -3207607.11549  23170102.3864   23170110.4824
 96  5 11 17 16 59.9980000  0  6 19  2 27  7 26 15
  22779880.087      236537.36549    180380.95849  22779883.0254   22779891.8184
  20540560.841    -3216075.12549  -2496094.29249  20540561.1794   20540568.0314
  20264124.923    -1644732.05049  -1277541.97849  20264125.8174   20264132.1964
  20056441.019    -5841490.72249  -4532382.43849  20056442.2504   20056449.2374
  22192011.832    -5155658.28649  -4001404.47449  22192012.3254   22192019.8664
  23152521.898    -4239277.59749  -3279609.87949  23152519.8514   23152527.5684
 96  5 11 17 17 29.9980000  0  6 19  2 27  7 26 15
  22780510.325      239825.30549    182942.93749  22780509.3324   22780517.4704
  20526065.266    -3292249.26049  -2555450.75449  20526065.7254   20526072.4074
  20257532.276    -1679375.58349  -1304536.94249  20257533.2744   20257539.6654
  20031797.505    -5970995.60349  -4633295.29949  20031798.1134   20031805.3764
  22170531.652    -5268542.74749  -4089366.38549  22170531.3654   22170538.5784
  23135022.754    -4331206.39049  -3351242.70949  23135024.7534   23135035.5984
 96  5 11 17 17 59.9980000  0  6 19  2 27  7 26 15
  22781159.934      243246.89649    185609.07049  22781160.3944   22781167.9264
  20511578.599    -3368378.91849  -2614772.55849  20511578.8454   20511585.2044
  20251006.787    -1713666.44749  -1331257.10649  20251008.2834   20251014.6874
  20007225.285    -6100119.03649  -4733910.93749  20007226.9624   20007233.8054
  22149129.144    -5381001.18149  -4176996.33449  22149131.4934   22149138.6964
  23117622.274    -4422671.34649  -3422514.06949  23117620.2854   23117629.5954
 96  5 11 17 18 29.9980000  0  6 19  2 27  7 26 15
  22781830.546      246773.51849    188357.04049  22781831.7114   22781838.9944
  20497098.698    -3444474.27149  -2674067.62749  20497098.5724   20497104.9454
  20244545.804    -1747622.69849  -1357716.54449  20244546.2974   20244552.9424
  19982725.026    -6228878.36649  -4834242.85549  19982724.7364   19982731.7464
  22127810.272    -5493036.49049  -4264296.56049  22127811.9274   22127819.0374
  23100300.726    -4513689.39149  -3493437.20449  23100301.3954   23100309.3514
 96  5 11 17 18 59.9980000  0  6 19  2 27  7 26 15
  22782517.770      250390.73449    191175.60749  22782519.9314   22782527.4504
  20482619.664    -3520548.29749  -2733346.08049  20482621.7474   20482628.5074
  20238148.744    -1781239.00749  -1383911.07349  20238149.6764   20238156.0054
  19958290.406    -6357283.25249  -4934298.58249  19958289.9694   19958297.1074
  22106567.969    -5604671.14949  -4351284.61049  22106568.9274   22106576.0404
  23083062.845    -4604278.72549  -3564026.28549  23083061.8704   23083069.9524
 96  5 11 17 19 29.9980000  0  6 19  2 27  7 26 15
  22783220.769      254076.30449    194047.43249  22783221.1934   22783228.9414
  20468147.880    -3596615.67949  -2792619.36549  20468146.7734   20468153.5504
  20231810.483    -1814545.11349  -1409863.89049  20231811.4604   20231817.8784
  19933915.842    -6485363.39049  -5034101.26149  19933917.2224   19933924.2234
  22085394.520    -5715936.22449  -4437984.66149  22085395.9714   22085402.4974
  23065899.068    -4694454.44249  -3634293.05249  23065901.2634   23065911.6574
 96  5 11 17 19 59.9980000  0  6 19  2 27  7 26 15
  22783928.811      257803.26549    196951.51949  22783930.1654   22783938.5194
  20453672.237    -3672677.89649  -2851888.61949  20453672.7394   20453679.5344
  20225526.452    -1847571.01449  -1435598.37049  20225526.9484   20225533.2184
  19909601.902    -6613137.04049  -5133665.11649  19909602.4494   19909609.6314
  22064289.396    -5826840.45449  -4524403.53149  22064290.9744   22064298.6874
  23048817.689    -4784225.76149  -3704244.71249  23048819.9954   23048824.7744
 96  5 11 17 20 29.9980000  0  6 19  2 27  7 26 15
  22784647.077      261557.44649    199876.79149  22784645.0924   22784652.4274
  20439198.236    -3748738.40049  -2911156.53549  20439198.8134   20439205.7414
  20219292.496    -1880330.72949  -1461125.43649  20219292.8714   20219299.3354
  19885342.972    -6740617.15549  -5233000.24149  19885343.8714   19885350.9454
  22043251.195    -5937400.56749  -4610554.26449  22043252.7274   22043259.3424
  23031806.897    -4873605.15849  -3773890.99249  23031810.2134   23031823.0844
 96  5 11 17 20 59.9980000  0  6 19  2 27  7 26 15
  22785361.719      265333.86349    202819.41549  22785362.8394   22785370.7144
  20424723.013    -3824812.76049  -2970435.24949  20424722.5114   20424729.2154
  20213105.273    -1912841.14849  -1486458.24549  20213106.4314   20213112.8384
  19861138.204    -6867807.63549  -5332109.68349  19861140.3284   19861147.3484
  22022275.716    -6047626.42149  -4696444.53049  22022277.2344   22022284.4004
  23014876.182    -4962605.72549  -3843242.04249  23014874.9514   23014882.6264
 96  5 11 17 21 29.9970000  0  6 19  2 27  7 26 15
  22786080.961      269109.97049    205761.77649  22786082.5204   22786089.6524
  20410240.603    -3900911.09849  -3029732.64649  20410241.3514   20410248.1544
  20206962.093    -1945129.14749  -1511617.73649  20206962.0704   20206968.7394
  19836991.402    -6994707.29949  -5430992.51249  19836992.0274   19836999.0714
  22001364.704    -6157514.59849  -4782071.67849  22001366.1874   22001373.2814
  22998009.294    -5051237.22449  -3912305.53249  22998008.0854   22998015.1194
 96  5 11 17 21 59.9970000  0  6 19  2 27  7 26 15
  22786796.964      272873.65449    208694.46449  22786798.7344   22786806.3014
  20395753.981    -3977041.26349  -3089054.85049  20395754.1694   20395760.9824
  20200861.717    -1977184.90549  -1536596.26649  20200862.3644   20200869.1434
  19812898.412    -7121316.38249  -5529648.91049  19812899.3444   19812906.2834
  21980519.488    -6267058.72449  -4867430.73049  21980520.5064   21980527.2894
  22981211.869    -5139510.20349  -3981089.64749  22981210.7834   22981220.5834
 96  5 11 17 22 29.9970000  0  6 19  2 27  7 26 15
  22787516.858      276636.34749    211626.35749  22787514.2064   22787522.1574
  20381261.554    -4053199.15549  -3148398.65549  20381261.9244   20381268.5944
  20194807.659    -2008999.77449  -1561387.08749  20194808.1234   20194814.5654
  19788863.725    -7247618.34849  -5628065.99949  19788864.9224   19788872.0014
  21959736.731    -6376261.01349  -4952523.41249  21959739.9314   21959746.6904
  22964480.457    -5227423.75449  -4049593.71949  22964482.1154   22964487.6994
 96  5 11 17 22 59.9970000  0  6 19  2 27  7 26 15
  22788227.161      280402.20849    214560.73349  22788230.6134   22788238.8944
  20366762.682    -4129386.95449  -3207765.75849  20366763.7464   20366770.5834
  20188798.864    -2040578.76549  -1585994.11349  20188798.8914   20188805.4034
  19764886.413    -7373622.69649  -5726251.17849  19764887.1434   19764894.0764
  21939024.161    -6485122.09849  -5037350.23649  21939024.6354   21939030.9694
  22947819.722    -5314976.95149  -4117817.03649  22947821.9724   22947829.2714
 96  5 11 17 23 29.9970000  0  6 19  2 27  7 26 15
  22788947.585      284147.56749    217479.11249  22788943.6004   22788951.6234
  20352255.411    -4205631.63949  -3267177.19649  20352255.1304   20352261.6944
  20182828.780    -2071943.62249  -1610434.27949  20182830.3774   20182836.6934
  19740956.444    -7499368.59249  -5824234.97049  19740958.4154   19740965.3664
  21918367.090    -6593671.88949  -5121934.48449  21918368.1004   21918375.1214
  22931222.386    -5402190.64549  -4185775.69349  22931222.6734   22931234.0024
 96  5 11 17 23 59.9970000  0  6 19  2 27  7 26 15
  22789648.745      287889.50349    220394.83549  22789655.9024   22789664.1914
  20337733.786    -4281938.01249  -3326636.69849  20337734.3794   20337741.0664
  20176904.972    -2103080.78549  -1634697.02449  20176905.0974   20176911.4964
  19717074.400    -7624871.04849  -5922029.06549  19717075.8334   19717082.9114
  21897769.067    -6701915.16049  -5206279.89449  21897770.4624   21897777.4434
  22914693.082    -5489062.62449  -4253468.15849  22914693.6854   22914703.1104
 96  5 11 17 24 29.9970000  0  6 19  2 27  7 26 15
  22790367.164      291627.89449    223307.79449  22790367.4444   22790375.7444
  20323199.420    -4358314.44049  -3386150.79449  20323200.3034   20323207.0444
  20171022.206    -2133997.20249  -1658787.75249  20171022.0534   20171028.2914
  19693237.127    -7750137.03849  -6019638.90149  19693238.5004   19693245.5344
  21877227.929    -6809860.88349  -5290393.44249  21877229.1224   21877235.7114
  22898226.248    -5575594.38549  -4320895.48249  22898225.9584   22898235.0394
 96  5 11 17 24 59.9970000  0  6 19  2 27  7 26 15
  22791074.950      295348.92249    226207.22949  22791075.6334   22791084.2124
  20308650.373    -4434770.23049  -3445726.73149  20308651.6264   20308658.1694
  20165180.136    -2164692.34049  -1682706.05149  20165180.8034   20165187.4604
  19669443.770    -7875177.28549  -6117072.83349  19669444.1554   19669451.1594
  21856744.385    -6917505.12649  -5374272.07049  21856745.1564   21856751.6054
  22881821.472    -5661789.43049  -4388060.45649  22881825.3094   22881833.3274
 96  5 11 17 25 29.9970000  0  6 19  2 27  7 26 15
  22791779.053      299062.49449    229100.85449  22791782.0194   22791791.3484
  20294087.511    -4511299.94349  -3505360.26849  20294088.3534   20294094.8294
  20159382.775    -2195157.70049  -1706445.31249  20159383.5524   20159390.2034
  19645697.169    -7999963.67249  -6214308.95649  19645698.2314   19645705.1794
  21836319.476    -7024833.87449  -5457904.85649  21836321.0454   21836327.7464
  22865487.079    -5747637.35049  -4454954.93449  22865490.1234   22865496.1314
 96  5 11 17 25 59.9970000  0  6 19  2 27  7 26 15
  22792482.542      302756.31949    231979.09949  22792485.4324   22792494.0894
  20279512.674    -4587890.31949  -3565041.07249  20279513.8054   20279520.2404
  20153628.924    -2225395.18749  -1730007.00849  20153629.7144   20153636.4444
  19622002.688    -8124479.95449  -6311334.60449  19622003.6584   19622010.6514
  21815956.723    -7131835.54549  -5541282.77549  21815959.1764   21815965.6644
  22849220.143    -5833132.85449  -4521574.77249  22849219.5284   22849229.3494
 96  5 11 17 26 29.9970000  0  6 19  2 27  7 26 15
  22793179.541      306430.26649    234841.87349  22793184.2864   22793193.1174
  20264930.711    -4664515.30549  -3624748.84349  20264932.3304   20264938.8404
  20147917.589    -2255407.17949  -1753392.99849  20147918.5824   20147924.9964
  19598365.124    -8248699.24149  -6408128.82749  19598365.4694   19598372.3394
  21795661.386    -7238495.76749  -5624394.62649  21795662.2004   21795669.4344
  22833021.502    -5918259.18849  -4587906.97249  22833020.3514   22833027.7034
 96  5 11 17 26 59.9970000  0  6 19  2 27  7 26 15
  22793884.583      310094.38949    237696.98549  22793881.8694   22793890.2534
  20250345.905    -4741163.52949  -3684474.73149  20250346.7974   20250353.2944
  20142247.800    -2285202.33149  -1776610.01849  20142248.9414   20142255.5384
  19574781.939    -8372624.05349  -6504693.59049  19574783.5734   19574790.2404
  21775427.037    -7344821.03749  -5707245.48049  21775429.4214   21775436.4704
  22816888.105    -6003018.02149  -4653952.82549  22816892.0114   22816899.4104
 96  5 11 17 27 29.9970000  0  6 19  2 27  7 26 15
  22794581.414      313765.18949    240557.28449  22794580.6424   22794589.0284
  20235759.209    -4817824.97649  -3744210.91649  20235758.7464   20235765.0554
  20136621.635    -2314773.88749  -1799652.80649  20136621.9024   20136628.2824
  19551258.200    -8496247.46649  -6601023.49749  19551258.6014   19551265.4554
  21755260.611    -7450798.98849  -5789825.69649  21755262.5104   21755269.3824
  22800837.485    -6087398.82749  -4719704.08849  22800835.0814   22800842.4244
 96  5 11 17 27 59.9970000  0  6 19  2 27  7 26 15
  22795280.463      317453.58649    243431.29749  22795282.9634   22795290.9114
  20221172.141    -4894475.83949  -3803938.85849  20221172.5504   20221178.9044
  20131040.673    -2344096.70849  -1822501.76949  20131041.7034   20131048.0794
  19527791.127    -8619566.97949  -6697116.59949  19527791.6794   19527798.4544
  21735164.438    -7556411.90549  -5872121.46749  21735165.1964   21735171.7614
  22784852.182    -6171383.01449  -4785146.32949  22784852.9794   22784860.9274
 96  5 11 17 28 29.9970000  0  6 19  2 27  7 26 15
  22795995.435      321192.43449    246344.62749  22795993.7254   22796001.8664
  20206589.034    -4971107.82949  -3863652.09449  20206589.9124   20206596.5744
  20125512.354    -2373150.88649  -1845141.40849  20125513.0014   20125519.5644
  19504382.830    -8742576.67549  -6792968.28949  19504383.7764   19504390.6484
  21715137.628    -7661651.43449  -5954126.29249  21715138.4534   21715145.0514
  22768947.066    -6254960.14149  -4850271.39149  22768949.0064   22768956.4404
 96  5 11 17 28 59.9970000  0  6 19  2 27  7 26 15
  22796722.335      325006.50449    249316.56149  22796719.9444   22796727.5174
  20192012.282    -5047710.11849  -3923342.18649  20192012.8854   20192019.5524
  20120040.635    -2401902.96749  -1867545.64149  20120041.4594   20120048.0784
  19481037.004    -8865258.92849  -6888564.82649  19481037.9774   19481044.8264
  21695184.554    -7766498.88249  -6035825.59949  21695186.6134   21695194.0954
  22753122.557    -6338115.73049  -4915067.93849  22753123.8084   22753133.2474
 96  5 11 17 29 29.9970000  0  6 19  2 27  7 26 15
  22797457.844      328886.44749    252339.83649  22797458.6774   22797466.4854
  20177440.833    -5124281.38749  -3983008.09949  20177441.7774   20177448.4154
  20114629.900    -2430337.62949  -1889702.53549  20114630.7204   20114637.1304
  19457755.879    -8987599.87649  -6983895.40649  19457757.1614   19457763.9384
  21675311.620    -7870936.32349  -6117205.41149  21675312.7114   21675319.6514
  22737380.274    -6420837.25649  -4979526.26549  22737383.8034   22737387.4254
 96  5 11 17 29 59.9970000  0  6 19  2 27  7 26 15
  22798210.754      332837.45549    255418.46049  22798209.6704   22798218.8784
  20162880.586    -5200804.69349  -4042636.64949  20162880.0004   20162886.4304
  20109279.843    -2458455.51349  -1911612.59649  20109279.8484   20109286.6204
  19434544.075    -9109583.08049  -7078947.23249  19434544.5994   19434551.4544
  21655513.646    -7974972.02349  -6198272.19349  21655515.4944   21655522.3664
  22721724.153    -6503111.39949  -5043635.98649  22721725.0104   22721732.9304
 96  5 11 17 30 29.9960000  0  6 19  2 27  7 26 15
  22798978.890      336879.26449    258567.84249  22798979.3554   22798987.0544
  20148329.560    -5277264.22849  -4102215.49949  20148330.4614   20148336.9414
  20103988.285    -2486255.76749  -1933275.15449  20103989.9404   20103996.6364
  19411403.270    -9231188.80649  -7173704.91749  19411403.7734   19411410.4754
  21635794.815    -8078600.99049  -6279022.03349  21635795.7884   21635802.3634
  22706160.665    -6584927.30949  -5107388.63149  22706159.0314   22706163.9944
 96  5 11 17 30 59.9960000  0  6 19  2 27  7 26 15
  22799767.201      341007.58949    261784.64749  22799764.2684   22799773.6944
  20133791.970    -5353662.11549  -4161746.31549  20133792.4764   20133798.9644
  20098759.318    -2513732.69749  -1954685.76949  20098761.0814   20098767.9704
  19388335.181    -9352409.44049  -7268162.53249  19388335.9704   19388342.9384
  21616151.438    -8181824.29149  -6359455.77649  21616153.0234   21616159.7994
  22690672.782    -6666279.20349  -5170779.72349  22690674.7284   22690686.2004
 96  5 11 17 31 29.9960000  0  6 19  2 27  7 26 15
  22800565.194      345217.77349    265065.21949  22800565.8184   22800574.5574
  20119264.895    -5430002.50249  -4221232.32849  20119265.2304   20119271.8694
  20093591.458    -2540896.40649  -1975852.31349  20093592.0214   20093598.7104
  19365340.351    -9473247.41849  -7362321.97249  19365341.4044   19365348.2654
  21596583.928    -8284651.73149  -6439581.05649  21596585.9054   21596592.8374
  22675286.421    -6747160.47049  -5233804.09949  22675284.7944   22675293.5084
 96  5 11 17 31 59.9960000  0  6 19  2 27  7 26 15
  22801383.933      349510.68749    268410.26749  22801382.5204   22801391.4624
  20104746.915    -5506297.11049  -4280682.67049  20104746.7994   20104753.5124
  20088480.353    -2567755.37749  -1996781.40449  20088481.0404   20088487.5334
  19342416.879    -9593713.11949  -7456191.32749  19342417.5064   19342424.5414
  21577089.203    -8387097.44949  -6519408.88449  21577091.1984   21577098.3544
  22659979.035    -6827583.94549  -5296471.72749  22659981.1634   22659990.1274
 96  5 11 17 32 29.9960000  0  6 19  2 27  7 26 15
  22802214.882      353896.56049    271827.77549  22802216.8004   22802226.3464
  20090237.345    -5582540.75849  -4340093.30549  20090237.8974   20090244.6574
  20083433.820    -2594274.61849  -2017445.76849  20083434.5694   20083441.4134
  19319566.659    -9713791.88349  -7549759.17349  19319567.4364   19319574.3404
  21557675.381    -8489121.96549  -6598908.50549  21557676.0944   21557683.4944
  22644764.369    -6907535.27549  -5358771.48649  22644764.6974   22644774.8364
 96  5 11 17 32 59.9960000  0  6 19  2 27  7 26 15
  22803074.608      358388.16649    275327.66049  22803071.9284   22803082.5764
  20075742.365    -5658709.36349  -4399445.46749  20075743.6594   20075750.1994
  20078458.189    -2620415.64849  -2037815.42349  20078459.7614   20078466.8014
  19296797.249    -9833445.30249  -7642995.58149  19296798.0184   19296804.9874
  21538348.864    -8590680.21849  -6678044.81649  21538350.6974   21538357.4344
  22629648.948    -6986978.88549  -5420675.61549  22629651.2234   22629658.5604
 96  5 11 17 33 29.9960000  0  6 19  2 27  7 26 15
  22803953.336      363021.69549    278938.13349  22803954.4954   22803963.7134
  20061274.882    -5734745.23449  -4458694.19249  20061274.6734   20061280.9524
  20073562.311    -2646149.88849  -2057868.10049  20073562.9434   20073569.8564
  19274113.879    -9952644.07049  -7735877.71349  19274115.3114   19274122.2974
  21519123.289    -8691714.01549  -6756772.45549  21519123.9034   21519131.0094
  22614632.674    -7065875.36249  -5482153.39749  22614634.8544   22614644.6874
 96  5 11 17 33 59.9960000  0  6 19  2 27  7 26 15
  22804863.906      367806.54749    282666.51649  22804865.3604   22804874.0974
  20046833.490    -5810625.17149  -4517821.41549  20046834.8594   20046841.7414
  20068745.223    -2671460.29249  -2077590.51249  20068746.5314   20068753.2004
  19251521.426   -10071366.89849  -7828388.98449  19251523.1674   19251530.1744
  21500006.761    -8792172.38749  -6835051.69849  21500007.6094   21500014.5024
  22599727.842    -7144208.42249  -5543192.14649  22599728.9194   22599737.4854
 96  5 11 17 34 29.9960000  0  6 19  2 27  7 26 15
  22805777.342      372624.66749    286420.83049  22805782.3074   22805791.0054
  20032405.691    -5886454.74549  -4576909.39849  20032404.9904   20032412.0154
  20063987.635    -2696459.91049  -2097070.75449  20063989.4024   20063996.1494
  19229000.209   -10189716.99249  -7920609.81049  19229001.8794   19229008.7504
  21480979.846    -8892160.76949  -6912964.72649  21480980.6564   21480987.0094
  22584911.086    -7222081.72049  -5603872.63749  22584911.1394   22584920.0874
 96  5 11 17 34 59.9960000  0  6 19  2 27  7 26 15
  22806718.859      377540.78149    290251.49949  22806717.0524   22806726.0794
  20017996.453    -5962165.73149  -4635904.97249  20017997.7624   20018004.3454
  20059298.663    -2721103.85249  -2116273.85449  20059299.6154   20059306.5844
  19206562.996   -10307630.24749  -8012490.24249  19206563.7384   19206570.8834
  21462049.079    -8991640.23149  -6990481.20049  21462050.1634   21462056.8954
  22570189.801    -7299434.90549  -5664147.86349  22570190.9624   22570198.9264
 96  5 11 17 35 29.9960000  0  6 19  2 27  7 26 15
  22807693.330      382656.43849    294237.66349  22807691.1544   22807700.1764
  20003632.205    -6037655.61849  -4694728.26349  20003632.4584   20003639.0304
  20054693.078    -2745298.40449  -2135126.78349  20054695.6254   20054702.7504
  19184224.135   -10425019.69249  -8103962.51649  19184225.2374   19184232.2964
  21443229.974    -9090531.14849  -7067539.05649  21443231.6404   21443238.4844
  22555591.509    -7376175.88049  -5723946.02749  22555589.3984   22555598.1054
 96  5 11 17 35 59.9960000  0  6 19  2 27  7 26 15
  22808679.489      387854.78049    298288.24849  22808679.3524   22808689.1484
  19989284.071    -6113056.07249  -4753481.86749  19989284.3174   19989291.0364
  20050156.253    -2769145.66349  -2153709.08349  20050157.8754   20050164.4684
  19161965.280   -10541990.98249  -8195108.95549  19161966.3394   19161973.2544
  21424496.140    -9188979.42249  -7144252.00849  21424498.1564   21424504.7374
  22541081.292    -7452424.80749  -5783360.77849  22541079.5594   22541086.8114
 96  5 11 17 36 29.9960000  0  6 19  2 27  7 26 15
  22809698.772      393202.11749    302454.94349  22809698.2484   22809706.5454
  19974966.265    -6188298.89749  -4812112.64149  19974966.1324   19974972.8514
  20045696.394    -2792589.59049  -2171977.10449  20045697.0384   20045703.7594
  19139796.697   -10658487.25449  -8285885.25149  19139797.6524   19139804.6294
  21405852.175    -9286955.36749  -7220596.89649  21405853.5064   21405860.8174
  22526672.930    -7528123.43649  -5842346.71949  22526672.3654   22526681.3564
 96  5 11 17 36 59.9960000  0  6 19  2 27  7 26 15
  22810760.354      398778.41849    306800.03049  22810758.2754   22810768.2624
  19960691.506    -6263306.78749  -4870560.34749  19960692.6094   19960699.4654
  20041322.169    -2815564.33649  -2189879.52549  20041324.9874   20041331.7024
  19117730.176   -10774450.67449  -8376246.33549  19117730.7304   19117737.4384
  21387311.232    -9384383.19749  -7296514.69049  21387313.8274   21387321.0204
  22512388.634    -7603202.64449  -5900850.00349  22512386.9724   22512393.1774
 96  5 11 17 37 29.9960000  0  6 19  2 27  7 26 15
  22811838.697      404464.16849    311230.42549  22811840.4854   22811850.1754
  19946439.244    -6338201.87249  -4928920.15749  19946440.6714   19946447.0894
  20037018.149    -2838192.61849  -2207511.97849  20037018.9684   20037025.2124
  19095737.946   -10890013.67049  -8466295.40449  19095739.5104   19095746.3214
  21368858.649    -9481361.30549  -7372082.05149  21368859.3994   21368866.3794
  22498190.341    -7677783.29649  -5958964.83049  22498193.3314   22498201.7894
 96  5 11 17 37 59.9960000  0  6 19  2 27  7 26 15
  22812973.939      410411.73649    315864.81849  22812973.1814   22812981.2724
  19932232.874    -6412863.32149  -4987097.90849  19932233.1704   19932239.8604
  20032801.299    -2860347.77749  -2224775.75949  20032802.8684   20032809.8424
  19073851.342   -11005032.65749  -8555920.56449  19073852.1744   19073859.0144
  21350517.420    -9577736.85649  -7447179.88349  21350519.6504   21350526.8284
  22484119.586    -7751727.61849  -6016583.77749  22484121.9634   22484130.5324
 96  5 11 17 38 29.9950000  0  6 19  2 27  7 26 15
  22814141.428      416565.19749    320659.64249  22814144.0074   22814153.4304
  19918058.098    -6487353.12249  -5045141.90749  19918058.3274   19918064.7854
  20028660.033    -2882103.51949  -2241728.30749  20028662.8904   20028669.2974
  19052054.876   -11119568.97049  -8645169.62349  19052056.6184   19052063.3954
  21332288.110    -9673550.56949  -7521839.93849  21332287.1624   21332293.7904
  22470160.127    -7825094.03849  -6073752.42549  22470163.6764   22470170.9884
 96  5 11 17 38 59.9950000  0  7 19  2  9 27  7 26 15
  22815345.825      422875.14849    325576.43349  22815344.3584   22815354.2364
  19903903.120    -6561729.67349  -5103097.65849  19903904.6834   19903911.0894
  23407168.566    -4527617.13459  -3506665.39359  23407170.3644   23407177.6324
  20024593.004    -2903493.70249  -2258396.00849  20024592.9274   20024599.2224
  19030343.520   -11233666.72249  -8734076.93849  19030344.6134   19030351.4004
  21314153.262    -9768836.25249  -7596088.51349  21314154.9444   21314162.0704
  22456300.009    -7897926.83049  -6130505.23549  22456303.0124   22456309.6224
 96  5 11 17 39 29.9950000  0  7 19  2  9 27  7 26 15
  22816590.603      429442.68849    330693.92749  22816594.7174   22816604.1114
  19889791.027    -6635898.05349  -5160891.19949  19889791.0444   19889797.6814
  23370638.106    -4719589.85649  -3656254.44749  23370639.7574   23370647.3004
  20020611.296    -2924409.62549  -2274694.15549  20020612.2664   20020619.0404
  19008736.817   -11347207.77249  -8822550.46149  19008738.4294   19008745.4854
  21296139.405    -9863501.93049  -7669853.98049  21296140.9174   21296147.0574
  22442562.275    -7970123.78549  -6186762.59649  22442564.4334   22442571.7414
 96  5 11 17 39 59.9950000  0  7 19  2  9 27  7 26 15
  22817854.994      436084.49049    335869.29849  22817857.9144   22817867.5094
  19875681.988    -6710034.84949  -5218660.12849  19875682.9484   19875689.9204
  23334091.454    -4911646.64949  -3805909.03249  23334092.2854   23334099.9554
  20016689.150    -2945020.73049  -2290754.77749  20016690.0254   20016696.9434
  18987206.460   -11460353.61249  -8910716.03049  18987207.5474   18987214.2764
  21278208.207    -9957734.23549  -7743281.74949  21278209.0664   21278215.5274
  22428912.540    -8041860.32349  -6242661.21049  22428913.4044   22428919.2734
 96  5 11 17 40 29.9950000  0  7 19  2  9 27  7 26 15
  22819136.414      442801.16849    341103.00849  22819137.5074   22819145.7584
  19861588.735    -6784091.07349  -5276366.26649  19861590.5004   19861597.8214
  23297529.904    -5103763.63249  -3955610.52449  23297532.9604   23297541.3014
  20012831.722    -2965288.70349  -2306548.02449  20012833.1844   20012840.2754
  18965753.785   -11573086.03549  -8998559.45449  18965755.4404   18965762.0484
  21260360.801   -10051519.39649  -7816361.09949  21260362.0264   21260369.0374
  22415353.752    -8113111.28849  -6298181.42549  22415355.1284   22415360.5894
 96  5 11 17 40 59.9950000  0  7 19  2  9 27  7 26 15
  22820438.044      449654.70449    346443.35949  22820441.7044   22820450.0004
  19847526.948    -6857995.47749  -5333954.11149  19847527.0494   19847534.1654
  23260977.765    -5295867.74049  -4105301.92249  23260977.0114   23260985.3434
  20009051.369    -2985152.98549  -2322026.71049  20009053.2684   20009060.2464
  18944392.508   -11685346.72649  -9086035.29249  18944392.9254   18944399.6684
  21242608.290   -10144803.29349  -7889049.84949  21242610.3704   21242617.9594
  22401899.081    -8183814.54749  -6353274.87149  22401900.4374   22401906.4254
 96  5 11 17 41 29.9950000  0  7 19  2  9 27  7 26 15
  22821790.879      456736.66949    351961.69749  22821788.9494   22821797.4674
  19833508.576    -6931652.59949  -5391349.26749  19833510.6574   19833517.6824
  23224443.189    -5487863.27649  -4254908.79549  23224442.4284   23224449.4604
  20005362.429    -3004538.02749  -2337131.95749  20005364.4384   20005371.3394
  18923134.037   -11797057.76149  -9173082.83549  18923134.8154   18923141.5014
  21224967.952   -10237510.04049  -7961288.88049  21224969.6644   21224976.0684
  22388562.783    -8253885.42849  -6407875.56549  22388564.8514   22388571.7034
 96  5 11 17 41 59.9950000  0  7 19  2  9 27  7 26 15
  22823128.332      463792.19449    357459.44549  22823131.2024   22823140.4404
  19819495.621    -7005300.30049  -5448737.08249  19819495.8234   19819503.0504
  23187882.346    -5679987.53849  -4404615.93349  23187881.9134   23187891.7034
  20001718.431    -3023689.33349  -2352055.07349  20001720.2884   20001726.8254
  18901933.035   -11908466.72549  -9259894.99249  18901934.5584   18901941.2994
  21207393.088   -10329872.89449  -8033259.94149  21207394.0144   21207400.3814
  22375305.133    -8323563.68649  -6462170.30449  22375306.5354   22375311.5594
 96  5 11 17 42 29.9950000  0  7 19  2  9 27  7 26 15
  22824525.935      471123.16149    363171.81449  22824526.0044   22824535.2454
  19805540.838    -7078635.17149  -5505881.12849  19805540.7644   19805547.5174
  23151353.624    -5871938.10249  -4554187.73249  23151354.3414   23151361.7404
  19998174.476    -3042316.64349  -2366569.88049  19998175.3984   19998182.4394
  18880845.437   -12019283.57749  -9346245.76949  18880846.6334   18880853.6314
  21189938.789   -10421593.65549  -8104730.67349  21189939.6884   21189946.2394
  22362176.357    -8392547.30049  -6515923.78749  22362179.8084   22362186.4834
 96  5 11 17 42 59.9950000  0  7 19  2  9 27  7 26 15
  22825935.421      478540.60449    368951.58649  22825937.8704   22825946.8144
  19791605.672    -7151865.92349  -5562944.04549  19791605.5264   19791612.2334
  23114825.230    -6063905.18649  -4703772.43349  23114823.4164   23114831.9504
  19994689.578    -3060626.07749  -2380836.99349  19994691.2594   19994698.3934
  18859834.800   -12129695.91649  -9432281.33649  18859835.9384   18859842.7534
  21172572.917   -10512847.91249  -8175837.89449  21172574.1364   21172581.2014
  22349148.587    -8461021.53649  -6569280.30949  22349149.0454   22349156.2284
 96  5 11 17 43 29.9950000  0  8 19  2  9 27  7 26  4 15
  22827372.009      486080.45049    374826.72049  22827373.6434   22827382.1304
  19777696.444    -7224952.16049  -5619894.35649  19777697.6874   19777704.2744
  23078298.222    -6255859.71949  -4853347.33649  23078295.2414   23078303.7754
  19991278.107    -3078561.88149  -2394812.97349  19991277.8864   19991285.1374
  18838911.403   -12239651.02349  -9517960.62349  18838912.2354   18838918.9324
  21155309.342   -10603576.90649  -8246535.82649  21155309.0964   21155316.2274
  23188359.048   -11016722.08259  -8512585.76859  23188362.9164   23188371.2604
  22336221.775    -8528940.07549  -6622203.86249  22336224.3374   22336231.4124
 96  5 11 17 43 59.9950000  0  8 19  2  9 27  7 26  4 15
  22828838.898      493796.37249    380839.05249  22828841.3534   22828850.4344
  19763828.144    -7297836.48749  -5676687.33649  19763828.2204   19763834.9664
  23041778.285    -6447739.62849  -5002864.08849  23041781.9604   23041789.5764
  19987947.629    -3096057.79049  -2408446.16949  19987949.1144   19987955.9414
  18818087.075   -12349083.11449  -9603232.36749  18818088.1534   18818094.8494
  21138154.167   -10693715.09849  -8316773.37849  21138156.5824   21138163.4994
  23151247.199   -11211765.68749  -8664567.75149  23151247.3334   23151255.9134
  22323418.947    -8596241.36049  -6674646.42149  22323419.0514   22323425.0524
 96  5 11 17 44 29.9950000  0  8 19  2  9 27  7 26  4 15
  22830324.507      501580.30449    386904.37949  22830322.7734   22830331.0074
  19749977.441    -7370624.47949  -5733405.24649  19749977.2504   19749983.8754
  23005264.342    -6639652.62449  -5152406.57649  23005262.6344   23005271.9354
  19984681.968    -3113223.75749  -2421822.26249  19984682.0844   19984689.6304
  18797343.015   -12458096.06149  -9688177.50049  18797343.5444   18797350.3114
  21121094.012   -10783369.80349  -8386634.20249  21121095.8564   21121102.3684
  23114106.260   -11406922.05449  -8816637.59849  23114110.0914   23114118.8234
  22310704.280    -8663034.80349  -6726693.28049  22310706.2134   22310715.1964
 96  5 11 17 44 59.9950000  0  8 19  2  9 27  7 26  4 15
  22831811.209      509411.42149    393006.48249  22831812.3614   22831821.3464
  19736139.207    -7443331.48549  -5790060.05849  19736141.5454   19736148.2364
  22968734.473    -6831618.69249  -5301990.47949  22968733.5274   22968740.9844
  19981477.126    -3130066.78649  -2434946.73049  19981477.1664   19981484.4814
  18776675.867   -12566703.50849  -9772806.66749  18776676.3314   18776682.9644
  21104120.669   -10872562.49749  -8456135.01149  21104122.7684   21104129.8384
  23076940.649   -11602210.48249  -8968810.33749  23076948.3404   23076956.8264
  22298089.731    -8729341.34949  -6778360.70849  22298088.6354   22298098.1094
 96  5 11 17 45 29.9950000  0  8 19  2  9 27  7 26  4 15
  22833320.380      517335.65449    399181.11349  22833320.7564   22833330.4194
  19722329.876    -7515913.65449  -5846617.58849  19722329.8044   19722336.3114
  22932204.446    -7023598.49049  -5451585.04949  22932200.8154   22932209.7334
  19978342.652    -3146530.62749  -2447775.71949  19978344.2874   19978351.2614
  18756089.979   -12674876.91349  -9857097.61349  18756091.4834   18756098.1884
  21087238.789   -10961285.16449  -8525269.55949  21087239.5554   21087246.7984
  23039769.102   -11797594.94249  -9121057.91849  23039767.6534   23039775.8864
  22285570.192    -8795130.57349  -6829625.05049  22285570.7294   22285577.6214
 96  5 11 17 45 59.9950000  0  8 19  2  9 27  7 26  4 15
  22834840.315      525322.76949    405404.76649  22834840.2124   22834849.7304
  19708537.244    -7588401.38749  -5903101.53249  19708535.8184   19708542.1934
  22895655.081    -7215613.65549  -5601207.16649  22895660.7744   22895671.1894
  19975276.443    -3162655.21249  -2460340.35749  19975276.1104   19975283.0224
  18735581.299   -12782654.76149  -9941080.33549  18735582.1714   18735588.5014
  21070436.499   -11049584.80649  -8594074.47749  21070436.6424   21070443.8114
  23002557.135   -11993110.70749  -9273407.79449  23002561.1424   23002571.2414
  22273141.704    -8860436.22049  -6880512.58249  22273143.1624   22273150.3054
 96  5 11 17 46 29.9950000  0  8 19  2  9 27  7 26  4 15
  22836371.351      533392.92149    411693.12849  22836375.5474   22836385.6534
  19694760.316    -7660791.40649  -5959509.34349  19694760.2814   19694767.0304
  22859116.668    -7407655.61149  -5750850.20049  22859117.4824   22859126.4214
  19972273.834    -3178430.06949  -2472632.48749  19972274.2784   19972281.2974
  18715147.330   -12890033.75449 -10024752.26949  18715148.5564   18715155.1324
  21053714.325   -11137456.78049  -8662546.15549  21053715.6214   21053722.2274
  22965337.261   -12188757.51849  -9425859.78549  22965331.2204   22965341.5894
  22260809.315    -8925244.68049  -6931012.72649  22260810.9594   22260816.8864
 96  5 11 17 46 59.9940000  0  8 19  2  9 27  7 26  4 15
  22837935.559      541542.95549    418043.72249  22837927.4954   22837936.8584
  19681002.100    -7733092.60749  -6015847.93449  19681002.0384   19681008.5444
  22822565.554    -7599718.48049  -5900509.46949  22822568.4054   22822576.8084
  19969337.632    -3193862.12049  -2484657.48749  19969337.8374   19969344.6724
  18694786.469   -12997030.01649 -10108125.96349  18694787.9224   18694794.3014
  21037071.732   -11224914.59449  -8730695.09649  21037072.0004   21037079.7504
  22928076.936   -12384556.18849  -9578430.11849  22928071.2564   22928081.8804
  22248569.637    -8989564.34849  -6981131.95749  22248571.2384   22248579.4534
 96  5 11 17 47 29.9940000  0  8 19  2  9 27  7 26  4 15
  22839496.937      549799.49449    424477.30749  22839499.0684   22839508.4224
  19667263.149    -7805285.95849  -6072102.48549  19667264.1934   19667270.5904
  22786023.686    -7791770.96549  -6050160.66949  22786022.0894   22786029.2674
  19966466.846    -3208940.92249  -2496407.22949  19966468.6694   19966475.4404
  18674503.799   -13103618.10149 -10191181.59849  18674504.9254   18674511.5184
  21020515.023   -11311920.62149  -8798492.01149  21020516.1334   21020523.2284
  22890788.145   -12580490.76049  -9731106.35349  22890787.1754   22890795.8314
  22236428.614    -9053370.23849  -7030850.82949  22236429.0094   22236438.6854
 96  5 11 17 47 59.9940000  0  8 19  2  9 27  7 26  4 15
  22841080.169      558118.54149    430959.59449  22841081.3404   22841091.3534
  19653540.040    -7877401.06149  -6128296.07049  19653541.0234   19653547.6754
  22749471.543    -7983827.68349  -6199815.16849  22749474.8684   22749482.0274
  19963654.344    -3223722.92449  -2507925.69849  19963655.9544   19963662.3514
  18654295.783   -13209812.36749 -10273930.36049  18654296.6584   18654303.2604
  21004042.510   -11398482.84549  -8865943.09849  21004043.1214   21004050.8294
  22853468.096   -12776581.63249  -9883904.38349  22853472.6794   22853481.7554
  22224379.646    -9116693.96149  -7080194.01849  22224380.4684   22224385.7414
 96  5 11 17 48 29.9940000  0  8 19  2  9 27  7 26  4 15
  22842681.600      566501.13549    437491.40749  22842676.8174   22842686.4234
  19639834.723    -7949424.27649  -6184418.05249  19639835.4674   19639842.1294
  22712925.007    -8175883.81049  -6349469.19049  22712926.7154   22712935.1404
  19960899.200    -3238210.02949  -2519214.37949  19960898.7184   19960905.4344
  18634165.482   -13315598.50349 -10356361.10149  18634166.3004   18634172.6234
  20987656.840   -11484588.81749  -8933038.65649  20987658.2094   20987665.5324
  22816132.968   -12972821.56249 -10036818.58449  22816128.5224   22816138.4914
  22212421.666    -9179534.50149  -7129160.67049  22212421.0984   22212429.2834
 96  5 11 17 48 59.9940000  0  8 19  2  9 27  7 26  4 15
  22844280.898      574946.25549    444071.94349  22844283.9624   22844294.1504
  19626153.944    -8021329.03949  -6240447.73049  19626152.5684   19626159.4104
  22676382.224    -8367931.18849  -6499116.42449  22676382.1914   22676388.1944
  19958198.384    -3252397.69749  -2530269.73149  19958198.9394   19958205.5274
  18614118.514   -13420946.15949 -10438450.16649  18614119.0054   18614125.7334
  20971362.363   -11570211.96349  -8999758.00049  20971364.5564   20971371.9664
  22778762.030   -13169178.97449 -10189824.30049  22778764.0234   22778772.2964
  22200552.772    -9241886.87849  -7177746.95949  22200554.5544   22200565.4254
 96  5 11 17 49 29.9940000  0  8 19  2  9 27  7 26  4 15
  22845900.015      583449.32249    450697.60149  22845902.5834   22845912.0494
  19612490.771    -8093118.63349  -6296387.67549  19612491.2674   19612498.1314
  22639833.797    -8559985.49649  -6648769.06949  22639834.8974   22639844.1874
  19955554.821    -3266290.08249  -2541094.99749  19955555.1084   19955561.9874
  18594155.543   -13525847.89749 -10520191.76449  18594157.2424   18594163.9184
  20955160.018   -11655348.94149  -9066098.50449  20955163.5614   20955170.7564
  22741371.960   -13365632.76849 -10342905.12349  22741379.6574   22741388.4594
  22188777.624    -9303754.27649  -7225955.31649  22188783.0924   22188790.8354
 96  5 11 17 49 59.9940000  0  8 19  2  9 27  7 26  4 15
  22847537.286      592022.91949    457378.23549  22847532.7914   22847543.1294
  19598852.461    -8164784.64349  -6352231.31749  19598853.5344   19598860.4594
  22603283.463    -8752067.22149  -6798443.04949  22603283.8954   22603291.3804
  19952968.758    -3279873.91649  -2551679.83149  19952970.1544   19952976.9654
  18574277.247   -13630312.94249 -10601593.08749  18574278.1124   18574284.8164
  20939050.762   -11740013.33849  -9132070.78149  20939052.7084   20939059.8334
  22703978.142   -13562163.03549 -10496045.52249  22703980.5804   22703989.4354
  22177104.162    -9365133.90749  -7273783.60149  22177100.8694   22177109.8894
 96  5 11 17 50 29.9940000  0  8 19  2  9 27  7 26  4 15
  22849177.976      600655.47349    464104.82349  22849176.6024   22849186.7024
  19585236.449    -8236340.37649  -6407989.03049  19585236.8654   19585243.8644
  22566719.447    -8944202.59049  -6948158.82449  22566720.2244   22566730.5304
  19950445.457    -3293150.74849  -2562025.44649  19950443.9024   19950450.6634
  18554475.475   -13734368.56749 -10682675.37949  18554476.7614   18554483.6154
  20923028.242   -11824219.32449  -9197685.84249  20923029.6444   20923035.6244
  22666565.345   -13758777.03249 -10649251.16449  22666567.0444   22666575.0674
  22165511.299    -9426032.59149  -7321237.14549  22165513.9444   22165522.0454
 96  5 11 17 50 59.9940000  0  7  2  9 27  7 26  4 15
  19571639.639    -8307792.90849  -6463666.33149  19571640.2604   19571646.5624
  22530150.433    -9136377.31449  -7097905.28649  22530149.7134   22530159.9754
  19947976.604    -3306110.42349  -2572123.92249  19947977.6224   19947984.6364
  18534749.611   -13838028.75449 -10763449.53949  18534751.1194   18534757.7674
  20907092.195   -11907966.57249  -9262943.45549  20907092.6474   20907098.6404
  22629134.327   -13955470.06549 -10802518.39349  22629137.1164   22629145.4924
  22154018.370    -9486440.42849  -7368308.19949  22154017.3804   22154029.2144
 96  5 11 17 51 29.9940000  0  7  2  9 27  7 26  4 15
  19558060.572    -8379147.91249  -6519267.62849  19558061.6794   19558068.2284
  22493579.907    -9328583.97349  -7247676.62249  22493574.5254   22493581.7104
  19945571.840    -3318745.47949  -2581969.45649  19945573.2224   19945580.6974
  18515095.195   -13941315.41749 -10843932.63449  18515096.1494   18515102.7274
  20891241.662   -11991262.22949  -9327849.17549  20891241.6754   20891248.5424
  22591687.841   -14152250.06949 -10955853.41349  22591691.1984   22591699.6754
  22142619.159    -9546350.62349  -7414991.45249  22142616.8124   22142625.7754
 96  5 11 17 51 59.9940000  0  7  2  9 27  7 26  4 15
  19544508.700    -8450366.02149  -6574762.26449  19544509.4624   19544516.0894
  22457002.945    -9520769.71149  -7397431.66449  22457002.3204   22457010.8774
  19943238.414    -3331011.72949  -2591527.60849  19943239.3984   19943245.9404
  18495518.317   -14044199.19749 -10924101.79849  18495518.0694   18495524.6064
  20875482.528   -12074069.79249  -9392374.56249  20875484.2004   20875490.8584
  22554232.011   -14349082.95749 -11109229.63449  22554234.8484   22554243.5964
  22131318.277    -9605722.29249  -7461255.16649  22131317.9644   22131329.2034
 96  5 11 17 52 29.9940000  0  7  2  9 27  7 26  4 15
  19530965.957    -8521535.93249  -6630219.34249  19530966.2454   19530973.0954
  22420426.855    -9712993.58549  -7547216.41249  22420425.6504   22420436.1364
  19940957.640    -3342993.02049  -2600863.71549  19940958.9174   19940966.0664
  18476002.141   -14146748.54049 -11004010.36249  18476003.5204   18476010.1984
  20859803.932   -12156468.21749  -9456581.13849  20859803.9514   20859811.0854
  22516749.624   -14546065.49149 -11262722.45349  22516750.4154   22516758.0824
  22120107.575    -9664640.33449  -7507165.33849  22120106.8864   22120115.1144
 96  5 11 17 52 59.9940000  0  7  2  9 27  7 26  4 15
  19517439.912    -8592614.48449  -6685605.23749  19517440.6304   19517447.0734
  22383842.993    -9905202.74949  -7696989.71249  22383848.4274   22383858.5824
  19938740.693    -3354650.55849  -2609947.55349  19938740.6154   19938747.8324
  18456562.334   -14248906.77949 -11083614.17149  18456563.5764   18456570.3014
  20844207.750   -12238419.71849  -9520439.46049  20844209.5234   20844216.0554
  22479241.171   -14743155.28149 -11416298.85249  22479245.6644   22479253.6484
  22108989.153    -9723065.10349  -7552691.18849  22108990.8164   22108999.5404
 96  5 11 17 53 29.9940000  0  7  2  9 27  7 26  4 15
  19503933.305    -8663592.09049  -6740912.46749  19503933.7994   19503940.4824
  22347271.006   -10097388.41749  -7846744.74849  22347277.0644   22347285.3814
  19936581.674    -3365980.68949  -2618776.26349  19936585.1514   19936591.8464
  18437201.092   -14350654.49649 -11162898.09049  18437201.4594   18437208.2934
  20828697.598   -12319926.01149  -9583950.86849  20828699.0114   20828706.3974
  22441720.715   -14940332.95249 -11569943.72549  22441724.0964   22441732.4424
  22097966.132    -9780992.85549  -7597829.71049  22097967.2294   22097974.9544
 96  5 11 17 53 59.9940000  0  7  2  9 27  7 26  4 15
  19490443.029    -8734483.42149  -6796152.47349  19490443.7084   19490450.4384
  22310709.286   -10289543.84449  -7996476.18449  22310711.0994   22310718.7154
  19934486.558    -3377004.44249  -2627366.23749  19934487.4054   19934493.8554
  18417918.701   -14451982.89949 -11241855.27849  18417919.4434   18417925.9864
  20813268.332   -12401005.14649  -9647129.42649  20813270.2684   20813277.0424
  22404180.766   -15137602.61649 -11723660.27349  22404184.4634   22404192.4354
  22087035.686    -9838437.56449  -7642591.85049  22087036.9084   22087045.5234
 96  5 11 17 54 29.9940000  0  7  2  9 27  7 26  4 15
  19476965.512    -8805303.34749  -6851336.83149  19476967.1624   19476973.8844
  22274152.088   -10481680.27049  -8146192.78649  22274148.4344   22274156.3944
  19932440.697    -3387752.09349  -2635741.05549  19932442.1834   19932448.5214
  18398712.819   -14552902.31249 -11320493.76349  18398715.2764   18398721.8024
  20797917.002   -12481677.96549  -9709991.37349  20797918.7494   20797925.8724
  22366630.061   -15334983.81249 -11877463.73449  22366625.1114   22366632.1434
  22076188.879    -9895418.72649  -7686992.75949  22076193.1934   22076199.9054
 96  5 11 17 54 59.9940000  0  7  2  9 27  7 26  4 15
  19463524.632    -8875938.98749  -6906377.59149  19463525.4994   19463532.2454
  22237606.428   -10673685.06049  -8295806.84949  22237610.6694   22237618.5614
  19930468.583    -3398112.33449  -2643814.00249  19930470.8364   19930477.0074
  18379606.369   -14653316.38449 -11398738.48649  18379607.0284   18379613.5904
  20782662.090   -12561838.01949  -9772453.76949  20782665.5054   20782671.6814
  22329070.550   -15532349.00049 -12031254.70849  22329067.0614   22329075.1394
  22065458.521    -9951825.39949  -7730946.02049  22065459.5974   22065466.3204
 96  5 11 17 55 29.9930000  0  7  2  9 27  7 26  4 15
  19450120.551    -8946382.69249  -6961268.79349  19450120.4504   19450127.4574
  22201100.933   -10865553.36049  -8445314.55649  22201099.7274   22201106.8594
  19928571.123    -3408082.21049  -2651582.77449  19928573.4224   19928580.2024
  18360593.364   -14753227.42049 -11476591.22849  18360594.4724   18360601.0114
  20767507.333   -12641486.27049  -9834517.35649  20767507.9384   20767515.3244
  22291511.523   -15729685.09049 -12185023.02349  22291514.5724   22291523.2424
  22054834.570   -10007659.08249  -7774452.81249  22054834.2544   22054842.4714
 96  5 11 17 55 59.9930000  0  7  2  9 27  7 26  4 15
  19436738.075    -9016700.32749  -7016061.75849  19436739.6874   19436746.6864
  22164592.880   -11057383.24049  -8594792.31049  22164596.6334   22164604.3234
  19926734.703    -3417736.36549  -2659105.52049  19926736.1554   19926742.9204
  18341663.197   -14852704.83949 -11554106.08949  18341664.6364   18341671.2034
  20752436.776   -12720685.20649  -9896230.83049  20752437.5904   20752444.5164
  22253950.846   -15927084.42349 -12338840.58749  22253951.0004   22253959.1764
  22044303.681   -10062999.10549  -7817574.91249  22044302.9564   22044312.4294
 96  5 11 17 56 29.9930000  0  7  2  9 27  7 26  4 15
  19423385.532    -9086879.51449  -7070746.83949  19423385.2224   19423391.9944
  22128094.052   -11249190.91649  -8744252.80249  22128095.6864   22128102.9704
  19924957.100    -3427068.20449  -2666377.11949  19924960.5694   19924967.4204
  18322814.996   -14951753.93749 -11631287.19649  18322816.0774   18322823.0024
  20737451.354   -12799427.78249  -9957588.69049  20737452.8704   20737459.9594
  22216377.043   -16124539.07749 -12492701.26849  22216377.4714   22216385.8654
  22033866.205   -10117846.15549  -7860312.88749  22033867.1984   22033872.4514
 96  5 11 17 56 59.9930000  0  7  2  9 27  7 26  4 15
  19410059.470    -9156906.50149  -7125313.33649  19410059.4774   19410066.0704
  22091596.077   -11440981.91649  -8893700.25749  22091598.5254   22091606.8094
  19923248.558    -3436062.08649  -2673385.38649  19923248.7784   19923256.0554
  18304050.347   -15050362.51149 -11708125.03849  18304051.3644   18304058.0374
  20722557.534   -12877695.41849 -10018576.46649  20722559.0414   20722566.5594
  22178794.644   -16322034.70849 -12646593.88649  22178794.4044   22178802.7104
  22023522.502   -10172191.56649  -7902659.98249  22023524.2824   22023531.3734
 96  5 11 17 57 29.9930000  0  7  2  9 27  7 26  4 15
  19396761.875    -9226782.10149  -7179761.86149  19396762.9554   19396769.3064
  22055105.689   -11632765.11249  -9043141.64849  22055103.8434   22055110.8344
  19921599.065    -3444729.45849  -2680139.22149  19921600.0764   19921606.5784
  18285370.808   -15148522.10749 -11784613.02949  18285372.6904   18285379.0364
  20707756.471   -12955478.11049 -10079186.37449  20707757.8174   20707764.6984
  22141198.357   -16519577.54649 -12800523.28749  22141203.3264   22141210.9084
  22013277.194   -10226039.36549  -7944619.32649  22013276.5014   22013285.2404
 96  5 11 17 57 59.9930000  0  7  2  9 27  7 26  4 15
  19383490.967    -9296521.26649  -7234104.07549  19383491.6984   19383498.3304
  22018608.129   -11824530.09249  -9192568.85349  22018611.9124   22018619.6074
  19920010.506    -3453080.20049  -2686646.32949  19920011.0784   19920017.8984
  18266773.503   -15246255.04149 -11860768.55549  18266774.4184   18266780.9194
  20693045.610   -13032781.48449 -10139422.78149  20693047.2884   20693054.9434
  22103601.766   -16717172.09449 -12954492.99649  22103602.0744   22103610.0484
  22003124.598   -10279394.15149  -7986194.50349  22003124.4614   22003131.9974
 96  5 11 17 58 29.9930000  0  7  2  9 27  7 26  4 15
  19370240.763    -9366145.97249  -7288357.10049  19370242.6284   19370249.0374
  21982125.342   -12016264.71249  -9341972.40049  21982126.5184   21982134.3284
  19918481.978    -3461112.26549  -2692905.12049  19918482.4904   19918488.8684
  18248251.934   -15343588.20949 -11936612.57349  18248252.5904   18248259.0734
  20678425.371   -13109618.44649 -10199295.75449  20678425.9714   20678433.0764
  22065986.128   -16914814.03649 -13108499.61749  22065991.5104   22065999.9494
  21993064.859   -10332258.82549  -8027387.75549  21993065.6104   21993073.0954
 96  5 11 17 58 59.9930000  0  7  2  9 27  7 26  4 15
  19357010.838    -9435678.46449  -7342538.26649  19357011.0444   19357017.3234
  21945644.919   -12207960.00849  -9491345.30449  21945647.1094   21945655.3424
  19917009.914    -3468845.27749  -2698930.87649  19917010.9584   19917018.0524
  18229799.689   -15440548.00749 -12012165.65249  18229801.5434   18229808.1844
  20663887.854   -13186005.85749 -10258818.42049  20663889.3794   20663896.8904
  22028368.681   -17112508.82149 -13262547.43149  22028371.1014   22028379.8764
  21983095.349   -10384645.12849  -8068208.27149  21983096.5044   21983103.7394
 96  5 11 17 59 29.9930000  0  7  2  9 27  7 26  4 15
  19343797.231    -9505111.29849  -7396641.78149  19343798.3354   19343804.7404
  21909180.513   -12399587.42949  -9640665.29249  21909181.3124   21909189.7324
  19915598.796    -3476267.22049  -2704714.24749  19915598.3964   19915605.6054
  18211419.864   -15537135.19049 -12087428.38349  18211421.7274   18211428.2614
  20649437.589   -13261941.03849 -10317988.70649  20649439.5594   20649446.9424
  21990739.609   -17310239.73949 -13416623.39549  21990744.8144   21990753.0954
  21973219.388   -10436543.37449  -8108648.47849  21973220.4374   21973228.4174
 96  5 11 17 59 59.9930000  0  7  2  9 27  7 26  4 15
  19330603.346    -9574438.38549  -7450662.88849  19330605.5434   19330612.3854
  21872726.765   -12591151.38049  -9789935.82949  21872729.8714   21872736.5074
  19914244.828    -3483365.21849  -2710245.18949  19914247.9064   19914254.4574
  18193110.588   -15633353.11649 -12162403.38349  18193112.0434   18193118.7434
  20635074.111   -13337422.67449 -10376805.58349  20635075.8024   20635083.3334
  21953114.704   -17507991.68449 -13570715.75949  21953114.0314   21953121.8134
  21963434.499   -10487949.24049  -8148705.02849  21963439.4024   21963445.2954
 96  5 11 18  0 29.9930000  0  7  2  9 27  7 26  4 15
  19317435.585    -9643648.15849  -7504592.58849  19317435.4704   19317442.3344
  21836289.106   -12782667.42749  -9939169.04849  21836284.6644   21836292.4454
  19912957.408    -3490147.45849  -2715530.09249  19912957.3964   19912964.2724
  18174875.004   -15729182.46449 -12237075.59349  18174876.1554   18174882.9144
  20620797.672   -13412451.56949 -10435269.67449  20620798.2344   20620805.7684
  21915470.994   -17705769.38049 -13724828.16149  21915478.0504   21915485.4744
  21953749.140   -10538861.23549  -8188376.73449  21953749.1614   21953758.0044
 96  5 11 18  0 59.9930000  0  7  2  9 27  7 26  4 15
  19304287.981    -9712737.58749  -7558428.51549  19304288.3144   19304295.2734
  21799848.362   -12974156.22849 -10088381.05649  21799846.9174   21799852.6884
  19911721.550    -3496642.20549  -2720590.97549  19911721.3064   19911728.3144
  18156712.724   -15824624.40149 -12311445.92749  18156714.1874   18156720.9064
  20606602.812   -13487044.77249 -10493394.26249  20606603.7044   20606611.0214
  21877832.409   -17903587.39149 -13878971.98549  21877834.2674   21877842.5624
  21944152.285   -10589296.24649  -8227676.77849  21944152.3114   21944161.9364
 96  5 11 18  1 29.9930000  0  7  2  9 27  7 26  4 15
  19291165.082    -9781704.17049  -7612168.71249  19291164.3644   19291171.1894
  21763405.554   -13165632.79249 -10237583.49049  21763407.8384   21763415.8454
  19910536.495    -3502855.67149  -2725432.67649  19910538.7704   19910546.3494
  18138626.548   -15919671.97749 -12385508.96349  18138627.2244   18138633.9034
  20592489.732   -13561209.24149 -10551184.77249  20592491.0354   20592498.2724
  21840180.557   -18101456.62049 -14033155.71049  21840180.5044   21840189.4664
  21934643.349   -10639267.38449  -8266615.36349  21934643.0464   21934652.9634
 96  5 11 18  1 59.9930000  0  7  2  9 27  7 26  4 15
  19278063.588    -9850545.86849  -7665811.60549  19278064.1024   19278071.0594
  21726972.160   -13357086.73649 -10386768.30049  21726975.8054   21726983.2314
  19909407.117    -3508796.71849  -2730062.10149  19909408.7014   19909415.6974
  18120615.063   -16014321.77749 -12459262.04949  18120616.1334   18120622.7994
  20578458.319   -13634944.78149 -10608641.05749  20578459.5574   20578467.0584
  21802515.104   -18299366.12249 -14187370.82149  21802519.8394   21802528.6584
  21925222.840   -10688769.70149  -8305188.60949  21925222.6244   21925232.7974
 96  5 11 18  2 29.9930000  0  7  2  9 27  7 26  4 15
  19264994.469    -9919218.92349  -7719323.07649  19264996.0934   19265002.9294
  21690561.666   -13548446.17549 -10535879.50549  21690561.5904   21690568.8784
  19908338.487    -3514427.48249  -2734449.75649  19908337.2864   19908344.3744
  18102688.050   -16108528.33949 -12532669.74849  18102689.2244   18102695.9084
  20564513.124   -13708225.64449 -10665743.03449  20564514.7144   20564522.1014
  21764859.299   -18497271.12249 -14341582.42149  21764859.9494   21764868.0694
  21915898.425   -10737763.34249  -8343365.50049  21915899.9334   21915909.8764
 96  5 11 18  2 59.9930000  0  7  2  9 27  7 26  4 15
  19251956.663    -9987731.48949  -7772709.49649  19251958.8484   19251965.6074
  21654165.571   -13739697.70849 -10684906.60249  21654167.5514   21654174.4864
  19907324.367    -3519740.18849  -2738589.56449  19907325.8814   19907333.2024
  18084843.545   -16202299.46249 -12605738.14849  18084845.1334   18084851.8084
  20550655.014   -13781049.97449 -10722489.28449  20550656.6364   20550664.2834
  21727200.700   -18695151.03149 -14495774.48249  21727204.4124   21727212.6814
  21906673.170   -10786253.10949  -8381149.77249  21906673.7164   21906681.6734
 96  5 11 18  3 29.9930000  0  7  2  9 27  7 26  4 15
  19238944.267   -10056114.75149  -7825995.15749  19238945.8714   19238952.9594
  21617787.771   -13930858.53949 -10833863.01949  21617790.5094   21617798.3764
  19906372.383    -3524751.83749  -2742494.78849  19906372.5114   19906379.9194
  18067077.425   -16295661.15849 -12678487.51149  18067079.0394   18067085.6674
  20536880.063   -13853442.16149 -10778898.78849  20536881.3594   20536888.4974
  21689548.935   -18893021.21449 -14649958.95249  21689551.1844   21689558.4934
  21897536.647   -10834262.49949  -8418559.71449  21897536.7874   21897546.3594
 96  5 11 18  3 59.9920000  0  7  2  9 27  7 26  4 15
  19225953.732   -10124392.31249  -7879198.45949  19225953.3174   19225960.0604
  21581426.849   -14121936.05049 -10982754.54049  21581429.3934   21581437.6864
  19905471.809    -3529486.57849  -2746184.22749  19905471.4244   19905478.2264
  18049387.957   -16388622.17449 -12750924.65949  18049389.1564   18049395.6754
  20523182.756   -13925417.63849 -10834983.59549  20523184.7924   20523191.9274
  21651897.615   -19090883.17349 -14804137.02249  21651899.4254   21651906.9444
  21888489.005   -10881805.06949  -8455605.90849  21888489.3344   21888498.8744
 96  5 11 18  4 29.9920000  0  7  2  9 27  7 26  4 15
  19212981.774   -10192550.41749  -7932308.67849  19212982.8594   19212989.8424
  21545081.354   -14312935.71749 -11131585.37949  21545083.7874   21545090.9444
  19904623.459    -3533923.12449  -2749641.30849  19904627.7054   19904634.6524
  18031779.209   -16481154.87149 -12823028.04849  18031780.6944   18031787.4584
  20509567.902   -13996961.29249 -10890731.90549  20509570.5004   20509577.4694
  21614245.751   -19288734.13749 -14958306.50349  21614249.6154   21614257.4644
  21879533.485   -10928867.58749  -8492278.01449  21879532.6874   21879541.4034
 96  5 11 18  4 59.9920000  0  7  2  9 27  7 26  4 15
  19200032.334   -10260604.97649  -7985338.21349  19200033.0124   19200039.4804
  21508746.962   -14503882.73449 -11280375.19249  21508748.1074   21508755.4384
  19903836.351    -3538079.41749  -2752880.01949  19903836.6814   19903843.8764
  18014248.927   -16573277.50649 -12894811.91449  18014250.4964   18014256.9824
  20496037.297   -14068074.63849 -10946144.92049  20496037.8084   20496045.6714
  21576599.542   -19486581.84049 -15112473.45949  21576599.3184   21576607.8864
  21870664.342   -10975460.79449  -8528584.47549  21870665.9694   21870675.4254
 96  5 11 18  5 29.9920000  0  7  2  9 27  7 26  4 15
  19187099.333   -10328569.01949  -8038297.21349  19187099.4264   19187106.2594
  21472413.745   -14694797.93349 -11429140.23249  21472417.1574   21472424.9854
  19903092.004    -3541975.81349  -2755916.20449  19903095.2504   19903102.1364
  17996794.218   -16665005.10949 -12966287.96349  17996795.3404   17996801.8304
  20482582.929   -14138773.95849 -11001235.30049  20482584.0204   20482591.5104
  21538939.933   -19684451.79949 -15266657.75249  21538946.9054   21538954.6904
  21861885.258   -11021598.99149  -8564536.29849  21861885.8264   21861895.7524
 96  5 11 18  5 59.9920000  0  7  2  9 27  7 26  4 15
  19174184.719   -10396427.13649  -8091173.67749  19174186.4154   19174193.4084
  21436097.153   -14885672.62149 -11577873.69449  21436095.0384   21436103.2354
  19902404.051    -3545603.12449  -2758742.72149  19902404.6114   19902412.2014
  17979414.509   -16756335.19149 -13037454.25449  17979415.8684   17979422.2114
  20469210.847   -14209046.61249 -11055993.22349  20469211.6694   20469219.0514
  21501287.907   -19882331.88249 -15420849.94049  21501291.1004   21501298.9504
  21853196.867   -11067272.85449  -8600126.38549  21853197.9344   21853201.9844
 96  5 11 18  6 29.9920000  0  7  2  9 27  7 26  4 15
  19161294.711   -10464157.82249  -8143950.84249  19161297.8504   19161304.7194
  21399781.343   -15076497.53349 -11726568.35849  21399783.0014   21399789.6304
  19901769.498    -3548944.96849  -2761346.79449  19901768.7344   19901775.8104
  17962108.593   -16847280.77549 -13108320.93449  17962109.5184   17962115.8804
  20455918.431   -14278884.58649 -11110412.43149  20455921.4104   20455929.1594
  21463635.279   -20080214.99249 -15575044.46849  21463635.3114   21463642.7474
  21844595.415   -11112473.19449  -8635347.40949  21844595.7334   21844602.4074
 96  5 11 18  6 59.9920000  0  7  2  9 27  7 26  4 15
  19148435.105   -10531748.94549  -8196619.25249  19148435.4924   19148442.3414
  21363484.855   -15267259.85049 -11875214.25249  21363481.3434   21363489.1294
  19901186.366    -3551993.75549  -2763722.50549  19901188.6454   19901196.2414
  17944872.272   -16937852.77349 -13178896.50849  17944874.1694   17944880.6294
  20442716.573   -14348273.28349 -11164481.56549  20442717.9594   20442724.5664
  21425985.062   -20278094.53149 -15729236.22549  21425979.4554   21425987.4254
  21836084.883   -11157197.40349  -8670197.46249  21836084.5754   21836092.8934
 96  5 11 18  7 29.9920000  0  7  2  9 27  7 26  4 15
  19135598.541   -10599205.19849  -8249182.56549  19135599.0424   19135606.0094
  21327194.142   -15457955.95549 -12023808.55649  21327193.2174   21327201.4544
  19900662.282    -3554759.12849  -2765877.38249  19900662.9554   19900669.5344
  17927709.291   -17028047.54949 -13249178.14649  17927710.6594   17927717.1994
  20429596.133   -14417219.37649 -11218205.80749  20429597.6494   20429605.0674
  21388318.382   -20475983.93449 -15883435.68149  21388322.8854   21388331.0834
  21827660.962   -11201459.15549  -8704687.14349  21827663.4834   21827669.1634
 96  5 11 18  7 59.9920000  0  7  2  9 27  7 26  4 15
  19122787.714   -10666523.76449  -8301638.59549  19122789.1304   19122795.5954
  21290919.891   -15648568.20249 -12172337.51049  21290921.2734   21290928.4344
  19900188.422    -3557249.05849  -2767817.62149  19900189.1124   19900196.1734
  17910616.823   -17117865.17049 -13319165.89749  17910618.7994   17910625.2544
  20416558.602   -14485733.78749 -11271593.66749  20416559.5464   20416567.2464
  21350666.277   -20673868.84249 -16037631.64349  21350666.8564   21350674.0404
  21819325.904   -11245259.30049  -8738817.14849  21819328.3664   21819335.3184
 96  5 11 18  8 29.9920000  0  7  2  9 27  7 26  4 15
  19109999.429   -10733725.67649  -8354003.73049  19110000.8204   19110007.2544
  21254665.970   -15839091.23549 -12320796.97149  21254665.5404   21254673.6124
  19899764.411    -3559475.74149  -2769552.73149  19899765.0644   19899772.1934
  17893597.150   -17207309.38649 -13388862.68249  17893598.1634   17893604.5414
  20403601.069   -14553826.53449 -11324652.97449  20403602.7014   20403608.7444
  21313006.566   -20871753.21449 -16191827.18149  21313010.4934   21313018.1174
  21811078.884   -11288607.32249  -8772594.81449  21811079.4394   21811085.6724
 96  5 11 18  8 59.9920000  0  7  2  9 27  7 26  4 15
  19097233.276   -10800813.20849  -8406279.73649  19097234.7514   19097240.9164
  21218428.347   -16029511.19349 -12469176.09549  21218430.7554   21218437.8764
  19899390.046    -3561437.84249  -2771081.67849  19899391.9144   19899399.2294
  17876652.771   -17296351.50249 -13458246.14049  17876653.9734   17876660.5084
  20390720.792   -14621500.74149 -11377386.13049  20390724.5664   20390731.2134
  21275354.299   -21069621.04549 -16346009.83249  21275357.3464   21275363.9784
  21802917.090   -11331495.56949  -8806014.24749  21802918.6194   21802926.4734
 96  5 11 18  9 29.9920000  0  7  2  9 27  7 26  4 15
  19084486.610   -10867799.42949  -8458476.79349  19084487.2824   19084494.0844
  21182209.195   -16219833.86249 -12617479.41149  21182212.6004   21182219.4684
  19899066.251    -3563145.53649  -2772412.38849  19899066.4894   19899073.8534
  17859785.761   -17384986.88749 -13527312.66649  17859787.2934   17859793.7844
  20377919.435   -14688777.65649 -11429809.71249  20377922.4674   20377928.5854
  21237704.619   -21267464.06749 -16500173.15649  21237708.1074   21237715.6654
  21794841.484   -11373930.56949  -8839080.48949  21794843.7834   21794848.6004
 96  5 11 18  9 59.9920000  0  7  2  9 27  7 26  4 15
  19071759.550   -10934682.86349  -8510593.75549  19071759.8564   19071766.7354
  21146012.484   -16410068.41949 -12765714.07249  21146012.6444   21146019.1714
  19898787.080    -3564603.59749  -2773548.58649  19898789.3034   19898796.2944
  17842993.893   -17473226.81749 -13596071.04749  17842995.6544   17843002.1654
  20365192.894   -14755659.23649 -11481925.23949  20365195.5044   20365201.9084
  21200070.176   -21465268.47349 -16654306.38949  21200067.6064   21200075.2644
  21786852.863   -11415911.35749  -8871792.81549  21786855.1104   21786861.2894
 96  5 11 18 10 29.9920000  0  7  2  9 27  7 26  4 15
  19059050.602   -11001456.90749  -8562625.48849  19059053.4414   19059060.1704
  21109823.025   -16600231.58649 -12913893.10649  21109825.6384   21109832.8944
  19898560.697    -3565800.35149  -2774481.17049  19898561.4754   19898568.9694
  17826278.774   -17561069.64449 -13664519.99749  17826279.8474   17826286.4394
  20352544.372   -14822131.03349 -11533721.45649  20352545.6234   20352552.7074
  21162433.737   -21663034.93149 -16808410.06049  21162433.8634   21162442.2084
  21778949.880   -11457437.76449  -8904151.05049  21778951.9844   21778960.1864
 96  5 11 18 10 59.9920000  0  7  2  9 27  7 26  4 15
  19046369.142   -11068115.02249  -8614566.88049  19046368.8544   19046375.7014
  21073648.356   -16790334.57349 -13062025.25049  21073649.3434   21073656.7824
  19898385.132    -3566738.05849  -2775211.89649  19898383.2574   19898390.2254
  17809638.056   -17648514.80849 -13732659.07649  17809639.7164   17809646.1334
  20339971.891   -14888200.61749 -11585204.26149  20339972.6514   20339980.8384
  21124805.974   -21860768.33349 -16962487.95949  21124806.4924   21124814.0884
  21771132.026   -11498517.17549  -8936161.00749  21771134.4504   21771142.9734
 96  5 11 18 11 29.9920000  0  7  2  9 27  7 26  4 15
  19033706.573   -11134649.39849  -8666411.85149  19033707.4854   19033714.3234
  21037485.954   -16980371.05749 -13210105.58949  21037486.9424   21037494.0984
  19898249.373    -3567418.04449  -2775741.78949  19898254.0504   19898261.0154
  17793069.519   -17735581.21449 -13800503.01849  17793071.1814   17793077.5554
  20327480.282   -14953850.91749 -11636360.35649  20327480.9164   20327487.3414
  21087186.731   -22058466.89449 -17116538.73049  21087186.0974   21087193.5364
  21763401.754   -11539152.53849  -8967824.94449  21763401.5654   21763410.5164
 96  5 11 18 11 59.9910000  0  7  2  9 27  7 26  4 15
  19021071.953   -11201040.91049  -8718145.49949  19021073.7354   19021080.7854
  21001342.343   -17170309.41849 -13358109.44949  21001342.7884   21001350.1034
  19898174.645    -3567831.96149  -2776064.38349  19898175.4444   19898181.8664
  17776571.765   -17822278.56249 -13868059.38349  17776573.3964   17776579.7124
  20315068.947   -15019068.67349 -11687179.39449  20315070.0154   20315076.8094
  21049570.300   -22256116.24749 -17270551.13949  21049574.5344   21049581.6924
  21755754.414   -11579333.66449  -8999134.92749  21755755.5684   21755764.2754
 96  5 11 18 12 29.9910000  0  7  2  9 27  7 26  4 15
  19008468.257   -11267280.09249  -8769760.44949  19008468.8514   19008475.9054
  20965220.386   -17360127.62549 -13506019.68649  20965222.0284   20965228.9724
  19898147.841    -3567955.97049  -2776161.06149  19898152.3074   19898158.5554
  17760146.764   -17908592.56649 -13935317.03649  17760148.3664   17760154.7794
  20302739.406   -15083853.56749 -11737661.13949  20302741.5194   20302748.7364
  21011969.768   -22453720.93449 -17424528.74749  21011971.4894   21011979.1004
  21748194.572   -11619053.86349  -9030085.77349  21748196.0194   21748206.4054
 96  5 11 18 12 59.9910000  0  7  2  9 27  7 26  4 15
  18995889.516   -11333376.01849  -8821263.77349  18995891.0714   18995897.9494
  20929124.180   -17549820.96349 -13653832.62049  20929125.1294   20929131.7134
  19898178.660    -3567812.99649  -2776049.71249  19898179.2224   19898186.3794
  17743792.119   -17994540.01949 -14002289.06849  17743793.2414   17743799.5814
  20290489.965   -15148226.11649 -11787821.57949  20290491.9614   20290498.5104
  20974371.952   -22651290.74549 -17578479.17749  20974375.2354   20974382.3704
  21740721.324   -11658330.09449  -9060690.64949  21740722.5164   21740731.4394
 96  5 11 18 13 29.9910000  0  7  2  9 27  7 26  4 15
  18983339.002   -11399325.41949  -8872652.92049  18983341.2334   18983348.4084
  20893049.835   -17739386.28049 -13801545.80049  20893050.6674   20893058.2124
  19898256.368    -3567403.79349  -2775730.91249  19898256.6704   19898264.0344
  17727504.465   -18080128.77849 -14068981.59849  17727506.0674   17727512.5974
  20278319.940   -15212190.16049 -11837663.70249  20278320.0414   20278327.5024
  20936781.819   -22848818.30949 -17732396.67149  20936786.3864   20936794.4454
  21733332.357   -11697162.89149  -9090950.00349  21733332.3434   21733342.7994
 96  5 11 18 13 59.9910000  0  7  2  9 27  7 26  4 15
  18970815.451   -11465141.64749  -8923938.29849  18970816.7604   18970824.1514
  20856997.627   -17928844.00049 -13949175.13249  20856998.7184   20857005.4004
  19898382.707    -3566738.19549  -2775212.31749  19898383.3544   19898390.6164
  17711284.888   -18165362.60849 -14135397.55749  17711286.7494   17711293.2344
  20266217.982   -15275776.54949 -11887211.54349  20266219.7484   20266227.4314
  20899201.583   -23046310.30949 -17886286.44849  20899205.4554   20899213.0244
  21726023.001   -11735563.79149  -9120872.81949  21726024.2354   21726034.2404
 96  5 11 18 14 29.9910000  0  7  2  9 27  7 26  4 15
  18958320.967   -11530801.34849  -8975101.71649  18958322.3504   18958329.5244
  20820965.548   -18118183.94449 -14096712.70249  20820968.0614   20820974.6164
  19898561.745    -3565793.95349  -2774476.60449  19898563.7904   19898570.5074
  17695141.552   -18250192.91149 -14201499.09149  17695143.9344   17695150.5074
  20254195.352   -15338959.37649 -11936444.93849  20254196.5744   20254204.0544
  20861637.137   -23243736.00249 -18040124.56549  20861636.1514   20861643.9594
  21718802.304   -11773506.33949  -9150438.49149  21718805.4104   21718814.5534
 96  5 11 18 14 59.9910000  0  7  2  9 27  7 26  4 15
  18945815.990   -11596513.53949  -9026306.02649  18945817.8464   18945824.5414
  20784919.744   -18307624.53249 -14244328.67149  20784919.4854   20784926.0774
  19898754.209    -3564781.09849  -2773687.41549  19898755.8654   19898763.3094
  17679035.953   -18334834.35049 -14267453.45349  17679037.3284   17679043.6494
  20242209.107   -15401935.39649 -11985517.17049  20242212.3974   20242219.8594
  20824039.496   -23441278.88249 -18194054.00049  20824044.3824   20824052.7954
  21711633.202   -11811189.49749  -9179802.00649  21711632.4574   21711643.4654
 96  5 11 18 15 29.9910000  0  7  2  9 27  7 26  4 15
  18933330.224   -11662125.73449  -9077432.41949  18933332.0994   18933338.7744
  20748879.381   -18497001.60149 -14391895.15649  20748881.2094   20748889.1944
  19898990.398    -3563542.75149  -2772722.52049  19898991.1194   19898998.9184
  17662996.591   -18419120.23449 -14333130.75549  17662998.1194   17663004.6504
  20230295.657   -15464543.63849 -12034302.82149  20230298.9414   20230305.9874
  20786465.083   -23638770.18949 -18347943.24449  20786462.8874   20786471.0754
  21704543.399   -11848450.45049  -9208836.58949  21704543.1194   21704552.2944
 96  5 11 18 15 59.9910000  0  7  2  9 27  7 26  4 15
  18920875.765   -11727578.86049  -9128434.87249  18920877.0414   18920883.7354
  20712867.524   -18686245.80549 -14539358.12649  20712869.0644   20712876.3394
  19899278.628    -3562025.11449  -2771540.00349  19899280.1814   19899287.8964
  17647036.630   -18502993.25949 -14398486.35549  17647037.5824   17647044.1634
  20218463.556   -15526721.79649 -12082753.36049  20218466.1684   20218473.8794
  20748901.311   -23836143.76249 -18501740.74749  20748904.8674   20748912.0974
  21697541.666   -11885232.06149  -9237497.57349  21697544.1424   21697554.6314
 96  5 11 18 16 29.9910000  0  7  2  9 27  7 26  4 15
  18908448.201   -11792886.57949  -9179324.01049  18908449.2454   18908456.3004
  20676882.633   -18875358.14849 -14686718.31549  20676881.1764   20676888.8354
  19899617.844    -3560250.05649  -2770156.88249  19899618.5304   19899625.5254
  17631151.154   -18586474.76949 -14463536.87049  17631151.6574   17631158.0004
  20206714.918   -15588474.58849 -12130872.42149  20206716.0144   20206722.7654
  20711365.128   -24033414.98649 -18655458.49249  20711364.4934   20711373.3794
  21690630.905   -11921559.76849  -9265804.93249  21690631.3544   21690640.2774
 96  5 11 18 16 59.9910000  0  7  2  9 27  7 26  4 15
  18896044.104   -11858075.18449  -9230120.33849  18896044.3314   18896051.1864
  20640917.534   -19064349.26649 -14833984.08149  20640918.3574   20640925.2654
  19899997.593    -3558248.26449  -2768597.10049  19899999.4754   19900006.8684
  17615331.166   -18669606.81949 -14528315.08149  17615331.9314   17615338.3224
  20195040.975   -15649821.15649 -12178674.95149  20195041.3654   20195049.2284
  20673837.039   -24230612.65249 -18809118.92749  20673839.0704   20673846.3514
  21683800.453   -11957463.31149  -9293781.69549  21683800.4964   21683807.4074
 96  5 11 18 17 29.9910000  0  7  2  9 27  7 26  4 15
  18883663.549   -11923131.60049  -9280813.66249  18883664.5154   18883671.2464
  20604983.404   -19253187.10049 -14981130.37649  20604984.1914   20604990.6024
  19900424.334    -3556004.13749  -2766848.47149  19900425.9764   19900433.8754
  17599581.416   -18752367.42349 -14592803.85649  17599583.3294   17599589.6994
  20183445.102   -15710752.45649 -12226153.89949  20183446.5164   20183454.2964
  20636329.853   -24427725.41349 -18962713.19249  20636330.0574   20636336.6964
  21677050.340   -11992931.11049  -9321419.01149  21677051.1204   21677056.5344
 96  5 11 18 17 59.9910000  0  7  2  9 27  7 26  4 15
  18871312.885   -11988036.33749  -9331388.78949  18871313.6314   18871320.6294
  20569083.966   -19441842.90249 -15128134.85949  20569083.9374   20569090.6224
  19900906.085    -3553481.97749  -2764883.20949  19900906.6484   19900913.4364
  17583907.743   -18834736.96949 -14656987.91249  17583909.0664   17583915.5164
  20171932.983   -15771232.68849 -12273281.34149  20171938.0854   20171944.5634
  20598842.032   -24624725.99749 -19116220.05649  20598842.0084   20598848.7854
  21670389.125   -12027937.76449  -9348696.87749  21670389.4554   21670397.3014
 96  5 11 18 18 29.9910000  0  7  2  9 27  7 26  4 15
  18858985.109   -12052818.15249  -9381868.13949  18858986.1534   18858993.1804
  20533208.162   -19630357.79949 -15275029.50649  20533210.9674   20533217.4344
  19901432.900    -3550721.77149  -2762732.43949  19901432.4884   19901439.0334
  17568302.789   -18916738.69149 -14720885.35149  17568304.4534   17568311.0464
  20160508.392   -15831285.57249 -12320075.82349  20160510.1204   20160517.7494
  20561362.803   -24821653.84149 -19269670.24049  20561368.1054   20561374.4624
  21663810.306   -12062509.55249  -9375635.99149  21663810.3514   21663815.3144
 96  5 11 18 18 59.9910000  0  7  2  9 27  7 26  4 15
  18846679.794   -12117486.11249  -9432258.76249  18846679.9664   18846686.9374
  20497361.494   -19818748.11549 -15421827.11549  20497361.4674   20497368.1144
  19902000.608    -3547728.93049  -2760400.39949  19902001.7724   19902008.5404
  17552767.996   -18998374.74149 -14784497.85549  17552769.6684   17552775.9714
  20149155.104   -15890939.53949 -12366559.43249  20149158.0994   20149165.8184
  20523903.955   -25018516.32149 -19423069.48449  20523906.2224   20523913.7834
  21657311.847   -12096650.46949  -9402239.25249  21657313.3484   21657321.8774
 96  5 11 18 19 29.9910000  0  7  2  9 27  7 26  4 15
  18834396.867   -12182027.51049  -9482550.76849  18834398.2534   18834405.2064
  20461534.649   -20007007.43249 -15568522.60449  20461536.9054   20461543.0004
  19902615.221    -3544496.17849  -2757881.41949  19902616.7154   19902623.5294
  17537306.851   -19079628.10549 -14847812.15749  17537307.8884   17537314.1384
  20137877.941   -15950208.55049 -12412743.09049  20137879.9774   20137887.7494
  20486455.559   -25215309.20849 -19576414.50449  20486458.0944   20486465.2694
  21650896.072   -12130362.68649  -9428508.54849  21650896.4014   21650903.4344
 96  5 11 18 19 59.9900000  0  7  2  9 27  7 26  4 15
  18822146.730   -12246411.64549  -9532720.22649  18822146.2794   18822153.4264
  20425735.454   -20195135.13749 -15715115.57049  20425736.9854   20425743.6454
  19903273.874    -3541039.34549  -2755187.83949  19903274.4804   19903281.5484
  17521918.435   -19160496.36749 -14910826.37749  17521919.2864   17521925.6034
  20126675.355   -16009090.98449 -12458625.52049  20126675.6414   20126682.1154
  20449019.985   -25412021.35549 -19729696.61549  20449024.6644   20449031.5434
  21644563.056   -12163647.18449  -9454444.45949  21644564.4234   21644573.5874
 96  5 11 18 20 29.9900000  0  7  2  9 27  7 26  4 15
  18809930.459   -12310610.30249  -9582745.16449  18809929.8134   18809936.7414
  20389962.378   -20383128.79149 -15861604.09949  20389963.4714   20389970.0884
  19903976.769    -3537344.39849  -2752308.71649  19903977.3564   19903984.9164
  17506603.853   -19240968.35749 -14973531.82349  17506605.9164   17506612.2164
  20115540.719   -16067604.85849 -12504220.75549  20115540.4544   20115547.1924
  20411607.773   -25608637.02649 -19882903.55049  20411609.5434   20411616.3374
  21638308.237   -12196495.69049  -9480040.75049  21638312.1554   21638320.9434
 96  5 11 18 20 59.9900000  0  7  2  9 27  7 26  4 15
  18797744.801   -12374643.57749  -9632641.22749  18797744.8674   18797752.0144
  20354218.050   -20570969.16149 -16007973.16449  20354219.1734   20354224.6274
  19904722.003    -3533401.13849  -2749236.09649  19904728.3234   19904735.5724
  17491364.258   -19321057.03649 -15035938.57749  17491365.4754   17491371.7594
  20104470.655   -16125774.66649 -12549547.89849  20104471.5314   20104478.9114
  20374213.884   -25805147.93449 -20036028.85749  20374214.7814   20374222.1794
  21632139.827   -12228921.06749  -9505307.28149  21632141.4924   21632151.1954
 96  5 11 18 21 29.9900000  0  7  2  9 27  7 26  4 15
  18785586.577   -12438520.56049  -9682415.51249  18785589.0874   18785596.2674
  20318503.037   -20758647.94749 -16154216.32049  20318504.3594   20318510.3484
  19905524.796    -3529205.39049  -2745966.74149  19905526.3394   19905534.0144
  17476193.984   -19400772.04549 -15098054.16449  17476196.3954   17476202.6094
  20093468.456   -16183575.72949 -12594587.68949  20093471.8044   20093479.1604
  20336839.709   -26001546.36349 -20189066.50849  20336842.2754   20336848.5214
  21626049.862   -12260923.32249  -9530244.11849  21626049.7334   21626061.1394
 96  5 11 18 21 59.9900000  0  7  2  9 27  7 26  4 15
  18773460.048   -12502255.67349  -9732079.24849  18773460.7304   18773467.5694
  20282818.954   -20946170.52249 -16300337.76049  20282819.6294   20282826.1754
  19906368.512    -3524764.05649  -2742506.01349  19906372.0644   19906378.6094
  17461092.363   -19480135.09249 -15159895.48949  17461093.7054   17461100.1094
  20082543.057   -16241000.57149 -12639334.33249  20082544.6014   20082551.8704
  20299489.303   -26197830.26549 -20342014.92949  20299490.6364   20299497.3004
  21620040.869   -12292500.62849  -9554849.90649  21620043.6854   21620052.6384
 96  5 11 18 22 29.9900000  0  7  2  9 27  7 26  4 15
  18761353.255   -12565876.83149  -9781654.18549  18761354.1024   18761360.6744
  20247165.417   -21133530.83549 -16446332.76649  20247166.7764   20247172.8254
  19907262.921    -3520068.39349  -2738847.11349  19907265.1404   19907272.6104
  17446057.398   -19559147.71349 -15221463.76049  17446058.2444   17446064.5594
  20071685.624   -16298045.51449 -12683784.94849  20071689.3104   20071696.2314
  20262157.652   -26394012.46549 -20494884.09749  20262158.2714   20262164.7914
  21614115.219   -12323656.08149  -9579126.95249  21614114.4534   21614126.0444
 96  5 11 18 22 59.9900000  0  6  2  9 27  7 26  4
  18749266.246   -12629396.40749  -9831149.96949  18749266.5524   18749273.6024
  20211537.119   -21320740.01649 -16592209.99549  20211541.2364   20211548.1224
  19908199.262    -3515148.60449  -2735013.55549  19908201.7814   19908208.8304
  17431084.917   -19637826.96749 -15282772.26049  17431086.0484   17431092.4744
  20060903.859   -16354699.13549 -12727930.64549  20060908.4894   20060914.7224
  20224843.845   -26590108.60349 -20647686.21449  20224840.9674   20224848.8494
 96  5 11 18 23 29.9900000  0  6  2  9 27  7 26  4
  18737204.551   -12692778.71049  -9880538.78649  18737205.9394   18737212.6274
  20175941.677   -21507804.61149 -16737974.57349  20175944.4004   20175950.8494
  19909175.889    -3510019.54549  -2731016.95149  19909177.3634   19909184.8774
  17416178.178   -19716162.65849 -15343813.05249  17416179.3534   17416185.6964
  20050203.652   -16410943.12249 -12771757.14249  20050205.5964   20050212.8204
  20187544.956   -26786096.79649 -20800404.22749  20187546.5724   20187553.4704
 96  5 11 18 23 59.9900000  0  6  2  9 27  7 26  4
  18725175.016   -12755999.99549  -9929802.13349  18725175.3314   18725181.7654
  20140373.672   -21694712.88949 -16883617.32449  20140375.9944   20140383.6384
  19910192.926    -3504685.37049  -2726860.51049  19910192.7874   19910199.9714
  17401339.188   -19794138.15049 -15404573.17249  17401341.0354   17401347.3384
  20039579.072   -16466781.75149 -12815267.77949  20039579.4064   20039586.8314
  20150271.943   -26981954.23249 -20953020.35049  20150275.8694   20150282.9704
 96  5 11 18 24 29.9900000  0  6  2  9 27  7 26  4
  18713172.030   -12819063.18349  -9978942.28549  18713174.3964   18713181.5894
  20104832.285   -21881481.78349 -17029151.47949  20104835.3844   20104841.9764
  19911243.639    -3499160.56749  -2722555.51349  19911243.8404   19911252.0004
  17386568.480   -19871759.69649 -15465057.48249  17386570.1844   17386576.6114
  20029023.293   -16522242.95749 -12858484.31249  20029025.7714   20029033.5954
  20113028.758   -27177687.96049 -21105540.07649  20113028.4614   20113036.0214
 96  5 11 18 24 59.9900000  0  6  2  9 27  7 26  4
  18701204.346   -12881966.58149 -10027957.93249  18701204.4194   18701211.2514
  20069318.725   -22068120.42449 -17174584.15349  20069319.6074   20069326.3324
  19912331.842    -3493450.83549  -2718106.43349  19912330.6054   19912338.1864
  17371863.585   -19949034.10249 -15525271.29849  17371865.4244   17371871.8414
  20018533.699   -16577351.43149 -12901425.99149  20018538.7764   20018546.5814
  20075809.678   -27373282.43549 -21257951.28849  20075808.2724   20075815.8444
 96  5 11 18 25 29.9900000  0  6  2  9 27  7 26  4
  18689267.228   -12944702.07249 -10076842.74249  18689266.1414   18689273.5164
  20033830.725   -22254602.09649 -17319894.49249  20033833.2754   20033839.9494
  19913458.887    -3487511.09749  -2713478.12449  19913460.9544   19913468.1784
  17357230.156   -20025936.19449 -15585194.99749  17357231.3274   17357237.8834
  20008118.949   -16632095.42949 -12944083.67349  20008122.0864   20008128.3824
  20038615.410   -27568716.28249 -21410237.35049  20038618.1374   20038625.4124
 96  5 11 18 25 59.9900000  0  6  2  9 27  7 26  4
  18677356.897   -13007277.36649 -10125602.72449  18677358.4974   18677365.6714
  19998378.228   -22440913.18149 -17465071.91549  19998379.6864   19998386.0074
  19914636.535    -3481316.43449  -2708651.16949  19914639.7984   19914647.1104
  17342668.260   -20102460.75949 -15644824.52249  17342669.1184   17342675.6454
  19997773.647   -16686467.84249 -12986451.81749  19997774.4604   19997782.2094
  20001459.385   -27763993.36549 -21562401.25749  20001458.5344   20001465.6564
 96  5 11 18 26 29.9900000  0  6  2  9 27  7 26  4
  18665478.505   -13069700.47249 -10174244.11249  18665479.9594   18665487.2124
  19962958.034   -22627053.02449 -17610115.90549  19962958.4794   19962964.9094
  19915866.572    -3474860.19449  -2703620.38249  19915868.4404   19915875.9694
  17328176.711   -20178611.59749 -15704162.83049  17328178.1944   17328184.6674
  19987494.682   -16740478.22049 -13028537.83649  19987497.1624   19987504.4584
  19964321.958   -27959126.23049 -21714452.78849  19964326.3204   19964333.7934
 96  5 11 18 26 59.9900000  0  6  2  9 27  7 26  4
  18653623.688   -13132000.53949 -10222789.63549  18653624.6934   18653631.5794
  19927569.059   -22813014.78249 -17755021.12249  19927570.3944   19927577.2414
  19917143.274    -3468155.39149  -2698395.93149  19917143.5834   19917151.8224
  17313754.670   -20254401.11749 -15763219.59649  17313756.0174   17313762.3594
  19977286.939   -16794125.70649 -13070341.09349  19977288.2524   19977296.0914
  19927223.954   -28154117.23149 -21866393.78749  19927220.2844   19927227.6754
 96  5 11 18 27 29.9900000  0  6  2  9 27  7 26  4
  18641798.302   -13194143.67949 -10271212.86449  18641799.1754   18641806.1034
  19892223.348   -22998758.90749 -17899756.76249  19892224.7964   19892231.3614
  19918473.194    -3461181.57849  -2692961.84049  19918470.8914   19918478.4984
  17299404.462   -20329812.03249 -15821981.34149  17299405.7964   17299412.2604
  19967152.991   -16847373.15349 -13111832.62649  19967155.0704   19967163.0974
  19890143.605   -28348944.01449 -22018206.81349  19890146.6654   19890153.8144
 96  5 11 18 27 59.9890000  0  6  2  9 27  7 26  4
  18629992.406   -13256181.72049 -10319554.20749  18629994.1104   18630000.9754
  19856909.634   -23184334.26049 -18044360.88349  19856910.9664   19856917.4684
  19919828.334    -3454033.88349  -2687392.26249  19919831.2764   19919839.0054
  17285114.182   -20404905.17749 -15880495.47649  17285116.0724   17285122.3914
  19957080.899   -16900305.20649 -13153078.39249  19957083.1724   19957089.7464
  19853087.987   -28543663.45949 -22169936.21249  19853092.5694   19853098.9074
 96  5 11 18 28 29.9890000  0  6  2  9 27  7 26  4
  18618197.987   -13318163.84849 -10367851.97349  18618198.8934   18618206.0824
  19821618.660   -23369783.81649 -18188866.97749  19821621.0544   19821627.9454
  19921214.468    -3446772.28649  -2681733.92449  19921213.2564   19921220.6224
  17270876.867   -20479720.45649 -15938793.08949  17270879.1554   17270885.4514
  19947058.597   -16952980.65049 -13194124.21949  19947059.0124   19947066.1564
  19816048.196   -28738314.27749 -22321612.13449  19816051.1384   19816058.4254
 96  5 11 18 28 59.9890000  0  6  2  9 27  7 26  4
  18606441.681   -13379937.47849 -10415987.28249  18606443.8884   18606450.9044
  19786383.133   -23554952.79049 -18333154.44949  19786384.7214   19786391.2794
  19922640.114    -3439268.22849  -2675886.66349  19922641.7424   19922649.2674
  17256719.584   -20554116.26049 -15996763.84149  17256721.9904   17256728.1184
  19937110.088   -17005256.08749 -13234858.35649  19937112.1834   19937119.3164
  19779050.348   -28932731.82549 -22473106.27849  19779054.8484   19779061.7804
 96  5 11 18 29 29.9890000  0  6  2  9 27  7 26  4
  18594716.185   -13441560.69449 -10464005.37749  18594717.2874   18594724.3274
  19751184.367   -23739929.39149 -18477292.01749  19751184.6344   19751192.0064
  19924097.957    -3431603.99649  -2669914.59849  19924099.8504   19924107.4764
  17242629.979   -20628169.79549 -16054467.88849  17242630.1654   17242636.5734
  19927220.116   -17057221.06049 -13275350.55749  19927223.2354   19927230.6014
  19742083.838   -29126999.64849 -22624483.76149  19742087.2264   19742093.7354
 96  5 11 18 29 59.9890000  0  6  2  9 27  7 26  4
  18583018.102   -13503031.29849 -10511904.55849  18583020.2974   18583026.5894
  19716023.278   -23924703.53349 -18621271.81549  19716023.4654   19716030.1814
  19925590.635    -3423774.88349  -2663814.04449  19925589.1764   19925597.9094
  17228606.197   -20701857.08449 -16111886.55249  17228607.9084   17228614.3644
  19917395.336   -17108860.43349 -13315589.04949  19917396.7254   19917403.8974
  19705148.563   -29321097.66649 -22775728.93349  19705151.7014   19705158.0184
 96  5 11 18 30 29.9890000  0  6  2  9 27  7 26  4
  18571353.652   -13564332.81149 -10559671.97749  18571354.7104   18571361.3584
  19680903.895   -24109264.73549 -18765085.69849  19680902.3164   19680909.3084
  19927113.895    -3415739.06449  -2657552.41449  19927118.5154   19927126.7004
  17214655.818   -20775166.24549 -16169010.56649  17214657.8494   17214664.1404
  19907640.931   -17160128.30549 -13355538.05849  19907640.4064   19907647.7764
  19668252.017   -29514994.56149 -22926817.37549  19668253.8784   19668260.3834
 96  5 11 18 30 59.9890000  0  6  2  9 27  7 26  4
  18559714.309   -13625490.13249 -10607327.04349  18559716.9204   18559723.7014
  19645812.277   -24293658.65649 -18908769.21849  19645813.3824   19645820.7214
  19928679.258    -3407521.03049  -2651148.81749  19928682.6524   19928690.9544
  17200768.212   -20848146.60249 -16225878.36849  17200769.9624   17200776.4554
  19897946.310   -17211057.15249 -13395222.88849  19897949.1934   19897956.1694
  19631381.242   -29708744.73249 -23077791.49549  19631384.1894   19631391.2364
 96  5 11 18 31 29.9890000  0  6  2  9 27  7 26  4
  18548100.989   -13686524.56349 -10654886.34649  18548102.4554   18548109.3564
  19610752.232   -24477895.43749 -19052330.30849  19610753.9684   19610760.9794
  19930276.482    -3399125.38149  -2644606.81749  19930280.3514   19930289.0294
  17186941.274   -20920810.56549 -16282499.63049  17186942.3904   17186948.8264
  19888320.097   -17261649.72749 -13434645.69149  19888321.9244   19888330.1404
  19594537.508   -29902360.85649 -23228661.16349  19594539.5674   19594547.1194
 96  5 11 18 31 59.9890000  0  6  2  9 27  7 26  4
  18536514.900   -13747414.34149 -10702332.93949  18536515.3034   18536522.2904
  19575728.942   -24661950.08749 -19195749.47949  19575729.7864   19575735.9774
  19931915.916    -3390522.05949  -2637902.98849  19931917.7914   19931926.1384
  17173177.419   -20993141.13949 -16338861.11249  17173178.3184   17173184.6304
  19878762.525   -17311877.88949 -13473784.54449  19878763.9074   19878770.6444
  19557727.621   -30095811.90449 -23379402.20749  19557728.0634   19557735.0534
 96  5 11 18 32 29.9890000  0  6  2  9 27  7 26  4
  18524958.493   -13808145.03749 -10749655.56849  18524958.9064   18524965.6094
  19540740.226   -24845824.65949 -19339028.32749  19540739.6134   19540746.3754
  19933597.165    -3381696.67249  -2631026.12749  19933597.8394   19933605.0944
  17159473.271   -21065156.35249 -16394976.86049  17159474.4334   17159480.7494
  19869273.116   -17361745.05849 -13512642.09349  19869273.9754   19869281.6584
  19520945.743   -30289095.69149 -23530012.91349  19520947.6604   19520954.2054
 96  5 11 18 32 59.9890000  0  6  2  9 27  7 26  4
  18513437.451   -13868681.08549 -10796826.53049  18513438.9814   18513446.4764
  19505790.882   -25029482.00649 -19482137.91449  19505791.1844   19505797.5674
  19935319.403    -3372638.21149  -2623967.64749  19935321.0784   19935329.5204
  17145831.669   -21136840.70549 -16450834.79349  17145833.2444   17145839.5454
  19859856.342   -17411229.55249 -13551201.45849  19859857.8514   19859865.5344
  19484201.129   -30482181.42349 -23680469.29649  19484205.0524   19484211.4334
 96  5 11 18 33 29.9890000  0  6  2  9 27  7 26  4
  18501957.569   -13929022.54349 -10843845.86149  18501956.8904   18501963.6964
  19470885.057   -25212906.62249 -19625066.14249  19470886.0624   19470892.9174
  19937089.149    -3363347.30249  -2616728.04149  19937089.1854   19937097.0134
  17132255.043   -21208192.58449 -16506433.65749  17132255.2784   17132261.8204
  19850513.900   -17460323.56549 -13589456.55749  19850515.2094   19850522.5704
  19447502.276   -30675043.33649 -23830751.26449  19447504.4444   19447511.0854
 96  5 11 18 33 59.9890000  0  6  2  9 27  7 26  4
  18490504.390   -13989191.01549 -10890730.39349  18490507.0924   18490513.8254
  19436016.742   -25396144.46349 -19767848.83549  19436017.3514   19436023.9464
  19938889.601    -3353866.32949  -2609340.33149  19938893.8624   19938900.6724
  17118731.984   -21279252.40249 -16561804.94149  17118733.2004   17118739.6064
  19841235.768   -17509072.17449 -13627442.50249  19841239.1774   19841246.1494
  19410835.555   -30867721.89749 -23980890.36549  19410838.5654   19410844.7204
 96  5 11 18 34 29.9890000  0  6  2  9 27  7 26  4
  18479090.479   -14049172.10049 -10937468.91049  18479092.9694   18479099.5744
  19401188.917   -25579165.73449 -19910462.76949  19401189.9094   19401196.2974
  19940733.128    -3344189.00349  -2601799.62149  19940734.8964   19940742.8894
  17105269.977   -21349995.06749 -16616929.09449  17105271.3464   17105277.8794
  19832028.571   -17557468.75249 -13665154.14949  19832028.8254   19832036.4304
  19374207.805   -31060196.61049 -24130870.62049  19374212.1504   19374218.5864
 96  5 11 18 34 59.9890000  0  6  2  9 27  7 26  4
  18467715.075   -14108960.83149 -10984057.53649  18467715.5524   18467722.6774
  19366405.283   -25761943.27349 -20052886.79149  19366407.9424   19366414.1874
  19942609.860    -3334313.59249  -2594104.54949  19942614.0144   19942622.6184
  17091874.461   -21420386.12549 -16671779.26449  17091876.3604   17091882.7364
  19822885.047   -17605510.71649 -13702589.46949  19822887.5574   19822894.7094
  19337625.954   -31252449.65049 -24280678.13549  19337626.7504   19337633.7364
 96  5 11 18 35 29.9890000  0  6  2  9 27  7 26  4
  18456368.765   -14168571.37749 -11030507.32949  18456371.9064   18456378.9304
  19331671.140   -25944483.77349 -20195126.11149  19331671.7384   19331677.9384
  19944529.636    -3324238.49949  -2586253.88949  19944532.2114   19944539.9444
  17078551.619   -21490402.56649 -16726337.53149  17078552.6954   17078558.9654
  19813806.973   -17653221.19249 -13739766.48849  19813808.4904   19813815.6424
  19301080.925   -31444489.47349 -24430319.51249  19301082.9534   19301089.4034
 96  5 11 18 35 59.9880000  0  6  2  9 27  7 26  4
  18445057.754   -14228013.47749 -11076825.86249  18445060.8354   18445067.3844
  19296979.209   -26126781.99849 -20337176.63849  19296981.5324   19296988.2334
  19946484.022    -3313979.60549  -2578260.00749  19946483.8364   19946491.5154
  17065299.463   -21560041.82049 -16780601.88349  17065300.7844   17065307.2424
  19804789.462   -17700618.96949 -13776699.83949  19804788.8634   19804795.2184
  19264578.356   -31636316.63549 -24579795.18049  19264578.6614   19264586.2114
 96  5 11 18 36 29.9880000  0  6  2  9 27  7 26  4
  18433775.169   -14287307.82049 -11123029.26449  18433777.4784   18433784.4544
  19262336.237   -26308835.01049 -20479036.09349  19262337.8444   19262343.8014
  19948471.610    -3303535.61349  -2570121.89749  19948471.3164   19948479.2634
  17052117.613   -21629311.46749 -16834578.23249  17052119.3794   17052125.7004
  19795828.588   -17747703.76449 -13813389.31949  19795829.2194   19795836.1424
  19228115.793   -31827929.37249 -24729103.76049  19228117.2594   19228123.5784
 96  5 11 18 36 59.9880000  0  6  2  9 27  7 26  4
  18422520.715   -14346455.17749 -11169118.12949  18422522.1174   18422528.9454
  19227736.756   -26490650.58349 -20620710.53949  19227739.9024   19227746.2164
  19950495.862    -3292905.14949  -2561838.47649  19950494.2854   19950502.7794
  17039006.636   -21698212.03949 -16888266.99049  17039007.8874   17039014.0954
  19786930.387   -17794460.83149 -13849823.42549  19786931.1044   19786939.7744
  19191694.691   -32019316.17249 -24878236.29149  19191696.9404   19191704.1874
 96  5 11 18 37 29.9880000  0  6  2  9 27  7 26  4
  18411295.342   -14405437.53249 -11215078.42849  18411298.0834   18411304.7594
  19193183.488   -26672223.34149 -20762195.76249  19193186.6454   19193193.7674
  19952548.999    -3282086.33249  -2553408.29649  19952552.8454   19952560.6834
  17025963.663   -21766750.61949 -16941673.67449  17025965.7524   17025971.8504
  19778098.796   -17840872.91749 -13885988.70349  19778100.2684   19778107.4054
  19155322.689   -32210464.93549 -25027183.32849  19155322.5344   19155329.4374
 96  5 11 18 37 59.9880000  0  6  2  9 27  7 26  4
  18400109.553   -14464225.26449 -11260887.06049  18400111.0324   18400118.1294
  19158685.479   -26853520.80049 -20903466.48349  19158687.6244   19158694.1094
  19954651.383    -3271062.96949  -2544818.73149  19954650.8554   19954658.8904
  17012989.570   -21834932.06649 -16994802.07649  17012991.0344   17012997.0664
  19769339.941   -17886904.58049 -13921857.56149  19769340.2504   19769347.4984
  19118998.332   -32401340.96549 -25175917.85549  19118999.8654   19119007.3314
 96  5 11 18 38 29.9880000  0  6  2  9 27  7 26  4
  18388955.905   -14522835.91449 -11306557.71349  18388957.8304   18388964.8534
  19124232.166   -27034578.15549 -21044550.09149  19124233.6164   19124239.8314
  19956774.871    -3259868.01849  -2536095.46049  19956781.1734   19956788.8414
  17000074.448   -21902797.52249 -17047684.24949  17000076.6994   17000082.7844
  19760646.618   -17932585.25049 -13957452.91749  19760647.7254   19760654.4584
  19082721.325   -32591979.39949 -25324467.23649  19082723.0204   19082729.7344
 96  5 11 18 38 59.9880000  0  6  2  9 27  7 26  4
  18377838.538   -14581264.97149 -11352086.86549  18377839.1974   18377846.1194
  19089822.916   -27215400.96349 -21185450.95549  19089823.9744   19089830.0804
  19958941.828    -3248515.62849  -2527249.52549  19958941.9424   19958949.9944
  16987218.049   -21970360.10849 -17100330.42249  16987219.8994   16987226.1324
  19752012.830   -17977949.30049 -13992801.54849  19752014.9324   19752022.8504
  19046484.609   -32782391.70549 -25472840.40949  19046488.5604   19046495.6954
 96  5 11 18 39 29.9880000  0  6  2  9 27  7 26  4
  18366759.844   -14639468.60749 -11397440.35949  18366763.5064   18366770.2574
  19055470.188   -27395922.03349 -21326116.69249  19055471.7104   19055478.0974
  19961139.181    -3236964.62349  -2518248.81149  19961139.3804   19961148.6844
  16974424.253   -22037592.83249 -17152719.56049  16974426.0874   16974432.0374
  19743444.417   -18022981.50149 -14027891.60249  19743447.0084   19743453.0184
  19010300.705   -32972534.98149 -25621003.95149  19010305.0744   19010312.2284
 96  5 11 18 39 59.9880000  0  7  2  9 27  7 24 26  4
  18355719.459   -14697494.64249 -11442655.46849  18355721.2504   18355728.3054
  19021167.067   -27576183.19149 -21466579.89849  19021169.4374   19021175.6714
  19963366.083    -3225253.22949  -2509123.14749  19963368.3474   19963376.3604
  16961685.011   -22104537.06549 -17204883.90249  16961687.0814   16961692.9704
  21226070.821    -8926620.09659  -5921536.51959  21226072.6184   21226082.0134
  19734929.258   -18067737.45849 -14062766.40549  19734929.0614   19734935.5654
  18974162.425   -33162457.11849 -25768995.18149  18974163.8734   18974170.6684
 96  5 11 18 40 29.9880000  0  7  2  9 27  7 24 26  4
  18344715.113   -14755323.49949 -11487716.93249  18344716.7554   18344723.2584
  18986915.808   -27756169.45949 -21606828.91949  18986919.4904   18986925.4714
  19965624.722    -3213352.74049  -2499850.12349  19965633.0934   19965640.6694
  16949009.323   -22171152.21649 -17256791.81349  16949010.6634   16949016.4604
  21186742.643    -9133300.54849  -6082586.10549  21186743.6064   21186751.6254
  19726467.739   -18112199.65349 -14097412.29949  19726468.3994   19726475.2654
  18938066.577   -33352143.97649 -25916803.07449  18938068.1624   18938075.0084
 96  5 11 18 40 59.9880000  0  7  2  9 27  7 24 26  4
  18333753.524   -14812928.23349 -11532603.75749  18333754.8944   18333762.3154
  18952729.740   -27935832.70449 -21746826.20749  18952729.9384   18952736.4364
  19967942.466    -3201214.41349  -2490391.76849  19967943.3984   19967951.5274
  16936403.529   -22237392.84349 -17308407.88749  16936405.3674   16936411.2724
  21147408.750    -9339970.99049  -6243627.86549  21147415.0464   21147424.3394
  19718069.883   -18156321.47149 -14131792.95249  19718071.9584   19718079.7954
  18902022.597   -33541550.09949 -26064392.20349  18902025.3324   18902031.9354
 96  5 11 18 41 29.9880000  0  7  2  9 27  7 24 26  4
  18322824.121   -14870363.03549 -11577358.16349  18322825.9034   18322832.3704
  18918591.151   -28115225.53149 -21886612.79249  18918593.1224   18918599.3084
  19970291.664    -3188887.23149  -2480786.25049  19970288.4694   19970296.6544
  16923860.776   -22303302.54749 -17359766.09849  16923863.2374   16923869.3324
  21108077.341    -9546669.58449  -6404691.56149  21108081.3604   21108090.0554
  19709733.845   -18200132.62249 -14165931.53749  19709734.7964   19709743.0504
  18866020.694   -33730733.75549 -26211807.98949  18866024.9154   18866031.2104
 96  5 11 18 41 59.9880000  0  7  2  9 27  7 24 26  4
  18311925.383   -14927627.30749 -11621979.69849  18311928.8014   18311935.5374
  18884502.451   -28294365.71049 -22026202.50549  18884504.0794   18884510.2394
  19972659.832    -3176380.78649  -2471041.03849  19972668.1934   19972677.0004
  16911384.407   -22368872.55849 -17410859.61549  16911385.6994   16911391.7294
  21068736.286    -9753408.30249  -6565786.51449  21068740.6724   21068749.6034
  19701459.383   -18243614.47549 -14199813.52349  19701460.1454   19701467.8464
  18830062.896   -33919690.58349 -26359047.02849  18830067.7574   18830074.2354
 96  5 11 18 42 29.9880000  0  7  2  9 27  7 24 26  4
  18301068.240   -14984684.83049 -11666440.12349  18301071.0604   18301077.3604
  18850470.006   -28473200.35749 -22165554.13749  18850472.4404   18850478.8664
  19975089.632    -3163660.98549  -2461129.57949  19975089.3524   19975097.2404
  16898978.291   -22434066.03349 -17461659.72549  16898979.8694   16898985.9374
  21029392.603    -9960134.09449  -6726871.40649  21029401.2524   21029410.7284
  19693254.481   -18286720.23349 -14233402.46349  19693257.6734   19693265.7364
  18794163.372   -34108358.62749 -26506061.03249  18794165.5384   18794171.9414
 96  5 11 18 42 59.9880000  0  7  2  9 27  7 24 26  4
  18290240.087   -15041602.55649 -11710791.61649  18290239.9344   18290246.5044
  18816486.098   -28651789.58549 -22304714.54749  18816488.1764   18816494.0964
  19977532.198    -3150820.63849  -2451124.19249  19977533.2634   19977541.4854
  16886625.199   -22498971.24049 -17512235.21449  16886628.6484   16886634.8874
  20990038.187   -10166921.09349  -6888003.99149  20990051.0624   20990060.5224
  19685109.268   -18329529.37849 -14266760.26949  19685111.7644   19685118.6264
  18758308.518   -34296785.44249 -26652887.07849  18758308.6104   18758315.2984
 96  5 11 18 43 29.9880000  0  7  2  9 27  7 24 26  4
  18279430.339   -15098391.76749 -11755042.96849  18279433.3364   18279440.0504
  18782544.472   -28830159.83349 -22443704.31249  18782545.6874   18782551.5514
  19979992.215    -3137891.41549  -2441049.54349  19979993.9354   19980002.1544
  16874327.345   -22563610.79349 -17562603.69849  16874328.2084   16874334.4424
  20950675.940   -10373818.90749  -7049222.91949  20950679.6174   20950688.4454
  19677014.972   -18372072.04349 -14299910.42749  19677015.5794   19677023.1794
  18722495.366   -34484980.15349 -26799532.25849  18722496.5694   18722503.0334
 96  5 11 18 43 59.9870000  0  7  2  9 27  7 24 26  4
  18268652.386   -15155044.10849 -11799187.66549  18268652.7014   18268659.5054
  18748647.502   -29008287.81249 -22582505.30049  18748648.7244   18748655.0514
  19982466.464    -3124872.27549  -2430904.82249  19982470.7594   19982478.9814
  16862077.654   -22627974.53549 -17612757.26249  16862080.2014   16862086.3774
  20911289.500   -10580822.87649  -7210524.57749  20911287.6954   20911296.7284
  19668969.482   -18414348.75449 -14332853.34549  19668971.2304   19668978.4384
  18686731.620   -34672913.25949 -26945973.58449  18686733.5944   18686740.1414
 96  5 11 18 44 29.9870000  0  7  2  9 27  7 24 26  4
  18257895.836   -15211572.40149 -11843235.69949  18257896.0294   18257902.4364
  18714795.921   -29186186.98349 -22721128.00249  18714795.9354   18714801.7544
  19984968.194    -3111761.28649  -2420688.54749  19984966.1424   19984973.3804
  16849882.173   -22692076.04049 -17662706.48349  16849882.1054   16849888.1024
  20871866.223   -10787951.72049  -7371923.54449  20871872.2884   20871882.0714
  19660971.257   -18456374.62849 -14365600.80249  19660974.0204   19660980.8304
  18651015.967   -34860608.28249 -27092229.40549  18651016.6784   18651023.0084
 96  5 11 18 44 59.9870000  0  7  2  9 27  7 24 26  4
  18247168.796   -15267932.50449 -11887152.67549  18247170.8084   18247177.6694
  18680990.216   -29363831.04249 -22859551.90749  18680990.9514   18680997.2694
  19987485.707    -3098512.30849  -2410364.74949  19987486.8874   19987496.1324
  16837740.465   -22755870.61949 -17712416.54249  16837742.5964   16837748.5714
  20832435.994   -10995168.30349  -7533390.87349  20832440.0044   20832449.4154
  19653025.509   -18498116.76049 -14398127.16449  19653030.4814   19653037.8694
  18615348.204   -35048031.14449 -27238273.14549  18615351.5144   18615357.9134
 96  5 11 18 45 29.9870000  0  7  2  9 27  7 24 26  4
  18236478.894   -15324107.63849 -11930925.52049  18236481.0964   18236487.8674
  18647237.999   -29541207.07749 -22997766.97049  18647238.0934   18647243.8004
  19990034.708    -3085093.22749  -2399908.40549  19990041.4714   19990048.4944
  16825665.199   -22819330.30649 -17761865.64249  16825666.3304   16825672.5094
  20792993.669   -11202447.61349  -7694907.08449  20792995.6174   20793004.7744
  19645145.688   -18539557.85849 -14430418.96249  19645144.2734   19645151.2094
  18579734.289   -35235174.88049 -27384099.39049  18579738.9404   18579745.2534
 96  5 11 18 45 59.9870000  0  7  2  9 27  7 24 26  4
  18225825.163   -15380091.61149 -11974549.39949  18225827.4044   18225834.9744
  18613534.200   -29718306.59449 -23135766.56549  18613536.4554   18613542.8644
  19992625.960    -3071500.53249  -2389316.76149  19992627.5054   19992635.6634
  16813654.420   -22882453.11349 -17811052.24449  16813654.3924   16813660.6554
  20753543.843   -11409759.69249  -7856448.83249  20753545.5024   20753555.2914
  19637314.448   -18580691.24549 -14462470.97449  19637316.7934   19637324.9224
  18544179.260   -35422030.97149 -27529701.48949  18544181.0094   18544187.8714
 96  5 11 18 46 29.9870000  0  7  2  9 27  7 24 26  4
  18215213.596   -15435859.87049 -12018005.20549  18215215.1934   18215222.1184
  18579889.934   -29895114.64449 -23273539.03949  18579891.2364   18579897.0944
  19995253.206    -3057716.62149  -2378576.13149  19995250.8134   19995259.0564
  16801705.377   -22945234.25949 -17859972.61949  16801707.4444   16801713.9844
  20714096.722   -11617058.85549  -8017980.53849  20714097.9144   20714107.0384
  19629552.943   -18621498.99049 -14494269.24749  19629552.1454   19629558.8024
  18508682.926   -35608571.16449 -27675057.44149  18508683.7344   18508690.3534
 96  5 11 18 46 59.9870000  0  7  2  9 27  7 24 26  4
  18204639.146   -15491421.82149 -12061300.24549  18204642.1874   18204649.1854
  18546298.558   -30071632.56949 -23411085.44249  18546300.9054   18546307.0964
  19997902.414    -3043765.23249  -2367705.00449  19997904.9084   19997914.2364
  16789821.926   -23007688.80349 -17908638.49949  16789823.0554   16789829.1554
  20674647.313   -11824351.69549  -8179507.32249  20674651.2004   20674660.1584
  19621839.135   -18662017.97949 -14525842.49849  19621840.6704   19621849.4404
  18473243.552   -35794798.25749 -27820169.41849  18473246.4424   18473252.8084
 96  5 11 18 47 29.9870000  0  7  2  9 27  7 24 26  4
  18194115.886   -15546738.59349 -12104404.23549  18194115.8454   18194123.2654
  18512772.532   -30247811.29249 -23548367.53049  18512775.2434   18512781.4494
  20000594.438    -3029633.01049  -2356692.97549  20000594.0184   20000603.1734
  16778002.787   -23069796.68849 -17957034.25649  16778004.4114   16778010.3874
  20635206.771   -12031615.84849  -8341011.72849  20635210.4974   20635219.1344
  19614189.710   -18702217.09849 -14557166.51949  19614190.9054   19614198.9144
  18437870.334   -35980686.55749 -27965017.40249  18437872.6564   18437879.3804
 96  5 11 18 47 59.9870000  0  7  2  9 27  7 24 26  4
  18183638.660   -15601782.53449 -12147295.63749  18183641.2824   18183648.3414
  18479318.685   -30423614.75349 -23685357.21949  18479320.8464   18479326.8914
  20003322.743    -3015292.90049  -2345518.95649  20003322.7454   20003331.9804
  16766250.674   -23131549.50849 -18005153.33549  16766253.1814   16766259.3164
  20595782.196   -12238835.07549  -8502481.15049  20595777.8754   20595786.2894
  19606603.428   -18742070.95149 -14588221.50049  19606608.0154   19606614.8984
  18402564.078   -36166210.16749 -28109581.21149  18402568.6934   18402575.2084
 96  5 11 18 48 29.9870000  0  7  2  9 27  7 24 26  4
  18173202.452   -15656638.97549 -12190040.92049  18173202.3924   18173208.8844
  18445922.767   -30599118.97649 -23822113.72749  18445923.8254   18445929.6214
  20006075.882    -3000827.91749  -2334247.63349  20006075.8044   20006084.6454
  16754551.566   -23193028.71649 -18053059.21249  16754553.8544   16754559.7704
  20556333.769   -12446092.89749  -8663980.65549  20556338.1244   20556346.7224
  19599069.833   -18781669.70549 -14619077.70749  19599072.5414   19599079.5774
  18367318.369   -36351451.47249 -28253925.04049  18367318.4344   18367325.0964
 96  5 11 18 48 59.9870000  0  7  2  9 27  7 24 26  4
  18162806.440   -15711257.54049 -12232600.85449  18162808.8174   18162816.1764
  18412592.465   -30774267.14149 -23958592.79549  18412594.3394   18412600.5674
  20008863.612    -2986184.20649  -2322837.05949  20008862.5164   20008870.9914
  16742916.561   -23254171.81749 -18100703.18349  16742918.5924   16742924.6174
  20516898.379   -12653345.83649  -8825476.35249  20516898.9334   20516907.7104
  19591596.282   -18820955.57749 -14649690.10249  19591596.6854   19591604.3374
  18332128.113   -36536356.02549 -28398006.47549  18332132.5464   18332138.5254
 96  5 11 18 49 29.9870000  0  7  2  9 27  7 24 26  4
  18152453.315   -15765663.91049 -12274995.43449  18152455.3854   18152462.4214
  18379327.004   -30949082.90049 -24094812.82949  18379327.6954   18379333.9794
  20011675.577    -2971389.79449  -2311309.04249  20011677.7184   20011686.3024
  16731340.928   -23315006.46149 -18148106.80449  16731342.3104   16731348.3514
  20477448.387   -12860606.62549  -8986978.15449  20477458.2924   20477467.5154
  19584176.159   -18859929.23849 -14680059.20949  19584179.0914   19584187.5094
  18297003.732   -36720944.00149 -28541841.21949  18297006.1724   18297012.6544
 96  5 11 18 49 59.9870000  0  7  2  9 27  7 24 26  4
  18142135.285   -15819896.38649 -12317254.51849  18142136.1464   18142141.9074
  18346118.432   -31123584.75849 -24230788.27149  18346121.0694   18346127.2294
  20014521.446    -2956463.44249  -2299678.21749  20014518.1674   20014526.8634
  16719820.835   -23375544.48549 -18195279.28949  16719822.4004   16719828.3024
  20438008.161   -13067869.89949  -9148481.90449  20438017.6644   20438026.2464
  19576814.277   -18898626.81749 -14710213.19549  19576815.7564   19576823.0574
  18261938.926   -36905215.65949 -28685429.47949  18261940.2054   18261947.0364
 96  5 11 18 50 29.9870000  0  7  2  9 27  7 24 26  4
  18131847.956   -15873958.83049 -12359381.10649  18131847.7894   18131854.3844
  18312970.827   -31297776.42549 -24366522.00849  18312973.2354   18312979.7614
  20017374.827    -2941423.09549  -2287958.57049  20017380.3934   20017388.8504
  16708358.605   -23435776.85149 -18242213.60249  16708360.5604   16708366.4664
  20398575.136   -13275130.26449  -9309983.39149  20398577.1144   20398585.7474
  19569497.691   -18937058.79449 -14740160.21249  19569502.6194   19569510.5464
  18226934.554   -37089175.31749 -28828774.62249  18226933.9364   18226940.5454
 96  5 11 18 50 59.9870000  0  7  2  9 27  7 24 26  4
  18121596.505   -15927835.27649 -12401362.76849  18121595.4884   18121602.1914
  18279887.036   -31471641.86449 -24502001.54349  18279887.7534   18279894.4704
  20020269.630    -2926255.74549  -2276139.96449  20020267.6194   20020275.3054
  16696955.980   -23495695.72349 -18288903.62849  16696958.2504   16696964.3104
  20359129.572   -13482382.75049  -9471478.74149  20359137.8294   20359147.1174
  19562238.389   -18975217.42349 -14769894.22949  19562242.1434   19562249.4634
  18191984.096   -37272822.22949 -28971876.07149  18191987.4784   18191993.7144
 96  5 11 18 51 29.9870000  0  7  2  9 27  7 24 26  4
  18111383.645   -15981493.77349 -12443174.60149  18111384.6674   18111391.2544
  18246866.932   -31645161.95349 -24637211.97449  18246867.8604   18246874.2574
  20023178.027    -2910931.92149  -2264199.40649  20023183.2964   20023191.6724
  16685619.157   -23555274.35949 -18335328.54149  16685620.6854   16685626.9014
  20319702.361   -13689597.19349  -9632944.45249  20319706.5724   20319714.9004
  19555032.382   -19013092.68149 -14799407.43849  19555034.1274   19555041.4544
  18157102.481   -37456137.93149 -29114719.42949  18157103.3274   18157109.5164
 96  5 11 18 51 59.9860000  0  7  2  9 27  7 24 26  4
  18101214.445   -16034940.46349 -12484821.38949  18101214.7994   18101220.7844
  18213908.675   -31818347.46249 -24772161.70049  18213911.7534   18213918.3774
  20026125.361    -2895453.94649  -2252138.74249  20026128.5584   20026137.5214
  16674342.514   -23614525.35349 -18381498.15149  16674345.8074   16674351.8244
  20280284.247   -13896781.64449  -9794386.78949  20280280.4964   20280289.0704
  19547876.688   -19050701.92049 -14828713.37249  19547877.3744   19547884.7324
  18122273.887   -37639135.20149 -29257314.65749  18122280.0414   18122286.3644
 96  5 11 18 52 29.9860000  0  7  2  9 27  7 24 26  4
  18091079.196   -16088180.92149 -12526307.47449  18091082.7334   18091089.7654
  18181012.669   -31991227.29049 -24906873.23149  18181014.2554   18181020.3504
  20029099.759    -2879828.99349  -2239963.55349  20029101.9084   20029110.6444
  16663125.096   -23673482.46749 -18427438.75849  16663126.3014   16663132.3914
  20240857.387   -14103959.43649  -9955823.94749  20240855.3804   20240864.5154
  19540768.643   -19088047.58049 -14857813.91749  19540770.1474   19540777.9864
  18087509.104   -37821849.44849 -29399689.34549  18087510.5634   18087517.0404
 96  5 11 18 52 59.9860000  0  7  2  9 27  7 24 26  4
  18080986.253   -16141247.84649 -12567658.34249  18080984.7754   18080991.6424
  18148168.665   -32163828.18849 -25041367.41949  18148169.1154   18148175.1614
  20032092.537    -2864086.20149  -2227696.54649  20032098.4644   20032106.6784
  16651956.372   -23732178.81749 -18473176.17749  16651957.0754   16651963.0384
  20201423.936   -14311146.17249 -10117268.07149  20201430.2594   20201437.6954
  19533705.160   -19125159.56549 -14886732.37149  19533707.9794   19533716.6374
  18052789.883   -38004292.13249 -29541852.42949  18052793.1124   18052799.2554
 96  5 11 18 53 29.9860000  0  7  2  9 27  7 24 26  4
  18070921.590   -16194121.26249 -12608858.41349  18070923.2064   18070930.7314
  18115380.164   -32336125.25549 -25175624.85249  18115382.1324   18115388.0364
  20035121.358    -2848213.64749  -2215328.42549  20035118.5834   20035127.6264
  16640839.643   -23790596.21249 -18518696.21949  16640840.6154   16640846.6224
  20162008.387   -14518311.36749 -10278695.42049  20162007.6374   20162015.7864
  19526696.885   -19162019.56149 -14915454.48049  19526694.4964   19526702.2264
  18018131.383   -38186419.85849 -29683770.08949  18018134.9384   18018141.4914
 96  5 11 18 53 59.9860000  0  7  2  9 27  7 24 26  4
  18060904.322   -16246768.57749 -12649882.30949  18060904.3194   18060911.9064
  18082659.793   -32508076.16849 -25309612.55649  18082660.9434   18082667.2364
  20038163.182    -2832186.99549  -2202840.22749  20038168.2374   20038177.0114
  16629779.166   -23848719.39849 -18563987.01549  16629780.1344   16629786.1484
  20122589.966   -14725417.98249 -10440077.10249  20122596.0734   20122604.6104
  19519733.155   -19198591.02349 -14943951.74949  19519735.0634   19519742.3414
  17983539.645   -38368195.48549 -29825413.38249  17983544.0674   17983550.5634
 96  5 11 18 54 29.9860000  0  7  2  9 27  7 24 26  4
  18050923.005   -16299206.12949 -12690742.75149  18050926.1084   18050933.2564
  18050000.930   -32679698.94449 -25443344.56149  18050002.0634   18050008.4424
  20041240.404    -2816048.84749  -2190265.15049  20041238.8884   20041247.8664
  16618769.997   -23906567.29149 -18609063.29549  16618772.0364   16618778.0684
  20083189.533   -14932486.77449 -10601429.30849  20083192.6124   20083200.2744
  19512824.043   -19234905.43249 -14972248.72449  19512824.2324   19512832.9714
  17949018.674   -38549628.34549 -29966789.58349  17949018.6714   17949025.2554
 96  5 11 18 54 59.9860000  0  7  2  9 27  7 24 26  4
  18040988.146   -16351426.74749 -12731434.16149  18040988.9704   18040996.0774
  18017406.593   -32850980.97949 -25576811.05649  18017408.4024   18017413.9444
  20044323.169    -2799800.23749  -2177603.99949  20044332.0754   20044340.8404
  16607818.764   -23964119.22249 -18653908.95749  16607820.0494   16607826.4664
  20043798.379   -15139520.92149 -10762754.52449  20043794.8534   20043802.9854
  19505959.399   -19270959.49249 -15000342.82249  19505963.6354   19505972.2324
  17914560.877   -38730689.62349 -30107876.23949  17914563.9064   17914570.3714
 96  5 11 18 55 29.9860000  0  7  2  9 27  7 24 26  4
  18031088.094   -16403456.48349 -12771976.83049  18031088.1534   18031095.6804
  17984873.956   -33021941.52049 -25710027.04049  17984875.7114   17984881.5404
  20047448.022    -2783460.43349  -2164871.78349  20047441.6104   20047449.0674
  16596917.859   -24021402.90349 -18698545.59349  16596919.5154   16596925.9184
  20004393.111   -15346543.42649 -10924070.66349  20004399.6434   20004408.6004
  19499148.020   -19306777.29649 -15028252.85349  19499148.1204   19499155.5534
  17880174.297   -38911399.79749 -30248689.31249  17880175.9264   17880182.3074
 96  5 11 18 55 59.9860000  0  7  2  9 27  7 24 26  4
  18021215.214   -16455316.81149 -12812387.49449  18021219.4314   18021226.6984
  17952401.797   -33192590.78049 -25843000.46249  17952401.5264   17952408.2434
  20050564.714    -2767049.51049  -2152084.19249  20050564.4774   20050572.5014
  16586064.769   -24078433.03849 -18742984.66049  16586066.9644   16586073.0734
  19965003.692   -15553568.25749 -11085388.60949  19965004.1134   19965012.6234
  19492374.459   -19342364.24249 -15055982.95449  19492375.8264   19492383.9414
  17845849.854   -39091776.88849 -30389242.84349  17845851.4334   17845858.0284
 96  5 11 18 56 29.9860000  0  7  2  9 27  7 24 26  4
  18011384.701   -16507010.80349 -12852668.53949  18011382.7994   18011389.6324
  17919988.483   -33362910.15149 -25975716.83049  17919991.1424   17919997.3814
  20053703.054    -2750557.14049  -2139233.08349  20053703.9434   20053710.6044
  16575264.491   -24135183.92849 -18787206.13049  16575267.5744   16575273.8914
  19925609.424   -15760593.63249 -11246706.98749  19925608.7074   19925616.4184
  19485645.419   -19377717.17649 -15083530.72949  19485648.4434   19485656.6464
  17811591.136   -39271790.42549 -30529513.07849  17811595.8444   17811602.0824
 96  5 11 18 56 59.9860000  0  7  2  9 27  7 24 26  4
  18001571.443   -16558556.90949 -12892834.35049  18001573.7444   18001580.7324
  17887642.664   -33532889.19349 -26108168.01049  17887645.1144   17887651.7934
  20056844.888    -2733966.76049  -2126305.62649  20056859.2394   20056868.1864
  16564519.635   -24191659.21849 -18831212.85249  16564520.7834   16564526.9804
  19886210.740   -15967621.64749 -11408027.42349  19886212.4804   19886220.7414
  19478963.500   -19412845.18249 -15110903.25549  19478963.9794   19478971.4734
  17777409.105   -39451435.43849 -30669496.15949  17777410.6034   17777416.9454
 96  5 11 18 57 29.9860000  0  7  2  9 27  7 24 26  4
  17991788.199   -16609973.32549 -12932899.10549  17991789.3184   17991796.3164
  17855360.604   -33702544.13049 -26240366.64649  17855361.1584   17855367.2424
  20060036.161    -2717302.66149  -2113320.74049  20060030.1494   20060038.8574
  16553818.763   -24247889.52949 -18875028.67749  16553820.4724   16553826.8244
  19846810.733   -16174669.83649 -11569363.57249  19846811.3804   19846820.6414
  19472313.632   -19447783.05049 -15138127.58949  19472315.4844   19472323.1814
  17743284.506   -39630751.62449 -30809223.01249  17743287.6594   17743293.6694
 96  5 11 18 57 59.9860000  0  7  2  9 27  7 24 26  4
  17982032.511   -16661239.44449 -12972846.76049  17982033.8454   17982040.4524
  17823140.251   -33871855.31349 -26372297.41449  17823142.4704   17823148.5354
  20063208.219    -2700563.58449  -2100277.43049  20063216.0854   20063224.7574
  16543167.032   -24303863.04949 -18918644.41249  16543169.1164   16543175.4284
  19807406.829   -16381722.17849 -11730702.96349  19807411.1274   19807420.4374
  19465701.632   -19482525.70949 -15165199.84049  19465704.0444   19465711.7204
  17709224.795   -39809733.73149 -30948689.54949  17709228.2534   17709234.4754
 96  5 11 18 58 29.9860000  0  8  5  2  9 27  7 24 26  4
  20540542.611    -2233193.54759  -1697433.80659  20540543.0244   20540552.2314
  17972316.794   -16712307.31949 -13012639.92749  17972315.9274   17972322.8164
  17790994.959   -34040788.72349 -26503933.81049  17790995.7384   17791001.4734
  20066427.440    -2683709.31749  -2087144.34649  20066423.4024   20066432.5264
  16532569.966   -24359551.31449 -18962037.87049  16532572.0144   16532578.3344
  19768013.234   -16588742.98849 -11892017.78949  19768016.6704   19768024.3284
  19459132.610   -19517058.37249 -15192108.45449  19459133.6454   19459141.1614
  17675238.045   -39988351.09849 -31087871.86949  17675238.6944   17675244.7934
 96  5 11 18 58 59.9860000  0  8  5  2  9 27  7 24 26  4
  20506167.142    -2413858.46249  -1838211.55349  20506164.3894   20506172.7724
  17962637.440   -16763158.64049 -13052264.35049  17962638.9634   17962646.3154
  17758920.935   -34209336.33749 -26635269.59149  17758922.0414   17758928.0244
  20069647.770    -2666744.73249  -2073925.31649  20069652.1704   20069661.0264
  16522027.008   -24414956.59349 -19005210.81749  16522029.0484   16522035.1574
  19728629.245   -16795705.56149 -12053287.25049  19728631.9954   19728640.8234
  19452598.237   -19551369.20749 -15218844.21649  19452603.6434   19452610.7394
  17641313.245   -40166618.29749 -31226781.33349  17641315.4334   17641321.6734
 96  5 11 18 59 29.9860000  0  8  5  2  9 27  7 24 26  4
  20471776.492    -2594565.02249  -1979021.74249  20471777.0614   20471785.9304
  17953005.285   -16813774.19649 -13091705.06349  17953007.1664   17953014.1804
  17726918.436   -34377501.33649 -26766307.22949  17726920.9684   17726927.1094
  20072888.864    -2649687.77049  -2060634.33049  20072897.8934   20072906.9974
  16511535.312   -24470088.54049 -19048170.77749  16511537.7624   16511543.8464
  19689257.439   -17002606.78049 -12214508.88849  19689260.4564   19689268.8184
  19446116.699   -19585454.85849 -15245404.50349  19446116.9334   19446125.4894
  17607455.745   -40344548.15749 -31365427.93549  17607456.5384   17607462.7354
 96  5 11 18 59 59.9850000  0  8  5  2  9 27  7 24 26  4
  20437383.497    -2775291.17849  -2119847.22149  20437385.0804   20437395.0664
  17943422.363   -16864124.74449 -13130939.27749  17943425.8904   17943432.6824
  17694993.396   -34545270.09349 -26897036.10349  17694995.1854   17695001.5294
  20076163.973    -2632522.93349  -2047259.22549  20076164.0074   20076172.4894
  16501101.395   -24524925.81149 -19090901.11549  16501102.4654   16501108.7784
  19649899.920   -17209411.08549 -12375655.02949  19649906.9194   19649915.7394
  19439675.850   -19619289.13349 -15271768.92649  19439678.8734   19439687.4314
  17573664.743   -40522104.02349 -31503783.11049  17573668.5374   17573674.8964
 96  5 11 19  0 29.9850000  0  8  5  2  9 27  7 24 26  4
  20403004.613    -2955962.44849  -2260629.93149  20403005.4744   20403014.1394
  17933908.403   -16914143.81349 -13169915.20549  17933907.8954   17933914.3874
  17663155.313   -34712580.60849 -27027407.92449  17663157.5084   17663163.8254
  20079460.522    -2615166.68049  -2033735.00149  20079466.8784   20079475.9574
  16490735.679   -24579392.95449 -19133343.06149  16490737.5984   16490743.7224
  19610582.226   -17416054.91649 -12536676.12649  19610583.3274   19610591.9614
  19433303.645   -19652796.87349 -15297878.92749  19433303.7384   19433310.0754
  17539963.943   -40699208.95449 -31641786.92849  17539966.7724   17539973.2764
 96  5 11 19  0 59.9850000  0  8  5  2  9 27  7 24 26  4
  20368582.064    -3136855.71149  -2401585.64449  20368582.3494   20368590.2654
  17924399.063   -16964117.85349 -13208856.03749  17924398.2444   17924404.8454
  17631354.374   -34879707.23949 -27157636.45249  17631354.3964   17631360.3014
  20082758.054    -2597904.24849  -2020283.89849  20082752.1604   20082760.8984
  16480389.876   -24633764.83149 -19175710.76649  16480390.9694   16480396.8124
  19571243.572   -17622800.51549 -12697776.52749  19571241.3274   19571249.9224
  19426930.542   -19686249.81549 -15323946.19949  19426937.1554   19426944.6524
  17506296.431   -40876135.70649 -31779651.89249  17506299.0114   17506305.0524
 96  5 11 19  1 29.9850000  0  8  5  2  9 27  7 24 26  4
  20334097.273    -3318075.82049  -2542796.01749  20334096.4394   20334106.2424
  17914874.115   -17014158.38549 -13247848.67949  17914875.9114   17914882.5744
  17599561.528   -35046770.31949 -27287815.44849  17599563.2574   17599569.3014
  20085989.207    -2580836.59849  -2006984.56249  20086000.7704   20086010.0614
  16470039.781   -24688148.29049 -19218087.49049  16470042.1344   16470048.4024
  19531858.536   -17829760.04349 -12859043.62449  19531858.6514   19531866.4394
  19420559.780   -19719766.08149 -15350062.81949  19420558.7564   19420567.2414
  17472644.000   -41052982.82849 -31917454.80649  17472645.5434   17472652.0684
 96  5 11 19  1 59.9850000  0  8  5  2  9 27  7 24 26  4
  20299570.474    -3499505.18349  -2684169.44349  20299572.8764   20299580.2274
  17905355.353   -17064188.12849 -13286832.91249  17905355.3354   17905361.9894
  17567799.660   -35213677.82249 -27417873.22049  17567801.7794   17567807.8974
  20089226.787    -2563862.23749  -1993757.91949  20089230.4564   20089239.4254
  16459708.638   -24742446.16549 -19260397.52349  16459709.6934   16459715.6904
  19492448.764   -18036827.97549 -13020395.20149  19492454.4774   19492463.3124
  19414182.557   -19753253.63349 -15376157.05949  19414187.3714   19414194.4394
  17439027.203   -41229634.51049 -32055105.43249  17439030.2154   17439036.3734
 96  5 11 19  2 29.9850000  0  8  5  2  9 27  7 24 26  4
  20265015.417    -3681081.16249  -2825657.10649  20265018.4344   20265028.2484
  17895844.538   -17114167.65349 -13325778.02949  17895844.8124   17895851.5164
  17536082.715   -35380352.52349 -27547749.59749  17536084.7654   17536091.0924
  20092459.467    -2546918.53149  -1980555.19549  20092454.7804   20092464.2654
  16449400.737   -24796608.93949 -19302602.29049  16449402.7114   16449409.0514
  19453043.371   -18243947.68449 -13181787.11349  19453041.2484   19453049.1754
  19407827.497   -19786656.61949 -15402185.40149  19407830.3404   19407838.1164
  17405462.932   -41406023.63849 -32192551.46849  17405464.3574   17405470.7954
 96  5 11 19  2 59.9850000  0  8  5  2  9 27  7 24 26  4
  20230438.011    -3862804.16949  -2967259.34649  20230438.5834   20230447.1744
  17886345.207   -17164087.12049 -13364676.34049  17886345.6414   17886352.7094
  17504409.120   -35546800.34549 -27677449.17149  17504410.9594   17504416.9494
  20095669.881    -2530002.73649  -1967374.20049  20095674.3004   20095683.2644
  16439117.872   -24850642.89849 -19344706.67649  16439120.3844   16439126.6804
  19413611.408   -18451115.66149 -13343216.65649  19413619.0354   19413626.7584
  19401487.439   -19819968.51449 -15428142.76649  19401491.6074   19401499.5214
  17371949.175   -41582137.63249 -32329783.11349  17371950.9124   17371957.2324
 96  5 11 19  3 29.9850000  0  8  5  2  9 27  7 24 26  4
  20195811.904    -4044764.86549  -3109046.83049  20195812.6534   20195821.1254
  17876836.634   -17214045.93749 -13403605.30949  17876838.0384   17876845.1834
  17472761.829   -35713110.27049 -27807041.30249  17472763.0464   17472769.0174
  20098868.058    -2513211.71849  -1954290.44749  20098869.4964   20098878.2034
  16428841.181   -24904646.49249 -19386787.40249  16428843.8804   16428850.1264
  19374169.955   -18658427.20149 -13504758.05349  19374168.0994   19374177.0464
  19395150.715   -19853284.24249 -15454103.12149  19395151.4384   19395160.1134
  17338473.986   -41758049.87349 -32466857.54649  17338476.0244   17338482.3494
 96  5 11 19  3 59.9850000  0  7  5  2  9  7 24 26  4
  20161162.692    -4226846.77149  -3250928.72649  20161163.4094   20161172.0044
  17867349.983   -17263906.57149 -13442457.78249  17867350.1414   17867357.2474
  17441167.844   -35879135.66849 -27936411.72049  17441169.5814   17441175.7524
  16418593.113   -24958498.60949 -19428750.09949  16418596.2734   16418602.4874
  19334709.130   -18865756.47149 -13666313.27549  19334715.1104   19334723.3214
  19388833.563   -19886469.53449 -15479961.83049  19388837.0244   19388844.8994
  17305062.787   -41933624.37749 -32603668.81249  17305065.2994   17305071.7074
 96  5 11 19  4 29.9850000  0  7  5  2  9  7 24 26  4
  20126496.763    -4409032.26949  -3392891.37149  20126495.5824   20126503.1384
  17857887.848   -17313619.32149 -13481195.00949  17857890.1054   17857897.6034
  17409638.662   -36044823.45649 -28065519.07349  17409640.1344   17409646.1914
  16408382.943   -25012157.72849 -19470562.40549  16408385.4144   16408391.3714
  19295264.069   -19073064.10249 -13827851.62049  19295265.0854   19295273.9904
  19382553.768   -19919483.63949 -15505687.16749  19382554.6354   19382562.7014
  17271721.004   -42108843.68649 -32740203.30049  17271722.2544   17271728.7124
 96  5 11 19  4 59.9850000  0  7  5  2  9  7 24 26  4
  20091809.795    -4591299.31949  -3534917.54949  20091810.3784   20091818.7734
  17848463.234   -17363141.71249 -13519783.91649  17848466.1064   17848473.7444
  17378178.179   -36210145.59349 -28194341.50549  17378180.2094   17378186.3174
  16398213.108   -25065599.68749 -19512205.49949  16398215.7754   16398221.8134
  19255822.657   -19280328.81949 -13989356.53649  19255823.9244   19255832.7764
  19376305.004   -19952314.97549 -15531270.06449  19376307.0384   19376315.1314
  17238446.751   -42283692.90449 -32876449.40949  17238449.3864   17238455.8074
 96  5 11 19  5 29.9850000  0  7  5  2  9  7 24 26  4
  20057109.431    -4773647.91549  -3677007.26949  20057110.8454   20057119.0864
  17839076.159   -17412475.67949 -13558225.98649  17839077.9534   17839085.6314
  17346790.113   -36375091.45949 -28322870.73149  17346792.2894   17346798.2404
  16388085.794   -25118825.04849 -19553679.81549  16388086.8924   16388092.7674
  19216387.148   -19487543.41549 -14150822.40149  19216392.0564   19216399.9904
  19370091.263   -19984985.74049 -15556727.85249  19370090.3364   19370098.0504
  17205242.621   -42458189.73249 -33012420.92249  17205243.7784   17205249.8384
 96  5 11 19  5 59.9850000  0  7  5  2  9  7 24 26  4
  20022394.319    -4956077.43649  -3819160.05249  20022395.3314   20022403.3384
  17829725.965   -17461617.24549 -13596518.14149  17829726.9244   17829734.4694
  17315473.120   -36539671.87049 -28451115.19749  17315473.3924   17315479.9974
  16377998.309   -25171835.64049 -19594986.78049  16377999.6624   16378005.4664
  19176966.675   -19694719.55549 -14312258.28749  19176968.4694   19176975.2614
  19363895.013   -20017511.13549 -15582072.36349  19363901.4834   19363909.1864
  17172097.591   -42632352.50549 -33148132.13949  17172101.6504   17172107.9504
 96  5 11 19  6 29.9850000  0  7  5  2  9  7 24 26  4
  19987662.760    -5138572.27949  -3961363.73749  19987667.1344   19987675.9974
  17820410.333   -17510580.90549 -13634671.66749  17820410.2864   17820416.6304
  17284218.383   -36703901.40849 -28579086.25149  17284221.3244   17284227.6674
  16367952.074   -25224626.77249 -19636122.73249  16367953.9044   16367959.8934
  19137549.592   -19901850.89849 -14473659.27149  19137551.7274   19137560.8944
  19357734.925   -20049904.07949 -15607313.67349  19357736.5274   19357744.9744
  17139022.959   -42806174.54949 -33283577.84049  17139024.4794   17139030.3384
 96  5 11 19  6 59.9850000  0  7  5  2  9  7 24 26  4
  19952930.620    -5321108.71249  -4103599.81149  19952932.1514   19952940.4574
  17811126.890   -17559359.97449 -13672681.35949  17811128.1474   17811134.2614
  17253034.018   -36867785.35849 -28706788.01549  17253035.1134   17253041.6354
  16357950.373   -25277185.99449 -19677077.97249  16357952.1344   16357958.1344
  19098147.818   -20108928.33549 -14635018.24449  19098146.7104   19098154.4694
  19351592.944   -20082162.68149 -15632450.27949  19351598.4624   19351605.9224
  17106018.878   -42979616.25049 -33418727.17249  17106019.3074   17106025.8044
 96  5 11 19  7 29.9850000  0  7  5  2  9  7 24 26  4
  19918193.668    -5503657.15549  -4245845.26749  19918193.8724   19918202.3044
  17801877.708   -17607943.53049 -13710538.70549  17801882.2694   17801888.7864
  17221915.835   -37031309.28049 -28834209.23849  17221917.8374   17221924.0494
  16347999.791   -25329479.92949 -19717826.49949  16348000.9124   16348007.0814
  19058753.770   -20315913.15149 -14796305.04449  19058758.9494   19058766.5854
  19345489.528   -20114252.60949 -15657455.45349  19345491.7524   19345499.2124
  17073092.447   -43152641.67049 -33553552.13649  17073094.0334   17073099.9674
 96  5 11 19  7 59.9840000  0  7  5  2  9  7 24 26  4
  19883440.352    -5686285.34849  -4388152.85549  19883440.9774   19883449.2334
  17792657.491   -17656407.48549 -13748302.83949  17792661.2414   17792667.6454
  17190858.805   -37194531.34649 -28961395.24749  17190858.4344   17190863.4874
  16338084.096   -25381592.26249 -19758433.50349  16338084.6034   16338090.0794
  19019366.994   -20522879.30449 -14957577.29949  19019374.3384   19019381.9484
  19339402.251   -20146248.05649 -15682387.00349  19339402.8794   19339411.2564
  17040235.630   -43325305.08549 -33688095.02249  17040237.5354   17040243.1114
 96  5 11 19  8 29.9840000  0  7  5  2  9  7 24 26  4
  19848685.988    -5868920.23749  -4530465.66249  19848686.6714   19848694.7774
  17783479.241   -17704661.57749 -13785903.47049  17783478.1684   17783484.3474
  17159872.769   -37357351.04149 -29088267.71849  17159874.6634   17159880.1764
  16328215.821   -25433451.59249 -19798843.38749  16328216.3954   16328221.6814
  18980013.366   -20729733.09749 -15118762.00449  18980011.8804   18980018.6214
  19333353.371   -20178061.13049 -15707176.48749  19333349.0974   19333357.5494
  17007465.057   -43497517.74149 -33822286.66849  17007466.7244   17007471.8184
 96  5 11 19  8 59.9840000  0  7  5  2  9  7 24 26  4
  19813923.450    -6051592.68149  -4672807.71849  19813924.7294   19813933.2214
  17774328.969   -17752730.76949 -13823360.01149  17774330.8934   17774337.4364
  17128965.884   -37519780.11549 -29214835.82149  17128965.4924   17128971.1334
  16318386.560   -25485105.39149 -19839093.10449  16318386.6764   16318392.5974
  18940664.047   -20936502.12749 -15279880.67549  18940664.6684   18940672.7054
  19327318.780   -20209723.74149 -15731848.69149  19327324.7814   19327332.7254
  16974774.496   -43669308.43449 -33956149.51749  16974775.8974   16974781.4204
 96  5 11 19  9 29.9840000  0  7  5  2  9  7 24 26  4
  19779162.019    -6234273.57749  -4815156.39149  19779161.7324   19779171.2314
  17765224.726   -17800580.94549 -13860645.89949  17765224.6374   17765232.3014
  17098138.996   -37681763.19949 -29341056.39149  17098140.9144   17098146.5894
  16308599.601   -25536530.49949 -19879164.62549  16308600.7964   16308606.9274
  18901341.651   -21143144.78849 -15440900.86149  18901341.6094   18901349.5524
  19321326.876   -20241208.00349 -15756381.93649  19321333.4734   19321341.5014
  16942166.226   -43840653.66349 -34089665.24449  16942169.5684   16942175.5184
 96  5 11 19  9 59.9840000  0  7  5  2  9  7 24 26  4
  19744445.086    -6416703.85049  -4957309.77949  19744447.1434   19744455.8044
  17756212.026   -17847933.14549 -13897543.75449  17756214.2804   17756221.4204
  17067452.993   -37843022.82949 -29466713.22749  17067454.2804   17067459.9504
  16298908.207   -25587458.43749 -19918848.74049  16298909.5494   16298915.5314
  18862093.001   -21349395.63849 -15601615.75349  18862093.3974   18862101.3434
  19315424.389   -20272245.68049 -15780567.18749  19315427.5184   19315435.2914
  16909699.838   -44011276.47649 -34222618.04749  16909701.4714   16909707.2784
 96  5 11 19 10 29.9840000  0  7  5  2  9  7 24 26  4
  19709743.133    -6599068.79549  -5099412.21849  19709745.0014   19709753.3784
  17747261.286   -17894971.67249 -13934197.17549  17747262.9104   17747270.0494
  17036867.097   -38003754.80649 -29591958.90549  17036868.1514   17036873.9814
  16289277.157   -25638064.68149 -19958282.18549  16289279.9374   16289285.6984
  18822880.089   -21555434.57049 -15762165.50249  18822885.5324   18822893.0504
  19309571.257   -20303010.18449 -15804539.58049  19309572.8314   19309581.0684
  16877330.994   -44181368.50049 -34355157.26349  16877333.9754   16877339.8344
 96  5 11 19 10 59.9840000  0  7  5  2  9  7 24 26  4
  19674960.368    -6781854.55649  -5241842.58949  19674960.9094   19674969.8854
  17738274.034   -17942196.72349 -13970995.95349  17738276.6404   17738282.9514
  17006283.676   -38164464.96649 -29717187.58249  17006285.6934   17006291.5154
  16279618.565   -25688826.77949 -19997837.06749  16279619.9954   16279625.9274
  18783626.167   -21761758.53849 -15922937.36849  18783623.8464   18783630.9124
  19303676.143   -20334004.56949 -15828691.10149  19303674.6134   19303682.7224
  16844969.829   -44351429.41349 -34487672.22749  16844972.1244   16844978.0564
 96  5 11 19 11 29.9840000  0  7  5  2  9  7 24 26  4
  19640094.309    -6965072.02449  -5384609.35249  19640095.8964   19640103.5934
  17729254.976   -17989598.98649 -14007932.81249  17729255.9534   17729262.7794
  16975703.940   -38325165.55349 -29842408.80249  16975705.3124   16975711.5434
  16269930.583   -25739735.13949 -20037505.92949  16269932.4504   16269938.4234
  18744307.448   -21968362.00849 -16083927.02649  18744308.4374   18744315.7954
  19297728.443   -20365233.60549 -15853025.47149  19297731.6244   19297740.2804
  16812614.899   -44521465.71149 -34620168.01649  16812615.4694   16812621.4904
 96  5 11 19 11 59.9840000  0  7  5  2  9  7 24 26  4
  19605195.133    -7148455.29349  -5527505.30849  19605197.5784   19605207.9344
  17720252.561   -18036905.03649 -14044794.69849  17720253.9684   17720261.4144
  16945175.650   -38485593.20149 -29967417.34849  16945177.0994   16945182.8224
  16260265.603   -25790531.87449 -20077087.80849  16260265.9834   16260272.3044
  18704989.095   -22174972.51649 -16244922.17449  18704991.5334   18704999.5284
  19291796.410   -20396420.48349 -15877327.00049  19291797.7224   19291806.1834
  16780312.134   -44691214.11949 -34752439.47249  16780313.3924   16780319.6954
 96  5 11 19 12 29.9840000  0  7  5  2  9  7 24 26  4
  19570310.488    -7331793.94649  -5670366.53849  19570310.4824   19570318.4184
  17711305.418   -18083918.38149 -14081428.51249  17711307.8254   17711315.1564
  16914738.993   -38645541.07049 -30092052.03849  16914739.8124   16914745.8224
  16250654.982   -25841026.39149 -20116434.19249  16250657.1674   16250663.2834
  18665712.562   -22381388.20049 -16405765.50149  18665712.3384   18665719.3854
  19285902.398   -20427376.58449 -15901448.70249  19285906.7984   19285915.4334
  16748101.311   -44860475.98249 -34884331.81049  16748104.0174   16748109.8524
 96  5 11 19 12 59.9840000  0  7  5  2  9  7 24 26  4
  19535391.486    -7515279.34949  -5813342.07649  19535394.6694   19535401.9434
  17702379.745   -18130824.24649 -14117978.56649  17702382.2264   17702389.0784
  16884359.221   -38805190.12349 -30216453.88549  16884359.8164   16884365.7334
  16241070.807   -25891395.60649 -20155682.94449  16241072.2434   16241078.4604
  18626432.746   -22587789.65949 -16566597.76249  18626435.0954   18626442.2004
  19280018.077   -20458292.93149 -15925539.41349  19280023.3504   19280032.0834
  16715952.100   -45029419.25149 -35015975.89249  16715954.9794   16715961.0124
 96  5 11 19 13 29.9840000  0  7  5  2  9  7 24 26  4
  19500477.381    -7698744.67149  -5956301.95349  19500481.4184   19500490.4634
  17693508.237   -18177454.06249 -14154313.53149  17693508.6164   17693515.9464
  16854067.436   -38964364.76749 -30340486.05649  16854069.6414   16854075.4994
  16231540.092   -25941480.41849 -20194710.07749  16231541.3014   16231547.4734
  18587193.478   -22793993.40849 -16727275.95949  18587195.2484   18587203.7354
  19274182.180   -20488989.57149 -15949458.94149  19274181.4824   19274190.9844
  16683901.204   -45197855.58049 -35147224.95749  16683902.7254   16683908.9304
 96  5 11 19 13 59.9840000  0  7  5  2  9  7 24 26  4
  19465570.873    -7882199.57249  -6099253.75449  19465571.8644   19465580.5654
  17684679.597   -18223841.65249 -14190459.76049  17684681.2434   17684687.8914
  16823867.531   -39123070.47249 -30464152.82449  16823868.7724   16823874.5404
  16222059.101   -25991304.62549 -20233534.13849  16222060.3174   16222066.1904
  18547988.153   -23000023.02349 -16887818.45549  18547988.9744   18547996.7214
  19268374.527   -20519505.20149 -15973237.42949  19268375.3204   19268383.7764
  16651941.571   -45365799.31349 -35278090.17249  16651943.8544   16651949.9964
 96  5 11 19 14 29.9840000  0  7  5  2  9  7 24 26  4
  19430648.764    -8065707.14249  -6242246.58149  19430650.8604   19430659.2214
  17675883.087   -18270067.97349 -14226480.30449  17675884.7884   17675892.0124
  16793740.793   -39281388.74949 -30587517.70149  16793742.1634   16793747.9174
  16212618.092   -26040919.10649 -20272194.78449  16212618.8824   16212625.1994
  18508800.877   -23205948.28549 -17048279.65949  18508803.2524   18508809.9364
  19262586.260   -20549931.85749 -15996946.55949  19262585.4444   19262593.6164
  16620066.159   -45533307.50749 -35408616.01249  16620068.0824   16620074.2984
 96  5 11 19 14 59.9840000  0  7  5  2  9  7 24 26  4
  19395729.771    -8249208.87749  -6385234.85249  19395732.2624   19395740.4344
  17667131.002   -18316060.65849 -14262318.80049  17667132.9024   17667140.4524
  16763697.612   -39439269.27049 -30710541.46649  16763698.2544   16763704.1944
  16203223.776   -26090271.47549 -20310651.18749  16203227.2414   16203233.9144
  18469647.799   -23411695.25849 -17208601.91449  18469650.8344   18469657.5354
  19256822.997   -20580205.41049 -16020536.40049  19256824.4204   19256832.5174
  16588283.786   -45700327.24249 -35538761.23449  16588285.4164   16588291.4904
 96  5 11 19 15 29.9830000  0  7  5  2  9  7 24 26  4
  19360803.312    -8432756.50549  -6528258.89649  19360803.7614   19360812.3054
  17658412.882   -18361879.31149 -14298021.68649  17658413.3684   17658421.6104
  16733728.586   -39596754.34449 -30833257.09249  16733730.0434   16733736.1224
  16193869.830   -26139445.62349 -20348968.71549  16193869.7384   16193875.9394
  18430519.564   -23617311.32849 -17368822.15849  18430522.8954   18430530.7224
  19251075.642   -20610399.82849 -16044064.60149  19251078.6464   19251087.1944
  16556579.714   -45866929.13249 -35668580.85949  16556581.8564   16556588.0444
 96  5 11 19 15 59.9830000  0  7  5  2  9  7 24 26  4
  19325879.193    -8616284.64649  -6671267.75249  19325880.7034   19325889.0754
  17649740.406   -18407446.67049 -14333528.75949  17649742.2294   17649750.0334
  16703848.790   -39753776.83649 -30955612.27249  16703849.7654   16703855.6094
  16184558.448   -26188367.52749 -20387089.69449  16184560.2744   16184566.3334
  18391428.311   -23822746.58749 -17528901.53449  18391429.6854   18391437.9784
  19245358.394   -20640448.56749 -16067479.26649  19245360.4494   19245368.5624
  16524966.107   -46033062.52049 -35798035.42149  16524967.7704   16524974.0264
 96  5 11 19 16 29.9830000  0  7  5  2  9  7 24 26  4
  19290942.681    -8799869.23949  -6814320.58949  19290944.6484   19290952.5684
  17641106.179   -18452830.58249 -14368892.88949  17641105.9714   17641113.8294
  16674039.546   -39910421.04149 -31077672.67449  16674040.9704   16674047.3214
  16175280.249   -26237127.29549 -20425084.32249  16175281.6774   16175287.5994
  18352358.356   -24028074.33449 -17688897.11549  18352356.9434   18352365.4414
  19239659.275   -20670399.67049 -16090817.85449  19239660.7894   19239668.9674
  16493426.884   -46198798.55049 -35927180.34749  16493429.0124   16493435.2804
 96  5 11 19 16 59.9830000  0  7  5  2  9  7 24 26  4
  19256020.126    -8983381.20649  -6957316.87049  19256022.5104   19256031.8084
  17632532.986   -18497892.23549 -14404005.90549  17632532.0114   17632538.1864
  16644331.623   -40066540.23949 -31199323.98749  16644332.8864   16644338.8024
  16166053.844   -26285607.40849 -20462861.04349  16166056.4114   16166062.5594
  18313326.423   -24233158.68849 -17848703.04049  18313330.4544   18313338.3864
  19234004.526   -20700110.77549 -16113969.43649  19234007.5004   19234015.4014
  16461989.272   -46364007.52549 -36055914.58849  16461990.9754   16461997.2524
 96  5 11 19 17 29.9830000  0  7  5  2  9  7 24 26  4
  19221080.815    -9167004.47149  -7100399.83749  19221080.0574   19221088.8234
  17623980.344   -18542835.34749 -14439026.55649  17623979.1794   17623986.6074
  16614688.974   -40222310.94449 -31320703.74549  16614690.6774   16614696.6744
  16156850.419   -26333978.14649 -20500552.53549  16156851.7254   16156857.8254
  18274310.237   -24438192.01849 -18008469.21249  18274314.1514   18274321.8054
  19228361.711   -20729774.48449 -16137084.07649  19228362.5174   19228371.1594
  16430618.814   -46528858.63149 -36184369.97149  16430621.0144   16430627.3594
 96  5 11 19 17 59.9830000  0  7  5  2  9  7 24 26  4
  19186137.300    -9350634.38849  -7243488.00449  19186136.9254   19186145.0714
  17615467.515   -18587556.47749 -14473874.22749  17615468.7944   17615476.1454
  16585130.152   -40377645.79549 -31441743.87949  16585131.5734   16585137.4044
  16147688.402   -26382128.87249 -20538072.58749  16147688.6814   16147694.7494
  18235324.156   -24643083.34749 -18168124.72549  18235324.3584   18235332.7234
  19222745.945   -20759288.68149 -16160082.22149  19222746.3794   19222754.6064
  16399338.672   -46693237.29649 -36312457.21149  16399341.0224   16399346.9314
 96  5 11 19 18 29.9830000  0  7  5  2  9  7 24 26  4
  19151200.108    -9534220.94449  -7386542.38249  19151201.9244   19151210.2654
  17607007.321   -18632010.31749 -14508513.63149  17607009.5584   17607017.7204
  16555663.344   -40532491.95949 -31562403.21449  16555665.2014   16555671.0974
  16138576.095   -26430010.65649 -20575383.08049  16138576.9764   16138583.1904
  18196369.883   -24847768.75149 -18327619.78449  18196373.9194   18196382.3104
  19217166.808   -20788606.43349 -16182927.28449  19217167.6834   19217175.2254
  16368161.716   -46857076.96249 -36440124.46249  16368163.4054   16368168.9264
 96  5 11 19 18 59.9830000  0  7  5  2  9  7 24 26  4
  19116269.863    -9717778.68749  -7529574.30049  19116271.8514   19116280.8674
  17598596.525   -18676216.01849 -14542959.66249  17598597.5144   17598605.1964
  16526291.882   -40686842.04449 -31682675.99549  16526293.4684   16526299.2604
  16129514.967   -26477620.62549 -20612481.76149  16129517.5154   16129523.5314
  18157463.127   -25052244.65749 -18486951.59349  18157463.3744   18157472.6024
  19211619.224   -20817769.39249 -16205651.72549  19211618.0814   19211625.9344
  16337084.252   -47020383.79049 -36567376.50949  16337086.9854   16337092.6554
 96  5 11 19 19 29.9830000  0  7  5  2  9  7 24 26  4
  19081330.266    -9901379.04349  -7672639.44449  19081333.5474   19081342.4724
  17590217.623   -18720249.22949 -14577271.30349  17590218.4164   17590225.5424
  16497002.030   -40840762.60949 -31802614.08549  16497003.4554   16497009.1584
  16120495.893   -26525028.52849 -20649422.99149  16120496.0254   16120502.1164
  18118572.450   -25256594.99049 -18646185.55049  18118577.4634   18118585.5704
  19206078.196   -20846863.13749 -16228322.24049  19206081.2914   19206089.8504
  16306096.004   -47183226.72849 -36694267.08749  16306098.8954   16306104.9404
 96  5 11 19 19 59.9830000  0  7  5  2  9  7 24 26  4
  19046420.431   -10084827.89749  -7815586.52249  19046423.2164   19046432.9114
  17581907.595   -18763906.55449 -14611290.03849  17581910.5524   17581917.9044
  16467829.815   -40994060.18549 -31922066.72549  16467831.3304   16467837.2704
  16111542.778   -26572066.79349 -20686076.18849  16111544.9954   16111550.9024
  18079744.281   -25460625.92449 -18805170.62449  18079751.5454   18079759.0664
  19200594.487   -20875698.66949 -16250791.55349  19200594.7464   19200601.5374
  16275231.243   -47345428.49249 -36820658.04449  16275232.9924   16275238.4054
 96  5 11 19 20 29.9830000  0  7  5  2  9  7 24 26  4
  19011532.498   -10268192.68249  -7958468.11349  19011532.0404   19011540.1234
  17573657.666   -18807254.02149 -14645067.33049  17573661.6184   17573669.0244
  16438767.618   -41146785.13849 -32041073.17149  16438769.0274   16438775.0224
  16102649.344   -26618807.02549 -20722497.14649  16102650.8054   16102656.6344
  18040976.650   -25664385.56349 -18963944.30649  18040977.0944   18040985.2774
  19195139.975   -20904344.92549 -16273113.35949  19195143.5304   19195151.4194
  16244474.404   -47507050.16649 -36946596.98349  16244477.1854   16244483.0164
 96  5 11 19 20 59.9830000  0  7  5  2  9  7 24 26  4
  18976648.798   -10451498.61249  -8101303.82049  18976649.9244   18976657.4554
  17565469.007   -18850308.21849 -14678616.09949  17565469.3664   17565476.1594
  16409810.865   -41298956.55749 -32159648.28849  16409811.7934   16409817.4604
  16093807.611   -26665273.92549 -20758705.12849  16093808.3924   16093814.5264
  18002245.356   -25867903.63349 -19122529.74949  18002249.4324   18002256.9544
  19189723.247   -20932827.52749 -16295307.65449  19189723.9974   19189730.4874
  16213825.579   -47668124.65749 -37072109.55349  16213825.5524   16213831.7084
 96  5 11 19 21 29.9830000  0  7  5  2  9  7 24 26  4
  18941776.800   -10634760.38049  -8244105.11349  18941776.1204   18941783.3744
  17557327.753   -18893090.15549 -14711952.72449  17557328.4204   17557335.3584
  16380953.207   -41450604.78249 -32277815.72749  16380954.0164   16380959.9904
  16085011.741   -26711495.51249 -20794721.95849  16085013.0274   16085018.7314
  17963564.798   -26071201.86049 -19280943.89449  17963563.0844   17963569.8804
  19184332.275   -20961147.55649 -16317375.27049  19184333.5124   19184342.7674
  16183273.622   -47828668.69749 -37197208.78749  16183275.3194   16183281.0244
 96  5 11 19 21 59.9830000  0  7  5  2  9  7 24 26  4
  18906874.889   -10818165.77049  -8387018.32749  18906874.9994   18906881.8844
  17549198.823   -18935785.54149 -14745221.89049  17549203.1424   17549210.5194
  16352157.605   -41601924.29649 -32395727.02349  16352159.0614   16352164.6554
  16076225.253   -26757661.14149 -20830695.18349  16076227.6304   16076233.7614
  17924887.615   -26274447.28249 -19439316.88849  17924886.1084   17924893.6414
  19178942.002   -20989482.49049 -16339454.50349  19178942.6824   19178950.1424
  16152788.926   -47988863.78249 -37322036.09749  16152791.3314   16152797.0184
 96  5 11 19 22 29.9830000  0  7  5  2  9  7 24 26  4
  18871962.858   -11001624.07549  -8529972.78149  18871964.7114   18871971.7514
  17541113.449   -18978299.71449 -14778349.86449  17541113.7294   17541120.1484
  16323443.983   -41752813.18449 -32513302.77349  16323445.7384   16323451.5004
  16067474.574   -26803650.81549 -20866531.30249  16067476.1504   16067482.3494
  17886238.028   -26477535.26149 -19597567.20149  17886240.2204   17886247.7294
  19173568.703   -21017723.64449 -16361460.68149  19173568.8584   19173577.1414
  16122393.267   -48148599.45449 -37446505.43249  16122394.6664   16122400.3334
 96  5 11 19 22 59.9830000  0  7  5  2  9  7 24 26  4
  18837065.048   -11185007.43849  -8672868.82149  18837067.7404   18837074.8944
  17533080.062   -19020512.24449 -14811242.78349  17533080.8754   17533088.5704
  16294835.795   -41903157.61549 -32630454.27149  16294836.4664   16294842.1764
  16058780.222   -26849342.23549 -20902135.01749  16058781.3034   16058787.5624
  17847643.728   -26680343.56349 -19755599.59049  17847646.6934   17847654.0744
  19168236.543   -21045741.38349 -16383292.73249  19168237.3314   19168245.3874
  16092107.690   -48307749.09749 -37570518.11649  16092109.2894   16092114.8964
 96  5 11 19 23 29.9820000  0  7  5  2  9  7 24 26  4
  18802192.414   -11368285.15249  -8815682.53849  18802190.7394   18802198.2074
  17525105.250   -19062407.68549 -14843888.61449  17525107.6464   17525116.0464
  16266329.372   -42052950.70649 -32747176.14949  16266331.2364   16266337.3874
  16050144.989   -26894724.44649 -20937497.78949  16050145.5354   16050151.4174
  17809113.807   -26882836.25249 -19913386.04549  17809113.5234   17809120.9154
  19162946.576   -21073523.77649 -16404941.42149  19162951.0644   19162958.4524
  16061938.593   -48466286.87849 -37694054.03149  16061940.6754   16061946.0194
 96  5 11 19 23 59.9820000  0  7  5  2  9  7 24 26  4
  18767281.916   -11551732.91649  -8958628.78049  18767281.8404   18767288.6064
  17517147.581   -19104240.12849 -14876485.36449  17517148.3704   17517155.2544
  16237881.312   -42202449.28249 -32863668.53949  16237882.7614   16237888.7424
  16041515.957   -26940061.17449 -20972825.11949  16041518.0364   16041524.2684
  17770592.104   -27085273.72349 -20071129.47249  17770590.6904   17770598.5054
  19157648.564   -21101352.16449 -16426625.95349  19157654.8194   19157662.0824
  16031831.570   -48624489.02349 -37817328.41349  16031835.7204   16031841.5024
 96  5 11 19 24 29.9820000  0  7  5  2  9  7 24 26  4
  18732359.278   -11735237.02249  -9101618.88849  18732361.6064   18732369.7974
  17509220.774   -19145895.06649 -14908943.79849  17509221.7854   17509228.8364
  16209510.498   -42351538.45849 -32979841.91349  16209512.0794   16209518.0924
  16032920.850   -26985242.04449 -21008030.99949  16032920.2864   16032926.7294
  17732096.095   -27287544.78349 -20228743.22449  17732099.3354   17732107.1204
  19152368.694   -21129125.12249 -16448267.29149  19152369.0394   19152378.9574
  16001813.595   -48782243.76549 -37940254.16449  16001815.9864   16001821.8954
 96  5 11 19 24 59.9820000  0  7  5  2  9  7 24 26  4
  18697475.359   -11918561.22249  -9244468.82249  18697476.4614   18697484.4534
  17501371.741   -19187136.52749 -14941080.05049  17501373.0184   17501380.5144
  16181262.065   -42499989.17149 -33095517.78449  16181262.6144   16181268.5274
  16024392.329   -27030046.53149 -21042943.60549  16024394.5254   16024400.7334
  17693681.724   -27489418.08249 -20386047.04149  17693684.6164   17693692.1774
  19147130.522   -21156635.92749 -16469704.34049  19147135.4204   19147143.2414
  15971923.872   -48939320.87249 -38062651.89149  15971924.9504   15971931.1114
 96  5 11 19 25 29.9820000  0  7  5  2  9  7 24 26  4
  18662545.759   -12102133.33249  -9387511.94049  18662544.3084   18662551.2834
  17493523.155   -19228391.63649 -14973226.92349  17493522.5314   17493530.8424
  16153057.847   -42648204.82749 -33211010.49449  16153058.3114   16153064.0884
  16015857.336   -27074896.12649 -21077891.35049  16015859.8454   16015866.2684
  17655256.540   -27691333.11349 -20543383.37649  17655261.8244   17655269.1404
  19141860.217   -21184326.53249 -16491281.50049  19141865.4374   19141874.2894
  15942079.855   -49096147.70449 -38184854.59349  15942082.0384   15942087.9404
 96  5 11 19 25 59.9820000  0  7  5  2  9  7 24 26  4
  18627640.315   -12285535.60049  -9530422.73949  18627643.2444   18627650.9624
  17485747.009   -19269236.90449 -15005054.45649  17485749.6364   17485757.2724
  16124980.519   -42795743.14949 -33325975.41349  16124982.6304   16124988.8984
  16007394.063   -27119374.77049 -21112550.04549  16007395.6834   16007402.1334
  17616904.370   -27892885.29749 -20700436.98449  17616907.2804   17616915.0964
  19136641.614   -21211784.44249 -16512677.34649  19136639.9954   19136648.5514
  15912365.810   -49252297.31649 -38306529.59549  15912367.5454   15912373.7194
 96  5 11 19 26 29.9820000  0  7  5  2  9  7 24 26  4
  18592720.846   -12469054.82749  -9673424.64949  18592721.1824   18592728.5064
  17478000.457   -19309971.00349 -15036795.34949  17477998.6804   17478005.9994
  16096975.493   -42942913.51349 -33440653.61549  16096977.2704   16096983.2714
  15998942.888   -27163789.15749 -21147158.66849  15998944.1064   15998950.1634
  17578557.210   -28094390.45349 -20857453.94449  17578561.9484   17578570.1584
  19131395.573   -21239314.25849 -16534129.21849  19131402.1304   19131409.9904
  15882725.681   -49408058.76949 -38427902.13749  15882726.9824   15882733.2464
 96  5 11 19 26 59.9820000  0  7  5  2  9  7 24 26  4
  18557785.357   -12652644.19249  -9816481.22949  18557784.8824   18557792.3784
  17470274.348   -19350561.89749 -15068424.66949  17470274.6474   17470282.2524
  16069050.211   -43089663.70449 -33555004.40549  16069051.4244   16069057.3854
  15990509.784   -27208101.89049 -21181688.08149  15990511.7184   15990517.7654
  17540234.483   -28295798.58449 -21014395.30149  17540235.6404   17540242.9144
  19126154.500   -21266877.94649 -16555607.47649  19126157.4364   19126165.5144
  15853169.306   -49563378.89949 -38548930.78549  15853170.6664   15853176.6794
 96  5 11 19 27 29.9820000  0  7  5  2  9  7 24 26  4
  18522845.874   -12836245.74349  -9959547.30249  18522846.4524   18522853.7994
  17462587.779   -19390957.61449 -15099901.90049  17462587.0284   17462595.2404
  16041215.325   -43235936.25449 -33668983.00749  16041216.3534   16041222.6074
  15982106.003   -27252260.88749 -21216097.69749  15982108.5254   15982114.6094
  17501939.322   -28497035.68349 -21171203.38149  17501941.1644   17501948.9934
  19120919.247   -21294413.26649 -16577063.63949  19120917.5704   19120924.7974
  15823706.819   -49718205.17049 -38669574.60949  15823708.0864   15823714.1684
 96  5 11 19 27 59.9820000  0  7  5  2  9  7 24 26  4
  18487953.929   -13019585.27549 -10102409.20949  18487958.8904   18487966.2394
  17454991.601   -19430875.08949 -15131006.47249  17454991.1354   17454999.5674
  16013518.320   -43381480.53049 -33782394.11949  16013520.4794   16013526.5464
  15973783.431   -27296001.49649 -21250181.30449  15973785.0534   15973791.3264
  17463735.648   -28697797.13349 -21327640.82449  17463738.0244   17463745.3994
  19115732.331   -21321637.19849 -16598277.15949  19115736.5734   19115745.2674
  15794389.100   -49872268.65349 -38789624.06149  15794390.7374   15794396.8484
 96  5 11 19 28 29.9820000  0  7  5  2  9  7 24 26  4
  18453060.166   -13202979.27549 -10245313.55249  18453059.3624   18453066.2774
  17447422.780   -19470630.29749 -15161984.59849  17447426.6154   17447433.5634
  15985901.911   -43526611.39149 -33895483.09149  15985903.0064   15985908.9804
  15965484.401   -27339618.01549 -21284168.20749  15965484.9134   15965491.3844
  17425567.591   -28898357.56749 -21483921.64449  17425572.1344   17425580.0484
  19110561.219   -21348841.18049 -16619475.12849  19110559.8544   19110567.6474
  15765159.830   -50025866.90049 -38909310.98449  15765162.0004   15765168.2434
 96  5 11 19 28 59.9820000  0  7  5  2  9  7 24 26  4
  18418177.975   -13386276.62549 -10388142.58449  18418178.5144   18418186.2704
  17439924.086   -19510051.54549 -15192702.50449  17439924.6564   17439932.2754
  15958397.378   -43671146.10049 -34008107.53649  15958398.8964   15958405.1924
  15957239.563   -27382941.76449 -21317926.98849  15957240.8984   15957247.1714
  17387480.355   -29098528.05849 -21639898.60149  17387481.4444   17387488.1304
  19105418.995   -21375840.81949 -16640513.89649  19105421.9574   19105430.4954
  15736052.890   -50178827.05449 -39028500.70149  15736054.5144   15736060.5024
 96  5 11 19 29 29.9820000  0  7  5  2  9  7 24 26  4
  18383273.288   -13569690.31749 -10531062.29849  18383276.4544   18383284.2914
  17432449.284   -19549335.63549 -15223313.54549  17432448.8104   17432456.9434
  15930965.891   -43815300.14549 -34120435.35849  15930967.2524   15930973.3604
  15949009.781   -27426185.64949 -21351623.52949  15949011.8054   15949018.1414
  17349420.017   -29298531.07549 -21795745.06749  17349422.4434   17349429.5224
  19100285.306   -21402843.80649 -16661555.25749  19100283.4074   19100292.0544
  15707025.211   -50331371.78449 -39147366.70049  15707026.2814   15707032.0824
 96  5 11 19 29 59.9820000  0  7  5  2  9  7 24 26  4
  18348380.329   -13753057.86549 -10673946.03849  18348383.2614   18348390.4864
  17425032.339   -19588307.73449 -15253681.45549  17425033.0494   17425040.6994
  15903639.782   -43958897.39249 -34232329.30649  15903641.6524   15903647.8324
  15940831.241   -27469173.30849 -21385120.41849  15940831.6174   15940837.8454
  17311423.943   -29498211.32949 -21951340.02549  17311424.6034   17311431.0874
  19095174.640   -21429677.49049 -16682464.67949  19095178.1894   19095186.2364
  15678109.774   -50483318.02549 -39265766.34849  15678111.7984   15678117.8484
 96  5 11 19 30 29.9820000  0  7  5  2  9  7 24 26  4
  18313464.133   -13936560.87149 -10816935.34549  18313463.5064   18313470.2814
  17417642.242   -19627150.61549 -15283948.67949  17417641.5654   17417649.4094
  15876389.655   -44102101.64249 -34343917.02749  15876390.8214   15876396.7994
  15932665.228   -27512082.33349 -21418556.03049  15932666.1434   15932672.3504
  17273447.658   -29697771.31349 -22106841.26449  17273449.4744   17273456.6934
  19090062.026   -21456533.08749 -16703391.20149  19090066.8284   19090075.2304
  15649275.273   -50634839.48549 -39383834.99849  15649278.4984   15649284.1444
 96  5 11 19 30 59.9810000  0  7  5  2  9  7 24 26  4
  18278517.642   -14120205.38049 -10960034.88349  18278516.4174   18278524.9534
  17410272.443   -19665880.52149 -15314127.88649  17410271.1994   17410279.2044
  15849208.112   -44244939.30149 -34455219.09449  15849209.7694   15849215.7364
  15924506.407   -27554950.96849 -21451960.17449  15924508.7934   15924515.1494
  17235486.199   -29897252.67449 -22262281.25249  17235488.8544   17235496.1984
  19084937.329   -21483460.10749 -16724373.36149  19084942.3674   19084951.7054
  15620516.712   -50785975.86849 -39501603.58949  15620517.9244   15620524.0064
 96  5 11 19 31 29.9810000  0  7  5  2  9  7 24 26  4
  18243551.874   -14303945.37049 -11103208.84149  18243553.0694   18243560.2194
  17402928.776   -19704466.27049 -15344194.75049  17402929.0574   17402937.1044
  15822101.389   -44387386.59049 -34566216.98049  15822102.8004   15822108.4124
  15916366.515   -27597730.29349 -21485294.71849  15916368.0914   15916374.3184
  17197548.437   -30096629.96349 -22417640.13049  17197548.2054   17197555.9734
  19079802.069   -21510444.04749 -16745399.86849  19079807.6684   19079817.4264
  15591835.370   -50936702.98249 -39619053.26949  15591835.6674   15591841.4934
 96  5 11 19 31 59.9810000  0  7  5  2  9  7 24 26  4
  18208587.754   -14487681.33049 -11246379.63349  18208588.0004   18208595.8854
  17395629.734   -19742825.04349 -15374084.75949  17395629.4254   17395637.3434
  15795087.127   -44529345.64749 -34676834.41949  15795089.0194   15795094.8694
  15908258.972   -27640332.03849 -21518490.88949  15908261.3624   15908267.7824
  17159645.310   -30295792.65249 -22572831.80249  17159649.5564   17159656.6384
  19074678.553   -21537406.60749 -16766409.74649  19074677.6464   19074686.1204
  15563250.131   -51086907.56249 -39736095.78149  15563252.6684   15563258.5434
 96  5 11 19 32 29.9810000  0  7  5  2  9  7 24 26  4
  18173597.349   -14671556.42149 -11389658.88249  18173598.0294   18173605.9184
  17388341.638   -19781109.38449 -15403916.75249  17388344.2224   17388351.9414
  15768135.969   -44670977.33349 -34787196.76549  15768137.3284   15768143.1434
  15900156.397   -27682920.85449 -21551676.98649  15900156.7654   15900163.2024
  17121763.046   -30494885.23549 -22727968.83249  17121763.0224   17121770.0084
  19069521.315   -21564508.12749 -16787527.87449  19069520.2934   19069529.6274
  15534737.782   -51236748.17549 -39852854.68149  15534739.0524   15534744.7604
 96  5 11 19 32 59.9810000  0  7  5  2  9  7 24 26  4
  18138612.793   -14855383.22249 -11532900.47449  18138616.4784   18138625.0784
  17381106.054   -19819149.81349 -15433558.70849  17381105.7994   17381113.1724
  15741281.675   -44812101.70649 -34897163.80649  15741282.6244   15741288.2974
  15892086.503   -27725317.25249 -21584713.14649  15892088.6554   15892095.0324
  17083925.332   -30693710.77649 -22882897.78749  17083928.1624   17083935.0754
  19064362.287   -21591574.28249 -16808618.44849  19064370.1604   19064378.8694
  15506325.017   -51386051.25349 -39969194.71949  15506327.6674   15506333.1474
 96  5 11 19 33 29.9810000  0  7  5  2  9  7 24 26  4
  18103617.627   -15039295.43449 -11676208.62849  18103619.5894   18103626.0194
  17373889.063   -19857072.12949 -15463108.60549  17373889.3304   17373897.4864
  15714501.694   -44952831.58449 -35006823.44649  15714502.7154   15714508.2324
  15884032.385   -27767642.77149 -21617694.08049  15884034.6274   15884040.6374
  17046116.999   -30892389.79849 -23037712.56849  17046120.3444   17046127.4864
  19059203.090   -21618722.10649 -16829772.67849  19059203.5934   19059211.1964
  15477995.633   -51534928.00249 -40085202.55749  15477997.2194   15478002.8464
 96  5 11 19 33 59.9810000  0  7  5  2  9  7 24 26  4
  18068634.020   -15223146.91649 -11819469.45249  18068633.8974   18068640.3074
  17366720.336   -19894729.24749 -15492451.87249  17366723.6124   17366731.3514
  15687825.605   -45093014.29649 -35116056.71749  15687826.5954   15687832.2714
  15876017.292   -27809766.12749 -21650517.48049  15876018.9344   15876025.2084
  17008366.186   -31090775.20749 -23192298.56249  17008368.9744   17008376.3664
  19054049.100   -21645790.11449 -16850864.70749  19054052.2024   19054062.4234
  15449774.952   -51683228.79449 -40200761.59449  15449776.6294   15449781.9064
 96  5 11 19 34 29.9810000  0  7  5  2  9  7 24 26  4
  18033656.810   -15406955.53349 -11962696.85449  18033656.4094   18033663.0134
  17359604.322   -19932143.99949 -15521606.25049  17359603.9944   17359610.6704
  15661251.147   -45232662.66149 -35224873.61649  15661252.3874   15661258.0104
  15868037.213   -27851707.13649 -21683198.78949  15868037.9434   15868043.8944
  16970668.953   -31288882.79049 -23346668.06749  16970670.2444   16970677.4934
  19048916.505   -21672790.91949 -16871904.35949  19048914.6624   19048923.3424
  15421657.900   -51830986.37449 -40315897.35249  15421659.1644   15421664.6314
 96  5 11 19 34 59.9810000  0  7  5  2  9  7 24 26  4
  17998682.143   -15590749.47249 -12105912.83749  17998681.2884   17998688.5234
  17352525.624   -19969355.43349 -15550602.21949  17352522.3824   17352530.5684
  15634774.520   -45371795.62249 -35333288.90349  15634776.1124   15634781.8204
  15860085.001   -27893489.17649 -21715756.22549  15860087.1144   15860092.7654
  16933017.654   -31486736.64949 -23500839.85949  16933019.5774   16933026.8824
  19043784.263   -21699755.00849 -16892915.39649  19043783.3594   19043792.5864
  15393641.409   -51978209.91049 -40430616.97049  15393643.5454   15393649.1014
 96  5 11 19 35 29.9810000  0  7  5  2  9  7 24 26  4
  17963733.274   -15774397.30549 -12249014.97949  17963733.8834   17963741.3224
  17345509.876   -20006215.73149 -15579324.56749  17345508.4874   17345516.2634
  15608422.466   -45510281.38349 -35441199.88049  15608423.2514   15608429.1784
  15852188.513   -27934985.95849 -21748091.39149  15852190.6904   15852196.5514
  16895442.995   -31684190.03349 -23654699.60249  16895445.7024   16895452.8394
  19038685.413   -21726541.61749 -16913788.15049  19038685.8154   19038693.6594
  15365759.043   -52124732.99249 -40544790.77549  15365760.9284   15365766.3704
 96  5 11 19 35 59.9810000  0  7  5  2  9  7 24 26  4
  17928757.078   -15958189.45549 -12392229.57549  17928760.0364   17928766.1394
  17338498.414   -20043028.54849 -15608009.92449  17338503.8974   17338511.1234
  15582133.862   -45648420.66449 -35548840.86749  15582136.0374   15582141.8724
  15844288.529   -27976503.64149 -21780442.83449  15844290.0994   15844296.0734
  16857891.635   -31881521.60149 -23808464.41949  16857894.6734   16857901.7944
  19033564.800   -21753447.08049 -16934753.50049  19033565.9814   19033575.3844
  15337953.872   -52270851.63349 -40658649.43849  15337955.5294   15337961.0344
 96  5 11 19 36 29.9810000  0  7  5  2  9  7 24 26  4
  17893768.324   -16142072.96349 -12535515.35749  17893766.4854   17893775.2704
  17331518.205   -20079729.56449 -15636608.16149  17331519.1874   17331526.5304
  15555924.868   -45786154.46649 -35656165.90349  15555926.1874   15555932.0254
  15836396.588   -28017979.47549 -21812761.67249  15836397.4214   15836403.5194
  16820378.854   -32078662.10249 -23962080.36149  16820379.7834   16820387.1924
  19028434.294   -21780415.64649 -16955768.05149  19028435.1064   19028441.2444
  15310238.190   -52416496.23849 -40772138.71949  15310240.3444   15310245.6584
 96  5 11 19 36 59.9810000  0  7  5  2  9  7 24 26  4
  17858780.112   -16325926.19149 -12678777.54449  17858781.2024   17858788.4234
  17324580.182   -20116183.29549 -15665013.69749  17324582.5204   17324589.9224
  15529814.778   -45923366.03149 -35763084.00149  15529815.7844   15529821.4514
  15828534.914   -28059288.51749 -21844950.54549  15828536.1154   15828542.3264
  16782924.596   -32275489.73849 -24115452.50949  16782925.0344   16782931.7864
  19023307.674   -21807328.02649 -16976738.81549  19023313.0964   19023322.0184
  15282638.682   -52561531.14649 -40885152.91849  15282640.7894   15282646.7504
 96  5 11 19 37 29.9810000  0  7  5  2  9  7 24 26  4
  17823791.955   -16509794.42049 -12822051.41949  17823792.1684   17823799.8524
  17317684.186   -20152432.86149 -15693260.14349  17317684.3784   17317691.4764
  15503793.926   -46060101.03649 -35869630.74749  15503795.6994   15503801.7094
  15820695.546   -28100478.87349 -21877046.93849  15820698.1814   15820704.6824
  16745516.123   -32472059.46849 -24268623.69149  16745518.9014   16745526.3644
  19018193.768   -21834229.30249 -16997700.90449  19018194.3454   19018203.8994
  15255142.055   -52706030.69249 -40997749.94049  15255143.5044   15255149.3254
 96  5 11 19 37 59.9810000  0  7  5  2  9  7 24 26  4
  17788795.198   -16693695.47449 -12965350.86649  17788796.5184   17788804.3314
  17310817.708   -20188516.73749 -15721377.50149  17310817.9434   17310825.8254
  15477862.272   -46196376.66149 -35975819.53249  15477863.3524   15477869.2004
  15812877.016   -28141565.09749 -21909062.18349  15812879.5584   15812885.5614
  16708152.032   -32668408.52549 -24421622.91149  16708155.1594   16708161.9384
  19013076.400   -21861148.85249 -17018677.25149  19013070.6924   19013079.4804
  15227734.152   -52850050.97549 -41109973.51249  15227737.4044   15227743.1034
 96  5 11 19 38 29.9800000  0  7  5  2  9  7 24 26  4
  17753836.316   -16877405.15049 -13108501.19549  17753838.7784   17753845.2554
  17304020.992   -20224214.83849 -15749194.25649  17304024.5344   17304032.4884
  15452061.008   -46331958.73749 -36081467.90049  15452062.8934   15452068.9724
  15805122.961   -28182312.43849 -21940813.37249  15805125.6904   15805132.0584
  16670872.016   -32864325.07349 -24574285.12049  16670873.1524   16670880.4784
  19007982.253   -21887880.83849 -17039507.42749  19007983.7104   19007994.8604
  15200462.827   -52993369.16149 -41221649.99849  15200464.8274   15200470.5494
 96  5 11 19 38 59.9800000  0  7  5  2  9  7 24 26  4
  17718899.359   -17061004.03049 -13251565.20649  17718901.1094   17718907.3154
  17297289.484   -20259608.79949 -15776774.00749  17297289.1374   17297296.9114
  15426377.136   -46466927.94349 -36186638.70849  15426379.1984   15426385.2784
  15797422.962   -28222782.91249 -21972348.81749  15797424.6864   15797430.9344
  16633653.919   -33059894.86249 -24726677.12149  16633657.3544   16633664.7964
  19002915.076   -21914509.50149 -17060257.10849  19002917.6284   19002925.6074
  15173305.921   -53136080.40549 -41332853.54449  15173307.7324   15173313.4874
 96  5 11 19 39 29.9800000  0  7  5  2  9  7 24 26  4
  17683973.987   -17244542.62249 -13394582.21249  17683974.2134   17683980.9444
  17290601.619   -20294758.14349 -15804163.14549  17290600.8414   17290608.4664
  15400803.880   -46601323.72849 -36291362.69549  15400804.5234   15400810.7674
  15789763.139   -28263032.86749 -22003712.43349  15789765.2314   15789771.4204
  16596500.535   -33255159.69449 -24878831.49549  16596499.4984   16596507.0124
  18997855.665   -21941101.63149 -17080978.32949  18997856.5124   18997867.1284
  15146252.959   -53278248.06649 -41443633.52249  15146254.1144   15146259.8424
 96  5 11 19 39 59.9800000  0  7  5  2  9  7 24 26  4
  17649022.416   -17428211.65549 -13537700.88649  17649022.9534   17649030.3284
  17283929.073   -20329829.14549 -15831491.24649  17283927.0684   17283935.0604
  15375304.808   -46735317.50349 -36395773.42049  15375305.9864   15375312.2744
  15782112.219   -28303244.98249 -22035046.55249  15782113.1674   15782119.1224
  16559364.758   -33450299.08449 -25030888.12049  16559365.8874   16559373.3094
  18992769.009   -21967853.25149 -17101823.80249  18992765.8704   18992776.1124
  15119270.855   -53420034.91349 -41554116.75549  15119272.9484   15119278.7104
 96  5 11 19 40 29.9800000  0  7  5  2  9  7 24 26  4
  17614039.213   -17612050.00349 -13680951.47749  17614039.8354   17614047.0494
  17277267.617   -20364832.80949 -15858766.87449  17277265.9114   17277274.1684
  15349877.724   -46868938.10349 -36499893.36649  15349879.1304   15349885.3894
  15774458.774   -28343463.72649 -22066385.84449  15774459.8014   15774466.1994
  16522247.571   -33645338.80349 -25182867.08049  16522251.1394   16522258.5874
  18987633.976   -21994801.37449 -17122822.42749  18987638.3664   18987647.9214
  15092360.912   -53561450.31749 -41664310.55849  15092362.3904   15092368.3024
 96  5 11 19 40 59.9800000  0  7  5  2  9  7 24 26  4
  17579057.942   -17795879.36349 -13824195.07849  17579058.3174   17579065.2404
  17270650.778   -20399583.84249 -15885845.65549  17270653.2694   17270661.6234
  15324553.844   -47002012.87549 -36603587.99049  15324555.9634   15324562.3444
  15766833.450   -28383533.80049 -22097609.29349  15766834.3394   15766841.1034
  16485186.428   -33840095.03049 -25334625.13949  16485190.0824   16485197.4974
  18982503.980   -22021773.70949 -17143839.90949  18982505.7344   18982515.7764
  15065554.423   -53702316.03149 -41774076.03149  15065556.5744   15065562.5214
 96  5 11 19 41 29.9800000  0  7  5  2  9  7 24 26  4
  17544073.527   -17979700.79549 -13967432.50349  17544078.1854   17544085.7954
  17264086.236   -20434078.47249 -15912724.64949  17264089.1474   17264096.7784
  15299336.532   -47134533.07349 -36706850.48149  15299338.0104   15299344.4304
  15759229.615   -28423482.91849 -22128738.49249  15759232.4834   15759239.2294
  16448178.259   -34034578.84449 -25486170.92049  16448180.9354   16448188.3974
  18977367.863   -22048771.69649 -17164877.38749  18977369.5794   18977377.6844
  15038855.904   -53842618.08449 -41883402.28049  15038857.8424   15038863.9394
 96  5 11 19 41 59.9800000  0  7  5  2  9  7 24 26  4
  17509128.348   -18163351.65549 -14110537.00849  17509129.8144   17509138.2244
  17257599.614   -20468174.12749 -15939292.74049  17257600.9054   17257609.0274
  15274252.046   -47266356.30249 -36809569.88549  15274253.1974   15274259.1254
  15751681.987   -28463161.58749 -22159656.95349  15751681.7824   15751688.5234
  16411250.169   -34228630.50849 -25637379.97549  16411253.9054   16411261.5434
  18972254.792   -22075636.71849 -17185811.23749  18972256.2614   18972266.1254
  15012297.096   -53982183.91149 -41992154.85849  15012299.4984   15012305.1684
 96  5 11 19 42 29.9800000  0  7  5  2  9  7 24 26  4
  17474255.296   -18346619.38749 -14253342.97249  17474255.8284   17474263.3254
  17251220.268   -20501692.89849 -15965411.30849  17251222.6014   17251230.7274
  15249333.249   -47397299.13249 -36911603.25549  15249335.3544   15249341.3414
  15744217.639   -28502371.51249 -22190210.15549  15744220.4354   15744227.4094
  16374448.177   -34422033.90149 -25788083.87449  16374450.4114   16374458.1154
  18967209.531   -22102167.60749 -17206484.72149  18967208.5304   18967217.0784
  14985915.053   -54120813.23949 -42100177.69349  14985919.0614   14985925.1444
 96  5 11 19 42 59.9800000  0  7  5  2  9  7 24 26  4
  17439307.503   -18530265.35049 -14396443.67949  17439309.1924   17439316.7664
  17244801.396   -20535415.51749 -15991688.71849  17244804.9154   17244812.8434
  15224437.019   -47528131.18949 -37013550.30749  15224438.9034   15224445.1554
  15736705.311   -28541865.42749 -22220984.64649  15736705.0774   15736712.0954
  16337622.734   -34615545.97549 -25938872.45549  16337626.1734   16337633.5724
  18962075.679   -22129123.45349 -17227489.36449  18962078.4814   18962087.8094
  14959570.180   -54259267.06849 -42208063.77449  14959572.4674   14959578.2574
 96  5 11 19 43 29.9800000  0  7  5  2  9  7 24 26  4
  17404322.698   -18714121.48849 -14539708.13549  17404322.4814   17404330.2684
  17238378.013   -20569179.24949 -16017998.16149  17238380.1534   17238388.7884
  15199593.801   -47658682.63149 -37115278.71149  15199595.8164   15199601.9774
  15729167.078   -28581463.39849 -22251840.22949  15729169.7014   15729176.4584
  16300814.400   -34808982.54749 -26089602.21849  16300816.3664   16300824.3504
  18956899.611   -22156325.19649 -17248685.60249  18956902.3414   18956911.8334
  14933291.830   -54397361.78049 -42315670.02649  14933293.6664   14933299.9364
 96  5 11 19 43 59.9800000  0  7  5  2  9  7 24 26  4
  17369338.614   -18897958.94849 -14682958.03149  17369338.6544   17369346.7814
  17231990.390   -20602750.09049 -16044157.32049  17231992.2194   17232000.7584
  15174845.325   -47788738.13149 -37216620.65249  15174846.9004   15174853.2954
  15721656.918   -28620920.62349 -22282586.13049  15721661.1784   15721668.0734
  16264064.644   -35002102.28349 -26240085.09149  16264067.2544   16264074.7764
  18951722.026   -22183549.92249 -17269899.76449  18951722.1124   18951731.8224
  14907124.410   -54534868.75649 -42422818.30249  14907127.1824   14907133.0304
 96  5 11 19 44 29.9800000  0  7  5  2  9  7 24 26  4
  17334418.960   -19081467.46049 -14825951.63149  17334417.8724   17334426.3564
  17225706.093   -20635789.73549 -16069902.55549  17225705.5064   17225713.0494
  15150254.008   -47917967.12949 -37317318.57149  15150255.6414   15150262.1634
  15714237.676   -28659923.70549 -22312978.15949  15714239.3454   15714246.2044
  16227434.585   -35194584.63749 -26390071.30649  16227438.9114   16227446.4164
  18946597.831   -22210475.02449 -17290880.44849  18946596.9084   18946606.9984
  14881128.031   -54671478.38849 -42529267.34949  14881131.2154   14881137.0154
 96  5 11 19 44 59.9800000  0  6  5  2  9  7 24  4
  17299426.660   -19265346.10049 -14969233.63749  17299427.2244   17299434.8664
  17219388.157   -20668974.41449 -16095760.79349  17219389.0804   17219398.6124
  15125690.000   -48047055.98149 -37417907.28549  15125691.0284   15125697.0154
  15706769.065   -28699171.11349 -22343560.57349  15706771.0724   15706777.6354
  16190797.246   -35387128.30149 -26540105.29649  16190799.1564   16190806.7984
  14855169.186   -54807896.92749 -42635567.49749  14855171.5064   14855177.5464
 96  5 11 19 45 29.9800000  0  6  5  2  9  7 24  4
  17264426.024   -19449270.72549 -15112551.47549  17264427.8104   17264435.6014
  17213108.069   -20701976.60949 -16121476.83049  17213109.6134   17213118.4054
  15101210.844   -48175690.01549 -37518141.59749  15101212.5954   15101219.0354
  15699313.047   -28738354.75649 -22374093.30349  15699314.4034   15699321.1174
  16154203.030   -35579423.76749 -26689945.88549  16154206.4244   16154214.5814
  14829303.223   -54943823.06549 -42741483.95749  14829305.6724   14829311.6434
 96  5 11 19 45 59.9800000  0  6  5  2  9  7 24  4
  17229450.850   -19633073.43749 -15255774.31949  17229451.5374   17229459.0894
  17206896.888   -20734628.99349 -16146920.29849  17206896.2594   17206904.9104
  15076849.281   -48303710.16449 -37617897.55349  15076850.9444   15076857.4864
  15691898.645   -28777309.50449 -22404447.66349  15691901.6354   15691908.4154
  16117687.993   -35771312.71749 -26839469.70549  16117690.8454   16117698.8764
  14803559.843   -55079104.86649 -42846898.33349  14803562.3094   14803568.2394
 96  5 11 19 46 29.9790000  0  6  5  2  9  7 24  4
  17194471.998   -19816888.55449 -15399006.82649  17194472.9174   17194479.1744
  17200719.562   -20767089.83449 -16172214.50349  17200719.8774   17200727.3934
  15052580.018   -48431243.21149 -37717273.95249  15052582.4634   15052588.5384
  15684501.491   -28816186.41849 -22434741.37849  15684503.4384   15684510.0594
  16081224.909   -35962929.35349 -26988781.33549  16081227.6574   16081235.1644
  14777911.524   -55213886.73649 -42951923.15649  14777914.2604   14777920.1704
 96  5 11 19 46 59.9790000  0  6  5  2  9  7 24  4
  17159594.492   -20000169.86849 -15541823.39049  17159595.3464   17159602.4844
  17194680.508   -20798832.97449 -16196949.47349  17194678.8994   17194687.3994
  15028507.430   -48557750.67249 -37815851.19949  15028508.8584   15028514.9154
  15677222.266   -28854429.40149 -22464541.12249  15677225.9394   15677232.9174
  16044914.930   -36153737.29649 -27137462.81749  16044918.0744   16044926.0954
  14752463.306   -55347617.97549 -43056129.30749  14752466.1254   14752471.9104
 96  5 11 19 47 29.9790000  0  6  5  2  9  7 24  4
  17124717.832   -20183435.25349 -15684627.53649  17124720.6864   17124727.6304
  17188670.695   -20830402.92249 -16221549.47949  17188671.1274   17188679.0864
  15004530.198   -48683750.85749 -37914033.16049  15004531.6084   15004538.1304
  15669965.522   -28892563.47049 -22494256.00449  15669969.3534   15669976.1544
  16008662.962   -36344246.84749 -27285911.78649  16008665.2554   16008672.9184
  14727118.486   -55480806.74249 -43159912.75349  14727120.9314   14727126.8114
 96  5 11 19 47 59.9790000  0  6  5  2  9  7 24  4
  17089855.614   -20366651.72449 -15827393.58449  17089855.6874   17089863.0944
  17182703.957   -20861771.84549 -16245992.84149  17182701.8654   17182710.7754
  14980658.561   -48809192.64249 -38011779.99949  14980660.9844   14980667.4914
  15662738.852   -28930551.34949 -22523856.96249  15662740.3984   15662747.5564
  15972478.847   -36534404.67149 -27434086.67449  15972479.7594   15972487.5184
  14701885.493   -55613410.74049 -43263240.52649  14701887.0284   14701893.3204
 96  5 11 19 48 29.9790000  0  6  5  2  9  7 24  4
  17054986.873   -20549875.73049 -15970165.48949  17054989.5974   17054996.6234
  17176755.714   -20893001.84949 -16270327.98249  17176759.0684   17176767.6314
  14956882.979   -48934135.13049 -38109137.78649  14956884.8124   14956891.2654
  15655521.452   -28968469.97049 -22553403.96049  15655525.0844   15655531.9874
  15936347.717   -36724266.73749 -27582031.10649  15936349.9224   15936357.2104
  14676750.227   -55745491.15149 -43366160.31549  14676753.1194   14676759.1324
 96  5 11 19 48 59.9790000  0  6  5  2  9  7 24  4
  17020126.761   -20733062.74949 -16112908.58749  17020129.8734   17020137.4534
  17170853.809   -20924022.76249 -16294500.18549  17170855.9124   17170864.7284
  14933211.360   -49058529.59549 -38206068.53349  14933213.3994   14933220.0954
  15648331.749   -29006260.95149 -22582851.49249  15648333.7264   15648340.6764
  15900283.359   -36913782.90949 -27729706.01149  15900286.1914   15900293.5084
  14651727.183   -55876992.43249 -43468628.83049  14651729.1964   14651735.2434
 96  5 11 19 49 29.9790000  0  6  5  2  9  7 24  4
  16985323.964   -20915954.05449 -16255421.24549  16985326.8024   16985335.4974
  17165047.385   -20954541.84549 -16318281.34349  17165049.3524   17165057.3134
  14909697.765   -49182099.53949 -38302356.80349  14909699.1104   14909705.3954
  15641215.522   -29043653.63649 -22611988.66249  15641218.2064   15641225.2724
  15864335.604   -37102688.81749 -27876905.39349  15864338.5304   15864346.2794
  14626863.839   -56007648.65149 -43570438.85649  14626866.2764   14626871.9824
 96  5 11 19 49 59.9790000  0  6  5  2  9  7 24  4
  16950487.748   -21099020.86049 -16398070.65249  16950490.7754   16950498.1604
  17159250.058   -20985008.97949 -16342022.02849  17159251.7274   17159259.3184
  14886251.505   -49305312.31649 -38398366.76049  14886252.5624   14886258.7704
  15634087.074   -29081119.39149 -22641182.77749  15634088.7164   15634095.8744
  15828412.006   -37291468.08849 -28024006.09549  15828414.9464   15828422.5534
  14602071.832   -56137934.08349 -43671959.95849  14602073.6054   14602079.5734
 96  5 11 19 50 29.9790000  0  6  5  2  9  7 24  4
  16915675.763   -21281954.67249 -16540616.44149  16915678.6174   16915686.5064
  17153518.830   -21015106.91549 -16365475.01449  17153523.7874   17153531.9764
  14862930.602   -49427859.24449 -38493857.87749  14862932.6314   14862938.9914
  15627002.148   -29118341.67649 -22670187.17249  15627005.3814   15627012.2594
  15792570.537   -37479818.36249 -28170772.50349  15792572.9544   15792580.6474
  14577409.202   -56267532.57749 -43772945.79249  14577412.2814   14577417.8294
 96  5 11 19 50 59.9790000  0  6  5  2  9  7 24  4
  16880864.634   -21464895.88349 -16683167.99049  16880867.1094   16880873.9954
  17147837.141   -21044975.98549 -16388749.67049  17147839.3644   17147847.9114
  14839715.140   -49549860.20749 -38588923.56049  14839716.8024   14839722.9334
  15619943.511   -29155443.75049 -22699097.89649  15619945.1384   15619952.1074
  15756783.600   -37667880.53849 -28317314.42449  15756785.8574   15756793.5514
  14552852.135   -56396583.48449 -43873504.92049  14552854.5444   14552860.2584
 96  5 11 19 51 29.9790000  0  6  5  2  9  7 24  4
  16846136.519   -21647397.23549 -16825376.80249  16846137.7324   16846145.6484
  17142277.533   -21074195.11749 -16411517.89949  17142280.5074   17142287.7134
  14816681.800   -49670898.84349 -38683239.38949  14816683.9964   14816689.9124
  15612982.646   -29192025.17549 -22727602.92649  15612984.0474   15612990.5764
  15721133.824   -37855215.95149 -28463290.03949  15721137.3314   15721144.3574
  14528477.721   -56524669.04149 -43973311.83749  14528480.5454   14528486.3534
 96  5 11 19 51 59.9790000  0  6  5  2  9  7 24  4
  16811469.305   -21829570.24049 -16967329.73549  16811470.9764   16811479.2064
  17136813.120   -21102918.39949 -16433899.75249  17136813.2584   17136821.9054
  14793805.535   -49791114.77249 -38776914.13749  14793807.4184   14793813.4074
  15606091.776   -29228232.03249 -22755816.08149  15606094.4004   15606101.2844
  15685601.534   -38041941.97249 -28608790.79849  15685604.6984   15685611.8984
  14504261.688   -56651925.61349 -44072472.78849  14504264.2354   14504270.1524
 96  5 11 19 52 29.9790000  0  6  5  2  9  7 24  4
  16776851.238   -22011489.90849 -17109085.26049  16776852.7034   16776860.2494
  17131421.112   -21131242.53749 -16455970.57849  17131424.1624   17131432.6094
  14771071.621   -49910586.83149 -38870009.25349  14771072.6804   14771078.7514
  15599253.975   -29264155.49749 -22783808.40649  15599258.0474   15599264.7844
  15650171.213   -38228125.69049 -28753868.98449  15650174.6954   15650182.2764
  14480190.005   -56778426.42049 -44171044.82949  14480191.8624   14480197.8644
 96  5 11 19 52 59.9790000  0  6  5  2  9  7 24  4
  16742276.975   -22193181.65049 -17250663.19749  16742278.6564   16742284.9564
  17126101.039   -21159208.34349 -16477762.19049  17126101.7324   17126110.6284
  14748469.517   -50029361.26849 -38962560.77049  14748470.6804   14748476.8794
  15592462.660   -29299853.99749 -22811625.43349  15592464.8424   15592471.4794
  15614839.472   -38413795.33449 -28898546.59549  15614843.0274   15614849.9404
  14456255.216   -56904197.97849 -44269048.62849  14456258.5554   14456264.3864
 96  5 11 19 53 29.9790000  0  6  5  2  9  7 24  4
  16707698.036   -22374899.29449 -17392261.30549  16707698.9064   16707705.3674
  17120795.883   -21187069.83049 -16499472.49749  17120800.4524   17120809.1084
  14725948.228   -50147706.89349 -39054778.13949  14725950.4994   14725956.4534
  15585664.952   -29335584.19849 -22839467.16149  15585665.7944   15585672.2414
  15579561.088   -38599196.79849 -29043015.23049  15579562.4924   15579569.5374
  14432416.206   -57029478.76249 -44366669.99949  14432418.0854   14432424.1804
 96  5 11 19 53 59.9780000  0  6  5  2  9  7 24  4
  16673168.502   -22556345.02049 -17533647.53849  16673171.3924   16673177.8694
  17115575.353   -21214529.39649 -16520869.62649  17115574.8524   17115583.6304
  14703572.741   -50265289.86249 -39146401.23749  14703574.7904   14703581.1144
  15578923.002   -29371006.49549 -22867068.97449  15578924.7034   15578931.8154
  15544390.408   -38784016.79649 -29187030.77749  15544392.1514   15544399.4004
  14408733.520   -57153928.23149 -44463643.59749  14408736.2154   14408742.3234
 96  5 11 19 54 29.9780000  0  6  5  2  9  7 24  4
  16638650.047   -22737740.66249 -17674994.74949  16638652.7664   16638659.0304
  17110393.027   -21241761.99749 -16542089.91049  17110393.2934   17110401.1344
  14681303.932   -50382310.86549 -39237586.43849  14681306.5084   14681312.9244
  15572207.189   -29406308.65649 -22894577.16649  15572207.7184   15572214.1654
  15509291.581   -38968456.63449 -29330750.09849  15509294.3024   15509301.7434
  14385173.832   -57277738.30949 -44560118.96549  14385176.1974   14385182.0624
 96  5 11 19 54 59.9780000  0  6  5  2  9  7 24  4
  16604120.939   -22919188.29149 -17816382.44849  16604124.3594   16604130.5524
  17105237.156   -21268853.64149 -16563200.33749  17105238.1044   17105245.9794
  14659123.529   -50498875.79649 -39328416.25749  14659124.8264   14659130.8994
  15565491.237   -29441578.65949 -22922060.30649  15565495.3294   15565502.0754
  15474248.732   -39152605.05749 -29474242.33949  15474252.3244   15474259.2794
  14361714.678   -57401014.06249 -44656177.97049  14361717.5584   14361723.2894
 96  5 11 19 55 29.9780000  0  6  5  2  9  7 24  4
  16569603.803   -23100585.50649 -17957730.88349  16569604.8414   16569612.1524
  17100129.541   -21295688.66549 -16584110.80549  17100131.7624   17100139.1974
  14637050.491   -50614866.55449 -39418798.66749  14637052.5764   14637058.5274
  15558812.610   -29476686.40549 -22949417.01649  15558814.9544   15558821.7004
  15439282.692   -39336353.52949 -29617422.92749  15439285.7414   15439292.9854
  14338376.950   -57523657.15949 -44751744.00249  14338379.2504   14338385.1564
 96  5 11 19 55 59.9780000  0  6  5  2  9  7 24  4
  16535085.190   -23281985.57849 -18099081.54549  16535085.9144   16535093.5434
  17095064.343   -21322313.66049 -16604857.62349  17095065.5644   17095073.1044
  14615079.412   -50730330.04049 -39508770.21849  14615080.7344   14615086.8044
  15552149.449   -29511687.68349 -22976690.76149  15552154.2254   15552161.2684
  15404383.866   -39519758.37949 -29760335.76049  15404385.1804   15404392.5894
  14315145.280   -57645737.67649 -44846871.66049  14315148.2514   14315153.7654
 96  5 11 19 56 29.9780000  0  6  5  2  9  7 24  4
  16500579.518   -23463288.74349 -18240356.70249  16500584.5404   16500591.8764
  17090052.780   -21348623.37749 -16625358.75749  17090058.2914   17090066.0454
  14593221.494   -50845193.84449 -39598274.48349  14593222.8174   14593228.9634
  15545525.688   -29546511.28549 -23003826.06049  15545527.3634   15545534.6944
  15369561.457   -39702735.40149 -29902915.22349  15369565.7134   15369573.1124
  14292034.208   -57767191.43249 -44941510.93249  14292036.4774   14292042.1274
 96  5 11 19 56 59.9780000  0  6  5  2  9  7 24  4
  16466101.028   -23644502.33849 -18381562.04149  16466100.6624   16466107.7544
  17085104.111   -21374650.07049 -16645639.35249  17085105.7504   17085114.4054
  14571472.999   -50959480.93949 -39687329.36149  14571474.7214   14571480.8844
  15538929.023   -29581180.13649 -23030840.76949  15538930.3224   15538937.0604
  15334820.603   -39885313.91149 -30045184.15749  15334822.3324   15334829.7104
  14269035.817   -57888046.26649 -45035683.50849  14269038.4694   14269043.9994
 96  5 11 19 57 29.9780000  0  6  5  2  9  7 24  4
  16431639.395   -23825592.30949 -18522671.07349  16431641.1804   16431647.0744
  17080207.201   -21400376.57349 -16665686.03249  17080210.3054   17080218.3054
  14549841.454   -51073156.12649 -39775907.43349  14549843.0184   14549849.0454
  15532369.063   -29615654.22649 -23057703.72049  15532370.5514   15532377.1144
  15300158.285   -40067467.00949 -30187121.60049  15300159.2774   15300166.8674
  14246160.683   -58008262.90349 -45129358.79249  14246162.0334   14246167.6904
 96  5 11 19 57 59.9780000  0  6  5  2  9  7 24  4
  16397188.282   -24006635.19549 -18663743.40749  16397189.0154   16397196.4124
  17075355.566   -21425886.17449 -16685563.71649  17075355.7054   17075363.4454
  14528311.263   -51186295.89649 -39864068.29249  14528313.2404   14528319.6774
  15525828.195   -29650018.33949 -23084480.96449  15525831.1394   15525838.0874
  15265562.834   -40249254.77449 -30328774.36849  15265566.4364   15265573.8974
  14223392.550   -58127906.67249 -45222587.68349  14223394.5954   14223400.2714
 96  5 11 19 58 29.9780000  0  6  5  2  9  7 24  4
  16362744.310   -24187641.04949 -18804786.87249  16362745.0904   16362751.3874
  17070537.336   -21451202.97949 -16705291.16349  17070538.3004   17070546.2564
  14506881.227   -51298911.93849 -39951821.05149  14506883.3614   14506889.3454
  15519307.180   -29684284.16749 -23111181.63049  15519310.1634   15519316.9564
  15231039.483   -40430679.96849 -30470144.61149  15231042.3744   15231049.7524
  14200734.191   -58246980.22349 -45315372.25349  14200735.4924   14200741.2094
 96  5 11 19 58 59.9780000  0  6  5  2  9  7 24  4
  16328307.703   -24368596.48249 -18945791.06349  16328310.3274   16328316.9484
  17065754.116   -21476326.51949 -16724868.02549  17065757.6594   17065765.4164
  14485558.383   -51410962.07049 -40039132.84749  14485560.8994   14485566.6284
  15512810.997   -29718426.14149 -23137785.79149  15512813.4414   15512820.7474
  15196589.769   -40611719.06649 -30611214.00349  15196591.7074   15196599.2134
  14178188.343   -58365455.95449 -45407690.99149  14178190.2824   14178196.1054
 96  5 11 19 59 29.9780000  0  6  5  2  9  7 24  4
  16293890.281   -24549462.74849 -19086725.76949  16293892.6464   16293899.3714
  17061016.868   -21501216.85649 -16744263.16149  17061020.9384   17061029.7724
  14464356.014   -51522385.48949 -40125956.29349  14464357.6234   14464363.5754
  15506344.351   -29752412.15349 -23164268.42649  15506346.3134   15506352.9244
  15162221.237   -40792324.36449 -30751945.37749  15162223.7114   15162230.8184
  14155767.259   -58483288.59749 -45499508.62449  14155767.4774   14155773.0514
 96  5 11 19 59 59.9780000  0  6  5  2  9  7 24  4
  16259476.543   -24730303.38649 -19227640.50649  16259479.3714   16259486.7074
  17056315.513   -21525941.12249 -16763528.89449  17056315.7274   17056324.8964
  14443260.835   -51633243.20149 -40212338.92949  14443262.3934   14443268.2754
  15499887.900   -29786341.76849 -23190707.10549  15499889.4604   15499895.9274
  15127921.961   -40972572.45049 -30892398.39849  15127923.7674   15127931.0944
  14133450.269   -58600550.65249 -45590881.64849  14133453.3334   14133459.0264
 96  5 11 20  0 29.9780000  0  6  5  2  9  7 24  4
  16225089.140   -24911026.32649 -19368463.53649  16225089.2784   16225095.6484
  17051658.068   -21550417.98749 -16782601.85249  17051658.2824   17051666.5204
  14422288.865   -51743449.49049 -40298213.95749  14422290.5964   14422296.6644
  15493453.795   -29820150.63449 -23217051.69949  15493456.2494   15493462.7454
  15093698.998   -41152412.04949 -31032533.11549  15093701.2134   15093708.5164
  14111259.720   -58717166.82949 -45681751.38549  14111261.5504   14111267.7754
 96  5 11 20  0 59.9780000  0  6  5  2  9  7 24  4
  16190704.244   -25091710.11549 -19509256.05649  16190705.9344   16190712.8194
  17047034.633   -21574716.39649 -16801535.75849  17047033.8424   17047042.9864
  14401424.939   -51853088.59449 -40383647.02849  14401427.1374   14401433.3934
  15487025.742   -29853930.60049 -23243373.76549  15487028.3594   15487034.6654
  15059537.153   -41331928.01449 -31172415.64849  15059540.7544   15059547.6944
  14089176.760   -58833210.34549 -45772174.89549  14089179.4784   14089185.3304
 96  5 11 20  1 29.9780000  0  6  5  2  9  7 24  4
  16156338.340   -25272308.24549 -19649981.82749  16156339.4644   16156346.1774
  17042455.889   -21598771.68649 -16820280.23049  17042456.6924   17042465.2234
  14380675.977   -51962128.09349 -40468612.87449  14380677.5014   14380683.3334
  15480614.842   -29887638.16049 -23269639.42249  15480613.9354   15480620.0404
  15025449.540   -41511063.65549 -31312001.83449  15025452.3414   15025459.1134
  14067214.644   -58948629.52849 -45862111.90649  14067215.7314   14067221.8474
 96  5 11 20  1 59.9770000  0  6  5  2  9  7 24  4
  16121992.010   -25452791.36049 -19790617.97749  16121994.3084   16122001.5774
  17037924.412   -21622563.90949 -16838819.70749  17037929.2904   17037937.8554
  14360040.729   -52070566.79249 -40553110.56649  14360042.5324   14360048.4894
  15474214.365   -29921249.50649 -23295830.09949  15474217.0174   15474224.3114
  14991439.093   -41689788.83649 -31451268.17949  14991441.9234   14991448.5774
  14045372.660   -59063403.48849 -45951546.16149  14045374.9404   14045380.9764
 96  5 11 20  2 29.9770000  0  6  5  2  9  7 24  4
  16087664.925   -25633202.25349 -19931197.85649  16087664.2974   16087670.6654
  17033449.814   -21646117.61949 -16857173.33749  17033446.3144   17033456.0364
  14339512.849   -52178443.40249 -40637170.26449  14339514.1154   14339519.8314
  15467838.895   -29954768.61749 -23321948.91349  15467839.1714   15467846.3844
  14957503.557   -41868111.67349 -31590221.00949  14957508.2594   14957515.0584
  14023647.320   -59177570.48549 -46040507.44949  14023649.9954   14023655.6414
 96  5 11 20  2 59.9770000  0  6  5  2  9  7 24  4
  16053332.933   -25813605.47849 -20071771.75849  16053334.2444   16053340.2484
  17028993.476   -21669490.23449 -16875385.85049  17028999.4314   17029008.7114
  14319078.228   -52285824.67549 -40720843.98949  14319080.0324   14319086.0614
  15461468.792   -29988234.42149 -23348026.17549  15461470.2384   15461477.4474
  14923645.427   -42046056.55049 -31728879.31949  14923646.2134   14923653.3444
  14002024.424   -59291199.89649 -46129049.84149  14002027.0554   14002032.6014
 96  5 11 20  3 29.9770000  0  6  5  2  9  7 24  4
  16019015.704   -25993945.43449 -20212296.36949  16019016.3044   16019023.5444
  17024596.565   -21692628.76749 -16893415.95949  17024596.7314   17024605.3974
  14298749.221   -52392658.08249 -40804090.80749  14298750.4664   14298756.7314
  15455122.075   -30021577.25149 -23374007.62449  15455125.9864   15455132.8164
  14889867.338   -42223555.64249 -31867190.27749  14889869.2414   14889876.4204
  13980513.537   -59404244.35549 -46217136.42849  13980515.1324   13980520.8284
 96  5 11 20  3 59.9770000  0  6  5  2  9  7 24  4
  15984704.149   -26174235.10649 -20352781.77749  15984707.8874   15984715.6764
  17020237.015   -21715562.47649 -16911286.46149  17020231.6854   17020241.4024
  14278519.657   -52498965.57149 -40886927.81549  14278520.6714   14278526.8994
  15448799.500   -30054822.00149 -23399912.64849  15448800.2334   15448806.6594
  14856170.888   -42400624.10249 -32005165.66649  14856174.2544   14856181.7614
  13959108.073   -59516728.38349 -46304786.31449  13959110.3504   13959116.0514
 96  5 11 20  4 29.9770000  0  6  5  2  9  7 24  4
  15950411.360   -26354458.04949 -20493215.20549  15950413.0964   15950419.8794
  17015909.114   -21738264.78049 -16928976.63049  17015913.0154   17015921.9624
  14258393.671   -52604719.46949 -40969333.45049  14258396.1774   14258402.5784
  15442495.334   -30087943.38649 -23425721.53049  15442496.4184   15442503.5764
  14822565.865   -42577233.57549 -32142783.40049  14822566.5214   14822573.6344
  13937814.886   -59628622.24749 -46391976.32549  13937817.5334   13937823.3284
 96  5 11 20  4 59.9770000  0  6  5  2  9  7 24  4
  15916126.358   -26534624.47949 -20633604.59149  15916128.6104   15916135.6674
  17011628.931   -21760758.73949 -16946504.47349  17011632.2054   17011641.0174
  14238371.651   -52709938.35249 -41051322.19749  14238373.5744   14238379.8724
  15436208.195   -30120977.50649 -23451462.43749  15436210.8044   15436217.4654
  14789036.228   -42753422.79149 -32280073.66849  14789038.8634   14789045.9334
  13916633.752   -59739931.87549 -46478711.08849  13916635.8894   13916641.6874
 96  5 11 20  5 29.9770000  0  6  5  2  9  7 24  4
  15881858.900   -26714699.21649 -20773922.52449  15881862.2344   15881868.2304
  17007397.209   -21783031.92449 -16963860.28049  17007394.1554   17007402.6434
  14218458.295   -52814587.91649 -41132867.31849  14218459.7154   14218466.0424
  15429941.130   -30153916.79749 -23477129.43849  15429942.1774   15429948.9664
  14755591.973   -42929174.26349 -32417022.83849  14755594.4574   14755601.5944
  13895570.389   -59850616.91349 -46564959.16349  13895573.1664   13895579.0894
 96  5 11 20  5 59.9770000  0  6  5  2  9  7 24  4
  15847607.754   -26894690.11349 -20914175.13049  15847610.1184   15847616.8784
  17003188.744   -21805105.51849 -16981060.55149  17003193.8484   17003202.5174
  14198651.240   -52918668.11949 -41213968.77949  14198653.7844   14198659.9284
  15423685.635   -30186783.32549 -23502739.74949  15423688.2704   15423695.2974
  14722224.684   -43104517.52649 -32553653.92049  14722227.6654   14722234.9124
  13874625.044   -59960688.47949 -46650729.20149  13874627.5284   13874633.3284
 96  5 11 20  6 29.9770000  0  6  5  2  9  7 24  4
  15813381.558   -27074559.44649 -21054333.02049  15813382.3314   15813389.3074
  16999037.237   -21826938.24749 -16998073.16049  16999038.8254   16999048.2344
  14178964.171   -53022129.29249 -41294587.88349  14178965.8484   14178972.0484
  15417455.996   -30219524.42749 -23528252.32949  15417457.0964   15417464.4354
  14688940.935   -43279429.64249 -32689949.04449  14688942.9074   14688950.0954
  13853804.217   -60070106.15749 -46735989.72349  13853806.0534   13853811.7084
 96  5 11 20  6 59.9770000  0  6  5  2  9  7 24  4
  15779173.633   -27254315.61149 -21194402.70749  15779176.3144   15779182.6564
  16994922.075   -21848547.71449 -17014911.79249  16994926.8354   16994935.3994
  14159392.356   -53124975.76249 -41374727.99449  14159394.6244   14159401.0494
  15411245.655   -30252153.41249 -23553677.53849  15411249.0504   15411255.4304
  14655730.894   -43453936.90349 -32825928.69749  14655735.1104   14655742.3614
  13833100.559   -60178894.46749 -46820759.82849  13833104.1734   13833110.0024
 96  5 11 20  7 29.9770000  0  6  5  2  9  7 24  4
  15744969.288   -27434066.45549 -21334468.26849  15744970.0504   15744976.5954
  16990835.158   -21870031.14649 -17031652.21849  16990838.9554   16990847.4274
  14139918.456   -53227316.41049 -41454473.95949  14139920.0594   14139926.1154
  15405039.525   -30284774.43749 -23579096.53449  15405041.1274   15405048.1234
  14622584.088   -43628141.78949 -32961672.73449  14622585.0334   14622592.1594
  13812495.915   -60287179.36149 -46905137.65649  13812498.1764   13812504.1614
 96  5 11 20  7 59.9770000  0  6  5  2  9  7 24  4
  15710797.425   -27613640.49349 -21474396.04449  15710798.3504   15710805.4264
  16986807.110   -21891206.25849 -17048152.40549  16986809.1124   16986818.5564
  14120571.269   -53328985.67849 -41533696.77549  14120572.9404   14120579.1554
  15398866.429   -30317213.54149 -23604373.79949  15398868.3554   15398875.1654
  14589522.261   -43801871.37849 -33097046.40949  14589525.7714   14589532.7674
  13792014.667   -60394805.66249 -46989002.30049  13792017.6364   13792023.2304
 96  5 11 20  8 29.9770000  0  6  5  2  9  7 24  4
  15676640.320   -27793127.31449 -21614255.87649  15676642.4874   15676650.0204
  16982820.304   -21912166.17649 -17064484.88349  16982820.7804   16982829.9454
  14101332.574   -53430091.10049 -41612480.22249  14101333.6734   14101339.5324
  15392712.346   -30349563.27549 -23629581.40149  15392712.6044   15392718.9514
  14556541.315   -43975197.26749 -33232105.51249  14556542.9654   14556549.7634
  13771639.474   -60501878.90749 -47072435.99149  13771642.4434   13771647.8384
 96  5 11 20  8 59.9770000  0  6  5  2  9  7 24  4
  15642497.865   -27972556.87049 -21754071.08249  15642498.8584   15642505.7554
  16978872.165   -21932945.59949 -17080676.73349  16978867.4954   16978875.8784
  14082191.250   -53530676.64449 -41690858.57549  14082192.7434   14082198.9124
  15386558.251   -30381875.84949 -23654760.05449  15386563.4394   15386570.2244
  14523630.988   -44148137.59949 -33366864.18349  14523633.3244   14523640.3294
  13751363.145   -60608435.45849 -47155467.06049  13751365.1724   13751370.7864
 96  5 11 20  9 29.9760000  0  6  5  2  9  7 24  4
  15608377.443   -28151850.25349 -21893780.17449  15608380.2024   15608387.2104
  16974957.970   -21953477.69049 -17096675.84849  16974959.6484   16974968.3774
  14063161.235   -53630678.18849 -41768781.85849  14063163.0444   14063169.1214
  15380432.340   -30414085.81049 -23679858.75549  15380433.5244   15380441.3284
  14490811.890   -44320598.79749 -33501249.50449  14490815.0164   14490822.0314
  13731201.390   -60714383.37249 -47238023.87049  13731204.0154   13731209.6024
 96  5 11 20  9 59.9760000  0  6  5  2  9  7 24  4
  15574274.320   -28331066.32949 -22033429.03249  15574276.7434   15574283.0814
  16971091.509   -21973805.26049 -17112515.59449  16971092.0814   16971100.0434
  14044234.969   -53730136.19249 -41846281.60849  14044236.7614   14044242.7414
  15374316.390   -30446224.75849 -23704902.12349  15374318.2904   15374325.2874
  14458075.265   -44492628.86549 -33635298.88249  14458078.7384   14458085.7994
  13711150.557   -60819746.06749 -47320124.66749  13711154.1634   13711159.9674
 96  5 11 20 10 29.9760000  0  6  5  2  9  7 24  4
  15540186.113   -28510205.77349 -22173018.17749  15540187.2674   15540194.2244
  16967261.627   -21993920.87449 -17128190.17149  16967263.5614   16967272.4364
  14025414.807   -53829036.03849 -41923346.42349  14025416.8514   14025422.7174
  15368217.899   -30478273.63549 -23729875.29949  15368219.6464   15368226.2454
  14425423.272   -44664214.71149 -33769002.11249  14425426.7294   14425433.9784
  13691220.488   -60924485.29849 -47401739.64449  13691222.6994   13691228.7274
 96  5 11 20 10 59.9760000  0  6  5  2  9  7 24  4
  15506125.192   -28689201.68849 -22312495.48149  15506126.0164   15506132.4494
  16963491.042   -22013749.87249 -17143641.42949  16963489.9104   16963498.9824
  14006717.082   -53927291.88149 -41999909.42249  14006719.3274   14006725.2344
  15362148.487   -30510171.53849 -23754730.83449  15362150.3014   15362156.5374
  14392866.665   -44835297.76549 -33902313.56049  14392870.6174   14392878.0104
  13671423.952   -61028512.48049 -47482799.78249  13671427.0834   13671432.7374
 96  5 11 20 11 29.9760000  0  6  5  2  9  7 24  4
  15472074.277   -28868137.46349 -22451925.92649  15472075.5574   15472081.3304
  16959752.643   -22033373.31249 -17158932.51449  16959756.8834   16959765.5344
  13988130.276   -54024968.73849 -42076021.26849  13988131.8944   13988137.7794
  15356088.872   -30541998.81249 -23779531.34649  15356093.2704   15356099.4884
  14360393.467   -45005956.44849 -34035294.32649  14360395.2964   14360402.7154
  13651750.387   -61131899.70149 -47563361.25049  13651753.3254   13651758.9964
 96  5 11 20 11 59.9760000  0  6  5  2  9  7 24  4
  15438037.385   -29046983.73149 -22591286.62449  15438041.5634   15438048.4744
  16956069.588   -22052751.94649 -17174032.83549  16956068.9734   16956077.3134
  13969659.925   -54122031.77849 -42151654.81149  13969661.5294   13969667.5184
  15350056.268   -30573722.87249 -23804251.42049  15350056.3794   15350063.1894
  14328002.797   -45176161.81049 -34167921.85249  14328006.3384   14328013.6404
  13632199.012   -61234641.35749 -47643419.67849  13632202.1724   13632207.9624
 96  5 11 20 12 29.9760000  0  6  5  2  9  7 24  4
  15404012.660   -29225800.30849 -22730624.17749  15404014.2934   15404020.9554
  16952406.000   -22071966.07749 -17189004.98549  16952410.8024   16952421.0334
  13951290.248   -54218562.98349 -42226873.93249  13951292.3244   13951298.4014
  15344020.658   -30605434.55949 -23828961.85049  15344021.9454   15344029.1274
  14295690.295   -45345967.27749 -34300237.77549  14295693.6264   14295700.4664
  13612754.041   -61336827.60849 -47723045.31949  13612756.7324   13612762.6494
 96  5 11 20 12 59.9760000  0  6  5  2  9  7 24  4
  15370008.178   -29404509.65249 -22869878.18349  15370007.5404   15370013.2094
  16948795.345   -22090961.49149 -17203806.69549  16948796.9484   16948807.3724
  13933032.185   -54314506.98149 -42301635.49449  13933034.7144   13933040.8724
  15337996.573   -30637089.93749 -23853628.42249  15337997.7034   15338005.3004
  14263469.093   -45515298.43649 -34432184.10849  14263470.9324   14263477.7564
  13593422.451   -61438416.02849 -47802205.12449  13593425.2804   13593430.7914
 96  5 11 20 13 29.9760000  0  6  5  2  9  7 24  4
  15336017.552   -29583107.78549 -23009045.53049  15336020.8454   15336027.5584
  16945227.105   -22109729.45849 -17218431.17949  16945226.0044   16945234.5484
  13914884.136   -54409875.31349 -42375948.48849  13914886.3914   13914892.5904
  15331986.017   -30668673.52949 -23878239.03749  15331987.5624   15331994.9034
  14231338.272   -45684144.50949 -34563752.45149  14231340.6114   14231347.3744
  13574202.791   -61539414.27649 -47880905.05849  13574205.9534   13574211.3814
 96  5 11 20 13 59.9760000  0  6  5  2  9  7 24  4
  15302050.907   -29761604.14549 -23148133.56349  15302053.9374   15302060.6884
  16941695.270   -22128282.38049 -17232888.12049  16941695.1704   16941704.0434
  13896839.322   -54504700.30449 -42449838.09549  13896841.8964   13896848.1824
  15325983.986   -30700193.66549 -23902800.21649  15325989.7434   15325997.1734
  14199297.837   -45852518.29049 -34694952.77049  14199300.2364   14199307.2004
  13555092.218   -61639848.14149 -47959165.20949  13555094.0374   13555099.6094
 96  5 11 20 14 29.9760000  0  6  5  2  9  7 24  4
  15268105.385   -29940006.83249 -23287148.61749  15268105.2214   15268112.6634
  16938202.432   -22146652.68949 -17247202.74949  16938201.4194   16938209.9054
  13878896.708   -54598994.26049 -42523313.91349  13878898.5044   13878904.5924
  15319999.843   -30731677.06049 -23927332.76149  15319999.0494   15320006.0124
  14167341.858   -46020447.29149 -34825806.50949  14167344.3404   14167351.3064
  13536087.609   -61739716.90249 -48036985.01749  13536089.7534   13536095.2054
 96  5 11 20 14 59.9760000  0  6  5  2  9  7 24  4
  15234182.350   -30118261.12149 -23426048.03049  15234184.7054   15234191.4294
  16934752.385   -22164775.06049 -17261324.16349  16934751.6774   16934760.9764
  13861067.792   -54692689.03249 -42596322.83249  13861069.0534   13861075.1484
  15314026.822   -30763049.06149 -23951778.48849  15314029.0654   15314035.9074
  14135477.205   -46187896.66749 -34956286.51449  14135479.6814   14135486.9154
  13517203.612   -61838954.88449 -48114313.30749  13517205.2734   13517210.9004
 96  5 11 20 15 29.9760000  0  6  5  2  9  7 24  4
  15200288.804   -30296373.41049 -23564836.79349  15200290.7354   15200297.6444
  16931345.902   -22182659.95149 -17275260.53949  16931348.8124   16931357.7504
  13843348.050   -54785807.23849 -42668882.47649  13843349.1764   13843355.3534
  15308076.382   -30794316.94749 -23976143.10949  15308078.6034   15308085.8524
  14103700.003   -46354884.93949 -35086407.21649  14103702.8564   14103709.5874
  13498436.338   -61937575.08249 -48191160.20549  13498438.5504   13498444.1054
 96  5 11 20 15 59.9760000  0  6  5  2  9  7 24  4
  15166422.661   -30474357.15649 -23703525.39849  15166421.1704   15166427.7464
  16927979.468   -22200351.01749 -17289045.88749  16927982.4204   16927990.9524
  13825736.314   -54878359.91849 -42741001.45349  13825737.1114   13825743.3724
  15302143.271   -30825505.19049 -24000445.66749  15302143.9874   15302151.1344
  14072006.340   -46521436.94649 -35216187.97249  14072009.3484   14072016.3374
  13479782.181   -62035602.29949 -48267545.03749  13479784.4384   13479790.0204
 96  5 11 20 16 29.9760000  0  6  5  2  9  7 24  4
  15132566.253   -30652257.01449 -23842148.64249  15132568.8134   15132574.7254
  16924639.323   -22217891.91849 -17302714.20749  16924644.5904   16924653.0914
  13808225.090   -54970376.56349 -42812702.73649  13808226.8884   13808232.9834
  15296216.763   -30856659.29949 -24024721.62449  15296215.5364   15296222.3944
  14040388.547   -46687594.23749 -35345661.15549  14040390.5684   14040397.3514
  13461235.041   -62133070.13049 -48343493.98349  13461236.9464   13461242.4604
 96  5 11 20 16 59.9760000  0  6  5  2  9  7 24  4
  15098735.186   -30830034.99349 -23980676.90249  15098738.3694   15098745.0934
  16921341.682   -22235230.56749 -17316224.93849  16921344.5294   16921354.7854
  13790823.315   -55061825.17749 -42883961.40349  13790824.6874   13790831.3714
  15290301.527   -30887730.27749 -24048932.79949  15290302.9354   15290309.7994
  14008853.862   -46853300.95049 -35474783.24449  14008857.6224   14008864.4454
  13442801.616   -62229937.47249 -48418975.02349  13442803.5704   13442809.0264
 96  5 11 20 17 29.9750000  0  6  5  2  9  7 24  4
  15064930.695   -31007694.63149 -24119112.95549  15064931.4094   15064937.6884
  16918076.807   -22252388.83449 -17329595.11549  16918080.3124   16918089.0294
  13773528.910   -55152707.21149 -42954778.57849  13773530.6044   13773536.8364
  15284400.444   -30918737.15949 -24073094.02749  15284402.2874   15284409.5974
  13977406.840   -47018557.78049 -35603554.77049  13977410.1954   13977417.2154
  13424479.336   -62326221.97749 -48494001.90249  13424481.3364   13424486.8704
 96  5 11 20 17 59.9750000  0  6  5  2  9  7 24  4
  15031135.506   -31185289.09949 -24257498.22249  15031136.2094   15031142.1044
  16914843.360   -22269386.46949 -17342840.11749  16914845.3634   16914854.7574
  13756341.500   -55243030.57449 -43025160.43149  13756342.7694   13756348.9524
  15278506.796   -30949703.13949 -24097223.39249  15278509.6724   15278516.8364
  13946039.859   -47183397.97649 -35732001.64849  13946042.0544   13946048.8674
  13406261.962   -62421955.89849 -48568599.76049  13406263.9394   13406269.3644
 96  5 11 20 18 29.9750000  0  6  5  2  9  7 24  4
  14997358.275   -31362784.99049 -24395806.68149  14997359.4444   14997366.2314
  16911653.074   -22286169.76149 -17355918.09549  16911652.1884   16911661.4544
  13739261.833   -55332780.76349 -43095095.65049  13739263.7844   13739269.7994
  15272627.879   -30980597.72349 -24121297.11949  15272631.0394   15272637.7964
  13914758.785   -47347776.74049 -35860088.96549  13914761.6424   13914768.7204
  13388157.041   -62517092.25949 -48642731.98749  13388160.0164   13388165.4904
 96  5 11 20 18 59.9750000  0  6  5  2  9  7 24  4
  14963594.591   -31540212.62449 -24534061.94949  14963596.2764   14963602.1924
  16908493.536   -22302777.89249 -17368859.59849  16908491.5724   16908500.6374
  13722282.635   -55422008.69549 -43164623.91349  13722284.5334   13722290.4404
  15266757.709   -31011455.67849 -24145342.29749  15266759.1414   15266766.1454
  13883561.236   -47511730.66049 -35987845.23049  13883562.4464   13883569.1624
  13370159.892   -62611669.56449 -48716428.58249  13370162.5854   13370168.1024
 96  5 11 20 19 29.9750000  0  6  5  2  9  7 24  4
  14929853.006   -31717531.40349 -24672232.40049  14929853.8064   14929859.5494
  16905369.183   -22319173.39449 -17381635.40249  16905372.1634   16905381.2804
  13705411.151   -55510673.34949 -43233713.26049  13705411.8444   13705417.9584
  15260900.146   -31042239.94449 -24169330.06449  15260901.1114   15260907.7934
  13852451.535   -47675215.31449 -36115235.83749  13852451.9254   13852459.0154
  13352276.587   -62705650.90149 -48789660.78849  13352278.5884   13352284.2254
 96  5 11 20 19 59.9750000  0  6  5  2  9  7 24  4
  14896132.421   -31894722.62449 -24810303.44949  14896134.9144   14896141.6484
  16902299.293   -22335324.60849 -17394220.87049  16902298.4034   16902307.6324
  13688644.808   -55598778.35449 -43302366.51949  13688646.2884   13688652.3704
  15255056.723   -31072940.10149 -24193252.27749  15255059.0324   15255066.0324
  13821434.096   -47838201.23749 -36242237.82949  13821437.0544   13821443.6484
  13334510.910   -62799008.22149 -48862406.74949  13334513.2064   13334518.7264
 96  5 11 20 20 29.9750000  0  6  5  2  9  7 24  4
  14862439.643   -32071794.42149 -24948281.43849  14862439.0564   14862446.2244
  16899265.148   -22351252.97249 -17406632.70149  16899267.0674   16899275.8564
  13671979.756   -55686351.29149 -43370605.17249  13671981.4664   13671987.5624
  15249226.407   -31103591.82149 -24217136.76249  15249225.8784   15249233.6024
  13790511.316   -48000700.48249 -36368860.58649  13790514.2594   13790521.1844
  13316862.076   -62891751.51549 -48934674.24449  13316864.6734   13316870.1704
 96  5 11 20 20 59.9750000  0  6  5  2  9  7 24  4
  14828764.754   -32248749.49249 -25086168.47949  14828766.4814   14828772.8014
  16896271.947   -22366978.48649 -17418886.43749  16896275.0594   16896284.2524
  13655419.958   -55773373.18649 -43438414.44749  13655421.6024   13655427.9114
  15243396.001   -31134203.95749 -24240990.40749  15243400.6404   15243408.4014
  13759681.666   -48162708.93549 -36495100.91149  13759685.2354   13759692.0714
  13299328.164   -62983894.13249 -49006473.68249  13299330.5484   13299336.1084
 96  5 11 20 21 29.9750000  0  6  5  2  9  7 24  4
  14795109.454   -32425605.64149 -25223978.43549  14795111.1774   14795117.6074
  16893317.106   -22382515.89749 -17430993.63449  16893318.7634   16893327.4324
  13638966.120   -55859841.42849 -43505792.30749  13638967.5494   13638973.8854
  15237573.538   -31164798.72949 -24264830.51249  15237579.0714   15237585.6904
  13728944.965   -48324236.94349 -36620966.86649  13728947.3634   13728954.1304
  13281903.983   -63075461.26949 -49077824.69649  13281905.8144   13281911.5334
 96  5 11 20 21 59.9750000  0  6  5  2  9  7 24  4
  14761474.566   -32602362.49049 -25361711.01249  14761475.4334   14761482.1484
  16890398.669   -22397870.11249 -17442958.05149  16890396.5744   16890405.2004
  13622618.639   -55945746.89349 -43572731.63949  13622620.3034   13622626.2414
  15231762.443   -31195371.41049 -24288653.40249  15231761.1544   15231768.3634
  13698298.867   -48485284.59349 -36746458.51349  13698300.8284   13698307.8924
  13264586.640   -63166458.35149 -49148731.51049  13264589.6924   13264595.2734
 96  5 11 20 22 29.9750000  0  6  5  2  9  7 24  4
  14727862.886   -32778998.19749 -25499349.19149  14727862.5884   14727869.2254
  16887504.060   -22413040.50849 -17454779.27449  16887509.1384   16887518.9834
  13606385.160   -56031056.51349 -43639206.67549  13606386.5464   13606392.3714
  15225948.976   -31225889.71849 -24312433.91749  15225953.1884   15225960.2534
  13667746.697   -48645838.64949 -36871565.53849  13667748.4964   13667755.5164
  13247383.569   -63256863.44449 -49219177.03249  13247386.0984   13247391.6034
 96  5 11 20 22 59.9750000  0  6  5  2  9  7 24  4
  14694268.299   -32955526.46849 -25636903.65549  14694270.2594   14694276.9244
  16884655.224   -22428055.95249 -17466479.75149  16884652.3474   16884661.6204
  13590258.935   -56115796.45749 -43705237.81149  13590260.8584   13590267.0524
  15220152.153   -31256359.03449 -24336176.27749  15220155.4974   15220161.9774
  13637278.708   -48805942.95149 -36996322.10849  13637281.6984   13637288.5904
  13230286.135   -63346715.22049 -49289191.40349  13230287.9494   13230293.7304
 96  5 11 20 23 29.9750000  0  6  5  2  9  7 24  4
  14660697.420   -33131947.14649 -25774374.28349  14660698.7084   14660705.4084
  16881821.631   -22442909.47649 -17478054.05849  16881824.8124   16881834.9414
  13574238.896   -56199981.36249 -43770836.44749  13574241.1214   13574247.1664
  15214365.681   -31286777.04749 -24359878.64449  15214366.7734   15214374.2004
  13606893.948   -48965615.89949 -37120742.56049  13606896.9324   13606903.7204
  13213291.341   -63436024.47249 -49358783.02849  13213292.8354   13213298.5124
 96  5 11 20 23 59.9750000  0  6  5  2  9  7 24  4
  14627127.110   -33308352.79949 -25911833.20149  14627129.6394   14627136.0544
  16879012.911   -22457689.63949 -17489571.19149  16879013.5684   16879022.6874
  13558304.783   -56283715.50249 -43836083.83449  13558307.0294   13558312.9324
  15208567.690   -31317229.89949 -24383608.17649  15208572.2154   15208579.2804
  13576575.810   -49124947.52449 -37244897.04249  13576576.9274   13576584.0994
  13196383.715   -63524870.99549 -49428014.08349  13196385.9734   13196391.7834
 96  5 11 20 24 29.9750000  0  6  5  2  9  7 24  4
  14593590.062   -33484601.70849 -26049169.98949  14593590.9014   14593597.1174
  16876237.551   -22472254.66049 -17500920.69849  16876241.3004   16876252.3214
  13542481.670   -56366867.64449 -43900877.71849  13542483.6134   13542489.5264
  15202794.852   -31347593.89249 -24407268.44349  15202794.3034   15202800.7324
  13546346.470   -49283794.88049 -37368674.16849  13546349.4794   13546356.2604
  13179590.577   -63613115.06249 -49496775.69249  13179593.7184   13179599.3074
 96  5 11 20 24 59.9740000  0  6  5  2  9  7 24  4
  14560082.895   -33660681.59049 -26186375.06749  14560084.2644   14560090.2854
  16873511.630   -22486584.20049 -17512086.68549  16873514.8244   16873522.5604
  13526770.066   -56449430.01449 -43965212.04249  13526772.6254   13526778.4414
  15197035.482   -31377874.73749 -24430863.92949  15197032.1084   15197038.4574
  13516216.193   -49442130.86949 -37492052.83749  13516219.0174   13516225.8544
  13162912.459   -63700761.14249 -49565071.33649  13162915.1974   13162920.8364
 96  5 11 20 25 29.9740000  0  6  5  2  9  7 24  4
  14526593.980   -33836671.11549 -26323509.73349  14526594.4274   14526600.4314
  16870822.446   -22500725.94649 -17523106.35449  16870824.4864   16870833.9024
  13511160.470   -56531459.59549 -44029131.20549  13511162.7834   13511168.9444
  15191268.472   -31408138.91649 -24454446.43849  15191273.2124   15191278.7724
  13486177.559   -49599980.26649 -37615052.33849  13486181.4104   13486188.2564
  13146339.644   -63787852.66449 -49632934.85349  13146342.1304   13146347.7604
 96  5 11 20 25 59.9740000  0  5  5  9  7 24  4
  14493148.098   -34012426.33149 -26460461.82149  14493149.3994   14493155.6234
  13495680.894   -56612810.37049 -44092521.42949  13495682.4064   13495688.3024
  15185538.360   -31438259.72149 -24477917.22349  15185541.7784   15185547.9174
  13456265.052   -49757180.17449 -37737545.74249  13456267.0344   13456274.0694
  13129902.172   -63874239.56649 -49700249.31249  13129903.1324   13129909.1244
 96  5 11 20 26 29.9740000  0  5  5  9  7 24  4
  14459714.341   -34188117.63149 -26597364.10849  14459716.5734   14459722.5034
  13480294.555   -56693664.17949 -44155524.40749  13480296.2414   13480302.5894
  15179802.054   -31468416.98849 -24501416.42749  15179802.6534   15179809.4414
  13426434.958   -49913932.91749 -37859690.71249  13426438.0444   13426444.8714
  13113559.660   -63960116.57249 -49767166.45649  13113561.2664   13113567.2974
 96  5 11 20 26 59.9740000  0  5  5  9  7 24  4
  14426277.409   -34363829.26349 -26734282.23949  14426279.2014   14426285.4654
  13464985.726   -56774109.48749 -44218209.07249  13464987.9264   13464994.0624
  15174037.975   -31498681.30649 -24524999.04549  15174043.6114   15174050.9784
  13396672.931   -50070337.57349 -37981564.44349  13396675.2114   13396682.1754
  13097299.046   -64045563.36649 -49833748.36949  13097301.4444   13097307.0014
 96  5 11 20 27 29.9740000  0  5  5  9  7 24  4
  14392843.740   -34539531.31949 -26871192.91849  14392844.2364   14392850.3094
  13449757.889   -56854134.96949 -44280566.60249  13449759.7004   13449765.9894
  15168271.754   -31529017.14149 -24548637.38149  15168270.6654   15168277.5024
  13366977.671   -50226386.47349 -38103160.96249  13366980.0904   13366986.7414
  13081126.545   -64130549.74749 -49899971.51749  13081129.0754   13081134.8704
 96  5 11 20 27 59.9740000  0  5  5  9  7 24  4
  14359471.798   -34714890.94049 -27007836.74949  14359474.2754   14359481.0564
  13434668.156   -56933431.05249 -44342355.76349  13434670.2224   13434676.5854
  15162538.645   -31559100.20449 -24572078.75649  15162545.9154   15162552.1914
  13337403.795   -50381798.91349 -38224261.53749  13337406.1104   13337412.6604
  13065102.026   -64214760.41749 -49965590.21349  13065104.4034   13065109.8914
 96  5 11 20 28 29.9740000  0  5  5  9  7 24  4
  14326136.775   -34890072.57249 -27144341.89849  14326138.9204   14326144.6574
  13419683.462   -57012180.31449 -44403718.84149  13419684.6244   13419690.9604
  15156839.737   -31589081.08749 -24595440.51849  15156840.7914   15156847.8604
  13307917.270   -50536752.21949 -38345004.35049  13307919.3174   13307926.1594
  13049194.816   -64298355.20849 -50030729.00849  13049196.6684   13049202.4374
 96  5 11 20 28 59.9740000  0  5  5  9  7 24  4
  14292792.032   -35065299.66049 -27280882.45749  14292794.1204   14292800.2114
  13404759.569   -57090604.50449 -44464828.61049  13404761.3254   13404767.4664
  15151112.110   -31619191.25149 -24618902.99249  15151110.8634   15151118.6994
  13278482.528   -50691429.38649 -38465531.98449  13278485.1694   13278492.1274
  13033363.011   -64381546.90749 -50095553.70149  13033366.0934   13033371.5724
 96  5 11 20 29 29.9740000  0  5  5  9  7 24  4
  14259458.916   -35240465.00749 -27417374.92049  14259460.8014   14259467.2334
  13389919.434   -57168588.34449 -44525595.24449  13389921.6714   13389927.5714
  15145374.849   -31649335.03249 -24642391.68849  15145375.3484   15145382.4574
  13249123.406   -50845710.32849 -38585750.87449  13249126.6464   13249133.4014
  13017627.777   -64464241.29749 -50159990.88249  13017629.8474   13017635.2134
 96  5 11 20 29 59.9740000  0  5  5  9  7 24  4
  14226171.126   -35415397.07949 -27553685.59749  14226172.6384   14226178.9594
  13375197.113   -57245955.83849 -44585881.61749  13375198.8894   13375205.0544
  15139659.491   -31679352.88449 -24665782.25149  15139662.4264   15139669.8374
  13219874.560   -50999420.10649 -38705524.70449  13219876.4964   13219883.4034
  13002017.472   -64546273.29249 -50223911.91449  13002019.8884   13002025.0454
 96  5 11 20 30 29.9740000  0  5  5  9  7 24  4
  14192902.709   -35590217.52849 -27689909.30349  14192905.4624   14192911.6884
  13360571.121   -57322819.43649 -44645775.33949  13360572.4344   13360578.4674
  15133946.810   -31709372.19949 -24689173.95749  15133950.1974   15133957.3234
  13190714.704   -51152652.29849 -38824926.38949  13190717.4714   13190724.1184
  12986507.179   -64627784.08349 -50287426.81149  12986508.7934   12986514.1974
 96  5 11 20 30 59.9740000  0  5  5  9  7 24  4
  14159671.740   -35764857.32949 -27825992.24049  14159672.8614   14159678.7594
  13346055.379   -57399100.02549 -44705214.77149  13346056.5884   13346062.5844
  15128249.525   -31739337.96649 -24712523.93549  15128248.2584   15128254.6124
  13161660.637   -51305333.52049 -38943898.74549  13161663.1994   13161670.0364
  12971102.914   -64708731.46949 -50350502.69349  12971104.8234   12971110.3414
 96  5 11 20 31 29.9740000  0  5  5  9  7 24  4
  14126487.721   -35939241.27549 -27961875.81049  14126488.5724   14126494.6734
  13331663.878   -57474725.14549 -44764143.44949  13331665.5544   13331671.7614
  15122568.465   -31769161.99749 -24735763.48049  15122573.0774   15122579.7344
  13132721.503   -51457410.38849 -39062400.17949  13132723.9154   13132730.8704
  12955819.592   -64789040.44949 -50413081.12149  12955822.5954   12955828.0904
 96  5 11 20 31 59.9740000  0  5  5  9  7 24  4
  14093355.661   -36113348.30749 -28097543.60449  14093357.4504   14093363.2204
  13317398.396   -57549691.50449 -44822558.79949  13317400.1154   13317406.0844
  15116928.187   -31798814.31749 -24758869.21149  15116930.3334   15116937.4924
  13103899.413   -51608862.16749 -39180414.52849  13103903.6004   13103910.2434
  12940661.790   -64868700.08749 -50475153.56149  12940663.7454   12940669.2264
 96  5 11 20 32 29.9740000  0  5  5  9  7 24  4
  14060235.874   -36287391.66049 -28233161.77149  14060237.6374   14060243.4774
  13303220.792   -57624190.84049 -44880610.23649  13303223.0944   13303229.4214
  15111282.221   -31828494.21449 -24781996.44449  15111281.4884   15111289.2224
  13075162.410   -51759885.66149 -39298095.14849  13075164.9164   13075171.5084
  12925586.546   -64947916.07149 -50536880.30349  12925589.6354   12925595.0364
 96  5 11 20 32 59.9730000  0  5  5  9  7 24  4
  14027154.661   -36461231.69849 -28368621.51749  14027156.9734   14027163.0984
  13289160.190   -57698085.02749 -44938190.12749  13289161.6384   13289167.6344
  15105653.922   -31858063.53649 -24805037.50849  15105655.4334   15105662.9254
  13046530.053   -51910350.55249 -39415340.49149  13046532.1854   13046538.9794
  12910626.663   -65026533.52449 -50598140.65049  12910629.1674   12910634.6964
 96  5 11 20 33 29.9730000  0  5  5  9  7 24  4
  13994096.692   -36634952.29949 -28503988.19449  13994098.9944   13994104.9604
  13275197.864   -57771455.70349 -44995362.09649  13275199.7464   13275205.6994
  15100033.150   -31887605.92449 -24828057.57649  15100033.8474   15100040.4314
  13017988.032   -52060342.27849 -39532217.13849  13017989.7444   13017996.7914
  12895768.303   -65104613.10149 -50658981.87449  12895770.9244   12895776.4944
 96  5 11 20 33 59.9730000  0  5  5  9  7 24  4
  13961076.601   -36808482.55749 -28639206.55049  13961077.0934   13961083.2404
  13261350.108   -57844224.12349 -45052064.77049  13261352.5174   13261358.7014
  15094422.559   -31917076.59249 -24851021.76449  15094426.4714   15094433.4614
  12989551.083   -52209779.80349 -39648661.94249  12989552.6894   12989559.6364
  12881025.059   -65182090.67449 -50719354.00949  12881027.7254   12881033.0954
 96  5 11 20 34 29.9730000  0  5  5  9  7 24  4
  13928075.928   -36981897.71449 -28774335.21649  13928076.9174   13928083.3534
  13247603.763   -57916461.30249 -45108353.49549  13247606.2354   13247612.1824
  15088812.313   -31946570.74249 -24874004.26749  15088813.0354   15088819.8604
  12961204.618   -52358737.82549 -39764733.10749  12961206.8944   12961213.5994
  12866384.782   -65259024.57949 -50779302.50249  12866387.7454   12866392.8144
 96  5 11 20 34 59.9730000  0  5  5  9  7 24  4
  13895096.215   -37155208.94149 -28909382.89849  13895097.0264   13895103.4344
  13233949.772   -57988210.70449 -45164262.13049  13233952.4094   13233958.7424
  15083189.077   -31976123.32149 -24897032.27249  15083189.2684   15083196.7234
  12932945.106   -52507240.19349 -39880449.20949  12932947.7964   12932954.4624
  12851843.234   -65335437.28449 -50838844.86749  12851846.5684   12851852.1474
 96  5 11 20 35 29.9730000  0  5  5  9  7 24  4
  13862141.870   -37328374.32249 -29044316.93349  13862144.5534   13862151.0504
  13220395.279   -58059441.60049 -45219766.73949  13220398.0924   13220403.9284
  15077557.711   -32005690.31449 -24920071.54149  15077562.5064   15077570.6074
  12904782.141   -52655239.87249 -39995773.61549  12904784.6334   12904790.9774
  12837409.712   -65411290.47549 -50897951.24749  12837412.1994   12837418.0214
 96  5 11 20 35 59.9730000  0  5  5  9  7 24  4
  13829231.323   -37501331.34749 -29179088.61949  13829232.5404   13829238.3004
  13206951.849   -58130094.13249 -45274820.67849  13206953.1414   13206959.2624
  15071943.868   -32035201.02149 -24943066.91349  15071947.1524   15071955.0324
  12876725.934   -52802676.20849 -40110659.04749  12876728.1894   12876734.6954
  12823090.737   -65486540.46949 -50956587.60249  12823092.5674   12823098.3024
 96  5 11 20 36 29.9730000  0  5  5  9  7 24  4
  13796358.349   -37674075.99349 -29313694.81049  13796359.9114   13796365.9714
  13193612.312   -58200195.12149 -45329444.84449  13193613.2814   13193619.4404
  15066339.291   -32064644.14149 -24966009.65749  15066344.9324   15066351.3734
  12848773.792   -52949564.52649 -40225117.45449  12848776.2484   12848782.4644
  12808883.675   -65561199.44449 -51014763.42249  12808885.4914   12808891.0124
 96  5 11 20 36 59.9730000  0  5  5  9  7 24  4
  13763527.082   -37846613.41849 -29448139.53449  13763527.2954   13763533.1984
  13180374.940   -58269759.25749 -45383650.68149  13180375.8434   13180381.8794
  15060749.254   -32094027.72849 -24988905.97749  15060753.1464   15060760.1164
  12820923.759   -53095919.86749 -40339160.55349  12820925.9004   12820932.2974
  12794784.536   -65635286.28249 -51072493.42249  12794787.2514   12794792.5634
 96  5 11 20 37 29.9730000  0  5  5  9  7 24  4
  13730717.682   -38019021.08949 -29582483.15549  13730719.4024   13730725.1704
  13167223.068   -58338859.88449 -45437495.34149  13167226.2534   13167232.4874
  15055158.037   -32123419.36749 -25011808.59349  15055161.3564   15055167.9404
  12793159.862   -53241815.11049 -40452845.13349  12793162.8294   12793169.2324
  12780779.498   -65708880.97549 -51129839.93249  12780782.5294   12780788.0034
 96  5 11 20 37 59.9730000  0  5  5  9  7 24  4
  13697957.466   -38191179.92849 -29716632.87249  13697958.3034   13697964.7844
  13154184.759   -58407383.66049 -45490890.51049  13154186.6794   13154192.7934
  15049579.978   -32152715.00649 -25034636.42049  15049585.9724   15049592.2294
  12765506.117   -53387140.12949 -40566085.38549  12765508.3914   12765514.7874
  12766889.381   -65781880.35249 -51186722.56249  12766891.2184   12766896.5754
 96  5 11 20 38 29.9730000  0  5  5  9  7 24  4
  13665213.321   -38363255.66649 -29850717.84549  13665213.4554   13665219.4984
  13141223.871   -58475499.88949 -45543968.10449  13141224.5374   13141230.6864
  15043995.198   -32182081.75949 -25057519.61149  15043996.7974   15044003.5364
  12737930.463   -53532052.74449 -40679004.28149  12737932.4364   12737939.1084
  12753082.864   -65854436.30349 -51243259.65949  12753084.0914   12753089.8074
 96  5 11 20 38 59.9730000  0  5  5  9  7 24  4
  13632509.660   -38535098.92249 -29984621.65949  13632512.8574   13632518.8494
  13128371.410   -58543029.14649 -45596588.32249  13128374.3864   13128380.3254
  15038426.138   -32211352.89849 -25080328.33049  15038427.2204   15038433.3794
  12710463.582   -53676381.06349 -40791467.89249  12710467.5314   12710474.0234
  12739392.281   -65926374.90149 -51299315.70849  12739395.0884   12739400.3054
 96  5 11 20 39 29.9730000  0  5  5  9  7 24  4
  13599856.970   -38706699.00949 -30118335.98949  13599858.2274   13599864.5264
  13115639.663   -58609947.67149 -45648732.63949  13115640.0394   13115646.0194
  15032874.957   -32240498.95449 -25103039.57849  15032880.4214   15032888.0254
  12683115.646   -53820112.77449 -40903466.60249  12683116.3084   12683123.0354
  12725822.668   -65997684.13149 -51354881.34049  12725825.4274   12725830.6994
 96  5 11 20 39 59.9730000  0  5  5  9  7 24  4
  13567225.892   -38878177.16049 -30251955.31049  13567227.0584   13567233.1454
  13102999.262   -58676367.54949 -45700488.40549  13103000.4574   13103006.8174
  15027331.081   -32269639.56049 -25125746.58049  15027335.1884   15027343.4794
  12655851.884   -53963372.99549 -41015097.92149  12655854.9234   12655861.5914
  12712350.915   -66068481.40049 -51410048.03949  12712352.9744   12712358.5064
 96  5 11 20 40 29.9720000  0  5  5  9  7 24  4
  13534637.971   -39049427.21349 -30385396.88349  13534639.4634   13534645.3944
  13090474.609   -58742185.37649 -45751775.03849  13090475.7884   13090481.8944
  15021810.535   -32298661.97849 -25148361.50849  15021812.7484   15021820.1274
  12628702.273   -54106054.03249 -41126277.92549  12628703.6524   12628710.1534
  12698997.776   -66138652.32049 -51464726.67149  12698999.8154   12699005.4254
 96  5 11 20 40 59.9720000  0  5  5  9  7 24  4
  13502062.829   -39220611.94849 -30518787.57049  13502064.2744   13502069.7354
  13078034.226   -58807555.80149 -45802713.05049  13078036.4034   13078042.5054
  15016275.326   -32327730.63049 -25171012.44749  15016281.7224   15016287.8604
  12601628.080   -54248324.23149 -41237137.80049  12601630.2704   12601636.8494
  12685732.543   -66208362.65549 -51519046.41149  12685734.4934   12685740.0724
 96  5 11 20 41 29.9720000  0  5  5  9  7 24  4
  13469510.095   -39391675.32949 -30652083.68549  13469511.7204   13469517.6434
  13065685.217   -58872453.42549 -45853282.63849  13065686.7364   13065693.2944
  15010740.997   -32356834.20749 -25193690.60649  15010744.6324   15010750.7054
  12574640.489   -54390144.91949 -41347647.40749  12574642.7894   12574649.4594
  12672558.292   -66277592.03149 -51572991.37749  12672560.5894   12672566.0344
 96  5 11 20 41 59.9720000  0  5  5  9  7 24  4
  13437003.151   -39562502.24449 -30785195.55249  13437004.5054   13437010.4044
  13053443.811   -58936786.71449 -45903412.48849  13053445.0424   13053450.8134
  15005212.618   -32385882.36749 -25216325.57349  15005217.1054   15005223.8614
  12547760.939   -54531395.89149 -41457713.07549  12547763.8124   12547770.2984
  12659495.358   -66346235.62549 -51626479.88849  12659498.0644   12659503.6434
 96  5 11 20 42 29.9720000  0  5  5  9  7 24  4
  13404551.352   -39733044.97649 -30918085.96649  13404551.3534   13404556.7164
  13041314.819   -59000520.99449 -45953075.57949  13041316.4194   13041322.8104
  14999707.035   -32414836.19649 -25238887.04749  14999707.3974   14999711.7354
  12520999.053   -54672031.50949 -41567299.24949  12521001.6404   12521008.1304
  12646552.446   -66414255.03549 -51679482.02649  12646554.6014   12646559.9204
 96  5 11 20 42 59.9720000  0  5  5  9  7 24  4
  13372147.820   -39903323.48349 -31050770.50149  13372148.6084   13372154.0914
  13029295.692   -59063684.19749 -46002293.68249  13029296.8394   13029303.2894
  14994207.117   -32443721.70749 -25261395.26849  14994210.0744   14994215.8564
  12494349.145   -54812078.37749 -41676426.66049  12494351.3794   12494357.9834
  12633720.121   -66481686.06749 -51732025.68749  12633722.7254   12633728.3044
 96  5 11 20 43 29.9720000  0  5  5  9  7 24  4
  13339770.147   -40073464.06049 -31183347.55749  13339771.5674   13339777.6864
  13017360.837   -59126408.81649 -46051170.03049  13017360.8614   13017367.1594
  14988699.612   -32472656.09849 -25283941.55849  14988702.5154   14988711.5604
  12467786.413   -54951664.49149 -41785195.04249  12467789.2334   12467795.7194
  12620975.602   -66548666.47249 -51784218.21149  12620977.0584   12620982.5244
 96  5 11 20 43 59.9720000  0  5  5  9  7 24  4
  13307438.254   -40243380.31449 -31315749.81549  13307437.9824   13307443.5414
  13005523.197   -59188604.73249 -46099634.39949  13005525.5124   13005531.8454
  14983207.853   -32501530.86549 -25306441.41249  14983208.6244   14983216.2494
  12441329.442   -55090700.18649 -41893534.52449  12441331.4564   12441338.0414
  12608329.401   -66615113.74449 -51835995.30749  12608332.3084   12608338.1504
 96  5 11 20 44 29.9720000  0  5  5  9  7 24  4
  13275129.517   -40413144.98849 -31448033.94849  13275132.5474   13275138.6334
  12993776.268   -59250335.70149 -46147736.47249  12993778.3624   12993784.9904
  14977709.676   -32530404.31249 -25328940.24549  14977713.9184   14977720.9924
  12414961.178   -55229260.54549 -42001503.61549  12414964.6334   12414971.0164
  12595774.377   -66681098.53049 -51887412.02149  12595776.0254   12595781.5004
 96  5 11 20 44 59.9720000  0  5  5  9  7 24  4
  13242867.138   -40582687.12049 -31580144.69149  13242869.2004   13242875.6994
  12982132.000   -59311531.15549 -46195421.26549  12982133.3184   12982139.7994
  14972233.505   -32559208.33649 -25351384.96849  14972233.2134   14972240.6244
  12388700.867   -55367265.85849 -42109040.20249  12388702.8894   12388709.4474
  12583317.261   -66746552.17349 -51938414.86249  12583320.4894   12583325.9384
 96  5 11 20 45 29.9720000  0  5  5  9  7 24  4
  13210637.479   -40752064.42549 -31712126.98549  13210637.7944   13210644.2184
  12970576.571   -59372250.14849 -46242734.78149  12970578.9324   12970585.5644
  14966752.228   -32588013.41049 -25373830.55949  14966753.0054   14966758.0164
  12362534.634   -55504763.98849 -42216181.58549  12362537.7534   12362544.2784
  12570953.258   -66811533.77449 -51989049.87549  12570955.2444   12570960.3804
 96  5 11 20 45 59.9720000  0  5  5  9  7 24  4
  13178449.165   -40921206.96649 -31843926.35749  13178450.9664   13178457.4104
  12959126.227   -59432425.91749 -46289625.01049  12959127.6944   12959134.2484
  14961282.469   -32616752.26949 -25396224.50549  14961282.7684   14961290.2414
  12336480.525   -55641686.14449 -42322874.15649  12336482.5664   12336488.8644
  12558694.785   -66875944.87349 -52039240.34049  12558697.8624   12558703.3484
 96  5 11 20 46 29.9720000  0  5  5  9  7 24  4
  13146283.163   -41090243.34349 -31975642.99249  13146284.8634   13146290.7104
  12947756.118   -59492183.07449 -46336189.04649  12947756.4244   12947763.1534
  14955801.658   -32645551.95249 -25418665.84649  14955802.3614   14955809.0384
  12310508.751   -55778159.16049 -42429216.74449  12310512.4414   12310518.9244
  12546529.077   -66939885.01949 -52089063.82749  12546530.5174   12546535.7704
 96  5 11 20 46 59.9720000  0  5  5  9  7 24  4
  13114145.511   -41259125.08349 -32107239.13149  13114147.7584   13114153.7604
  12936472.405   -59551472.06049 -46382388.28349  12936474.4214   12936480.5814
  14950316.126   -32674361.02549 -25441114.54349  14950319.4104   14950328.3124
  12284635.314   -55914131.32349 -42535169.06249  12284637.9834   12284644.4414
  12534460.306   -67003300.87849 -52138478.78549  12534463.0064   12534468.3574
 96  5 11 20 47 29.9720000  0  5  5  9  7 24  4
  13082031.957   -41427886.19349 -32238741.27249  13082033.6564   13082039.5834
  12925272.361   -59610328.35849 -46428250.35449  12925274.3974   12925280.5534
  14944829.598   -32703207.49249 -25463592.32649  14944831.2154   14944838.9994
  12258846.476   -56049650.61749 -42640768.49249  12258849.4214   12258855.7314
  12522487.151   -67066231.88849 -52187515.93349  12522487.5224   12522493.0084
 96  5 11 20 47 59.9720000  0  5  5  9  7 24  4
  13049925.674   -41596607.05249 -32370212.05449  13049927.0174   13049932.7434
  12914139.915   -59668833.12649 -46473838.50949  12914141.1894   12914147.8604
  14939319.196   -32732169.64349 -25486160.28049  14939319.2874   14939326.9344
  12233127.096   -56184807.16949 -42746085.27049  12233129.7604   12233136.4464
  12510583.631   -67128775.78549 -52236251.44449  12510585.5684   12510591.1394
 96  5 11 20 48 29.9710000  0  5  5  9  7 24  4
  13017893.256   -41764948.84749 -32501387.45749  13017892.8134   13017898.8784
  12903135.922   -59726660.51249 -46518898.82949  12903137.1594   12903143.8334
  14933847.269   -32760929.20849 -25508570.37649  14933846.0214   14933854.9254
  12207540.961   -56319268.38749 -42850860.22749  12207542.9714   12207549.3984
  12498810.028   -67190651.07749 -52284465.96049  12498811.3984   12498817.0444
 96  5 11 20 48 59.9710000  0  5  5  9  7 24  4
  12985898.961   -41933073.29349 -32632393.49449  12985899.3584   12985905.4264
  12892228.372   -59783973.42749 -46563558.25949  12892230.7264   12892237.0344
  14928375.050   -32789657.78949 -25530956.31049  14928380.0784   14928387.2094
  12182051.830   -56453205.53549 -42955226.81849  12182055.4184   12182061.7764
  12487125.888   -67252049.53849 -52332308.92049  12487127.4974   12487133.2344
 96  5 11 20 49 29.9710000  0  5  5  9  7 24  4
  12953961.606   -42100902.33349 -32763169.35149  12953962.4954   12953968.8154
  12881431.813   -59840713.04349 -46607770.97049  12881433.5114   12881440.1144
  14922928.906   -32818305.64549 -25553279.34749  14922928.0404   14922936.6954
  12156678.307   -56586557.42649 -43059137.36749  12156679.3684   12156685.8154
  12475541.801   -67312922.35449 -52379742.29249  12475543.9904   12475549.4334
 96  5 11 20 49 59.9710000  0  5  5  9  7 24  4
  12921998.874   -42268862.37849 -32894047.28549  12922000.7894   12922006.6794
  12870660.328   -59897317.91149 -46651878.67449  12870662.3574   12870668.3934
  14917407.188   -32847317.67149 -25575886.17749  14917408.3474   14917415.2064
  12131328.924   -56719756.68349 -43162928.97649  12131332.3754   12131338.6774
  12463977.362   -67373699.76549 -52427101.31049  12463978.3064   12463983.8014
 96  5 11 20 50 29.9710000  0  5  5  9  7 24  4
  12890081.768   -42436588.48149 -33024742.92749  12890083.8874   12890089.7234
  12859983.025   -59953432.35449 -46695604.23849  12859983.9394   12859990.0024
  14911886.655   -32876325.68849 -25598489.84949  14911887.6984   14911895.1704
  12106081.410   -56852438.80149 -43266317.62249  12106083.6534   12106090.4034
  12452501.702   -67433994.75349 -52474084.42249  12452504.6154   12452510.2194
 96  5 11 20 50 59.9710000  0  5  5  9  7 24  4
  12858193.570   -42604159.99449 -33155318.11749  12858196.0714   12858202.1064
  12849380.610   -60009147.06649 -46739018.32349  12849381.6924   12849388.1684
  14906351.830   -32905402.49949 -25621147.15749  14906354.0454   14906361.9714
  12080915.828   -56984679.49949 -43369362.31149  12080919.3924   12080925.4684
  12441110.379   -67493863.48549 -52520735.38549  12441111.9434   12441117.6154
 96  5 11 20 51 29.9710000  0  5  5  9  7 24  4
  12826335.120   -42771580.05849 -33285775.29549  12826336.8424   12826342.7594
  12838850.436   -60064484.84949 -46782138.69349  12838851.4044   12838858.0284
  14900805.202   -32934547.89049 -25643857.89649  14900808.8134   14900818.1074
  12055836.307   -57116477.49049 -43472062.02449  12055838.7544   12055845.1244
  12429798.490   -67553302.55649 -52567051.54949  12429801.0324   12429806.4224
 96  5 11 20 51 59.9710000  0  5  5  9  7 24  4
  12794515.487   -42938801.70149 -33416077.85249  12794515.8744   12794521.9554
  12828400.873   -60119397.52449 -46824927.80949  12828402.0104   12828408.5054
  14895255.732   -32963717.09849 -25666587.19549  14895258.3674   14895265.7224
  12030850.573   -57247773.50749 -43574370.58849  12030853.7324   12030860.3334
  12418580.505   -67612252.34749 -52612986.45149  12418583.2974   12418588.9654
 96  5 11 20 52 29.9710000  0  5  5  9  7 24  4
  12762698.609   -43105990.85149 -33546355.10049  12762700.7684   12762706.9624
  12817999.372   -60174052.84949 -46867516.39549  12818001.3174   12818007.9444
  14889669.077   -32993067.52549 -25689457.68549  14889672.4554   14889680.6224
  12005936.042   -57378713.65849 -43676401.85949  12005936.8224   12005943.2434
  12407425.233   -67670878.82249 -52658669.42449  12407427.0504   12407432.6564
 96  5 11 20 52 59.9710000  0  5  5  9  7 24  4
  12730928.053   -43272951.12449 -33676453.98749  12730929.4204   12730935.1314
  12807685.921   -60228247.16649 -46909745.75049  12807688.3514   12807694.8554
  14884087.905   -33022402.15449 -25712315.90549  14884089.6814   14884098.7274
  11981124.142   -57509094.30249 -43777997.14349  11981126.2334   11981132.6914
  12396365.519   -67728994.93549 -52703954.70749  12396367.7544   12396373.6434
 96  5 11 20 53 29.9710000  0  5  5  9  7 24  4
  12699162.049   -43439884.33649 -33806531.79649  12699162.9394   12699169.1184
  12797429.351   -60282151.00249 -46951748.75549  12797431.0194   12797437.4744
  14878468.185   -33051930.34849 -25735324.92749  14878473.1164   14878478.0504
  11956383.176   -57639111.67749 -43879309.36349  11956384.9574   11956391.2034
  12385365.269   -67786803.94149 -52749000.69049  12385367.1614   12385372.7224
 96  5 11 20 53 59.9710000  0  5  5  9  7 24  4
  12667443.092   -43606566.87149 -33936414.27749  12667444.3974   12667450.3714
  12787272.832   -60335519.62649 -46993334.72249  12787274.6224   12787281.1754
  14872860.499   -33081415.80849 -25758300.62849  14872859.9114   14872870.4144
  11931752.291   -57768545.38549 -43980166.78049  11931754.5314   11931760.9214
  12374464.051   -67844092.64249 -52793641.24149  12374465.4174   12374470.9584
 96  5 11 20 54 29.9710000  0  5  5  9  7 24  4
  12635746.796   -43773129.69449 -34066203.47249  12635748.3634   12635754.4064
  12777196.892   -60388471.35449 -47034595.83249  12777198.7864   12777205.1264
  14867239.532   -33110958.19449 -25781320.72349  14867237.7804   14867246.0804
  11907208.918   -57897524.56249 -44080670.01449  11907210.4404   11907216.9174
  12363636.426   -67900984.04149 -52837972.20449  12363639.5394   12363644.8254
 96  5 11 20 54 59.9710000  0  5  5  9  7 24  4
  12604096.539   -43939455.95349 -34195808.33649  12604097.6114   12604103.6734
  12767223.858   -60440885.88749 -47075438.35249  12767224.7164   12767231.4444
  14861623.993   -33140450.84549 -25804302.06049  14861626.3094   14861634.7374
  11882768.589   -58025952.84749 -44180743.98749  11882771.3164   11882777.8154
  12352907.239   -67957371.24149 -52881910.29049  12352909.2874   12352915.2894
 96  5 11 20 55 29.9710000  0  5  5  9  7 24  4
  12572488.552   -44105549.78649 -34325232.08449  12572491.0344   12572496.9634
  12757347.393   -60492783.13149 -47115877.77849  12757349.1684   12757355.6894
  14856022.926   -33169911.70349 -25827258.58449  14856019.8734   14856027.9104
  11858432.243   -58153848.63849 -44280403.02449  11858433.6114   11858440.0524
  12342270.491   -68013268.33049 -52925466.46549  12342272.5644   12342278.1754
 96  5 11 20 55 59.9700000  0  5  5  9  7 24  4
  12540901.041   -44271557.21949 -34454588.51649  12540900.6904   12540906.8014
  12747534.317   -60544350.00649 -47156059.77149  12747536.1434   12747542.3844
  14850389.856   -33199492.25249 -25850308.41049  14850390.0834   14850397.8314
  11834164.506   -58281368.67749 -44379769.27349  11834167.1664   11834173.3894
  12331699.687   -68068819.34049 -52968752.97249  12331701.4144   12331707.0744
 96  5 11 20 56 29.9700000  0  5  5  9  7 24  4
  12509373.407   -44437223.50149 -34583679.10649  12509375.7664   12509381.4244
  12737828.401   -60595356.28749 -47195804.94349  12737829.9694   12737836.7444
  14844788.773   -33228949.03049 -25873261.80849  14844788.0364   14844794.9544
  11810020.177   -58408252.84849 -44478640.03449  11810021.8964   11810028.6444
  12321247.320   -68123746.49249 -53011553.35049  12321249.3044   12321254.6984
 96  5 11 20 56 59.9700000  0  5  5  9  7 24  4
  12477912.979   -44602556.93249 -34712510.33549  12477913.6194   12477919.4414
  12728219.975   -60645852.39249 -47235152.57949  12728221.2494   12728227.2974
  14839192.045   -33258332.09049 -25896157.75349  14839196.7484   14839203.5524
  11785991.615   -58534521.74849 -44577031.36949  11785993.5384   11786000.2964
  12310905.219   -68178096.72949 -53053904.18649  12310906.7774   12310912.0814
 96  5 11 20 57 29.9700000  0  5  5  9  7 24  4
  12446472.300   -44767769.54149 -34841247.41749  12446474.7194   12446480.5924
  12718665.551   -60696056.24449 -47274272.48649  12718667.5604   12718673.8484
  14833575.690   -33287842.01949 -25919152.54949  14833579.7724   14833585.1264
  11762042.033   -58660375.98849 -44675099.59749  11762044.5584   11762051.0674
  12300629.925   -68232088.95349 -53095976.04749  12300632.4834   12300637.8484
 96  5 11 20 57 59.9700000  0  5  5  9  7 24  4
  12415049.030   -44932905.46949 -34969924.74249  12415050.4454   12415056.1814
  12709157.749   -60746024.96249 -47313209.17049  12709158.7854   12709165.0054
  14827932.445   -33317523.48749 -25942280.97349  14827928.5874   14827940.7084
  11738162.872   -58785861.09349 -44772880.17649  11738165.4614   11738172.0914
  12290411.914   -68285787.68949 -53137819.21449  12290413.6764   12290419.1644
 96  5 11 20 58 29.9700000  0  5  5  9  7 24  4
  12383685.472   -45097724.60049 -35098355.21949  12383686.3274   12383692.0744
  12699738.648   -60795516.16849 -47351773.76749  12699740.9844   12699747.1674
  14822290.895   -33347141.40449 -25965359.89649  14822294.7234   14822303.1404
  11714395.889   -58910755.04249 -44870200.12349  11714399.0294   11714405.5354
  12280287.322   -68338992.31749 -53179277.36549  12280289.3064   12280294.9744
 96  5 11 20 58 59.9700000  0  5  5  9  7 24  4
  12352357.907   -45262349.10749 -35226634.04149  12352359.4634   12352364.9254
  12690392.400   -60844629.70849 -47390044.08349  12690395.0674   12690401.4404
  14816643.868   -33376818.71849 -25988485.12649  14816648.6984   14816654.6994
  11690717.243   -59035197.89649 -44967168.56449  11690718.2254   11690724.8254
  12270229.140   -68391848.08849 -53220463.68249  12270231.3824   12270236.8204
 96  5 11 20 59 29.9700000  0  5  5  9  7 24  4
  12321060.900   -45426814.91049 -35354789.20449  12321062.4794   12321068.1534
  12681115.359   -60893385.51949 -47428035.65349  12681117.2224   12681123.3934
  14810980.235   -33406586.20849 -26011680.64449  14810984.9274   14810991.8064
  11667109.990   -59159245.00949 -45063828.64449  11667112.9764   11667119.2544
  12260233.130   -68444378.20749 -53261396.23949  12260234.9694   12260240.4184
 96  5 11 20 59 59.9700000  0  5  5  9  7 24  4
  12289835.313   -45590907.96849 -35482653.90649  12289836.6404   12289842.0954
  12671945.388   -60941572.92049 -47465584.30149  12671947.1174   12671953.7504
  14805334.187   -33436237.46849 -26034785.54249  14805338.6694   14805346.0964
  11643618.978   -59282697.03549 -45160025.00949  11643620.7734   11643627.1004
  12250341.600   -68496361.75549 -53301902.90049  12250342.9144   12250348.5384
 96  5 11 21  0 29.9700000  0  5  5  9  7 24  4
  12258682.691   -45754614.11549 -35610217.12649  12258684.2484   12258689.9744
  12662892.362   -60989149.19449 -47502656.74349  12662893.7074   12662900.4524
  14799724.990   -33465738.89849 -26057773.69649  14799727.4694   14799733.7064
  11620245.540   -59405522.35749 -45255733.03049  11620247.6374   11620254.1384
  12240559.277   -68547762.09749 -53341955.11049  12240561.6924   12240567.6214
 96  5 11 21  0 59.9700000  0  5  5  9  7 24  4
  12227582.890   -45918040.28749 -35737562.18849  12227585.4734   12227591.2244
  12653934.099   -61036225.15549 -47539339.32349  12653935.4374   12653942.0574
  14794117.261   -33495199.45249 -26080730.04349  14794121.0914   14794127.9544
  11596975.962   -59527801.97649 -45351015.84749  11596978.7214   11596985.0494
  12230872.394   -68598667.02449 -53381621.29849  12230875.0474   12230880.7074
 96  5 11 21  1 29.9700000  0  5  5  9  7 24  4
  12196507.171   -46081345.51049 -35864812.99449  12196509.4454   12196515.3434
  12645038.226   -61082971.06249 -47575764.72249  12645040.2134   12645046.6624
  14788490.974   -33524762.45049 -26103766.18349  14788494.9874   14788503.7984
  11573785.643   -59649670.88949 -45445978.62049  11573787.8924   11573794.0944
  12221251.565   -68649230.56249 -53421021.45549  12221252.9774   12221258.6584
 96  5 11 21  1 59.9700000  0  5  5  9  7 24  4
  12165464.101   -46244482.14649 -35991932.43549  12165465.5344   12165471.3874
  12636214.468   -61129339.48449 -47611895.97949  12636216.8454   12636223.5084
  14782862.242   -33554372.52749 -26126838.99549  14782859.5744   14782867.4734
  11550688.314   -59771046.80649 -45540557.24049  11550690.7994   11550696.9824
  12211703.707   -68699393.38249 -53460109.37549  12211707.3864   12211712.9194
 96  5 11 21  2 29.9700000  0  5  5  9  7 24  4
  12134459.377   -46407411.22249 -36118890.14449  12134461.0414   12134466.7864
  12627467.802   -61175304.99849 -47647713.28549  12627469.6374   12627476.2564
  14777218.283   -33584006.14649 -26149930.17049  14777220.7324   14777230.2804
  11527691.204   -59891890.41449 -45634721.07849  11527694.8874   11527701.0754
  12202242.433   -68749121.75249 -53498858.76049  12202244.3724   12202250.0344
 96  5 11 21  2 59.9700000  0  5  5  9  7 24  4
  12103487.207   -46570171.27949 -36245716.15349  12103488.9884   12103494.6274
  12618786.219   -61220925.22049 -47683261.53249  12618788.2474   12618794.8874
  14771564.457   -33613719.65949 -26173083.60849  14771565.6774   14771576.5504
  11504790.280   -60012243.04149 -45728502.32949  11504792.4684   11504798.8274
  12192852.679   -68798466.66749 -53537309.34849  12192854.4264   12192859.7154
 96  5 11 21  3 29.9690000  0  5  5  9  7 24  4
  12072565.664   -46732667.55449 -36372336.61749  12072566.8524   12072572.5664
  12610188.168   -61266104.20049 -47718465.95549  12610191.5214   12610197.8944
  14765915.378   -33643419.22249 -26196226.15449  14765915.3064   14765925.4284
  11481997.054   -60132022.02349 -45821836.58649  11481999.6634   11482005.6814
  12183553.044   -68847338.06649 -53575390.96449  12183554.4624   12183560.0494
 96  5 11 21  3 59.9690000  0  5  5  9  7 24  4
  12041680.921   -46894974.43149 -36498809.49849  12041681.0494   12041686.6734
  12601664.476   -61310911.14449 -47753380.48149  12601664.8154   12601671.1694
  14760246.987   -33673193.45249 -26219426.89849  14760248.2844   14760259.8474
  11459296.222   -60251318.39249 -45914794.78449  11459298.1004   11459304.5114
  12174327.887   -68895811.35149 -53613162.35849  12174330.3834   12174335.8384
 96  5 11 21  4 29.9690000  0  5  5  9  7 24  4
  12010858.755   -47056944.97249 -36625020.29849  12010858.8374   12010864.2684
  12593231.114   -61355216.47149 -47787904.13749  12593233.9364   12593240.2284
  14754593.719   -33702913.96249 -26242585.81249  14754595.5054   14754601.9694
  11436711.165   -60370000.37949 -46007274.24149  11436713.5614   11436719.9754
  12165200.062   -68943781.30349 -53650541.54749  12165201.8274   12165207.2664
 96  5 11 21  4 59.9690000  0  5  5  9  7 24  4
  11980068.654   -47218740.93949 -36751095.06449  11980070.2134   11980076.1114
  12584866.809   -61399183.94849 -47822164.53749  12584866.7354   12584873.2154
  14748923.770   -33732728.58749 -26265818.02549  14748922.4334   14748928.0584
  11414212.606   -60488230.36349 -46099401.48949  11414214.8354   11414221.4424
  12156135.574   -68991415.98749 -53687659.48749  12156137.4184   12156142.6214
 96  5 11 21  5 29.9690000  0  5  5  9  7 24  4
  11949314.145   -47380358.38849 -36877030.72549  11949315.3154   11949321.1764
  12576559.997   -61442829.44449 -47856174.03649  12576561.6944   12576567.9904
  14743221.580   -33762647.49749 -26289131.50049  14743226.9854   14743236.0024
  11391793.834   -60606039.98349 -46191201.18349  11391796.6634   11391803.0904
  12147133.881   -69038717.46949 -53724517.79049  12147136.2694   12147141.5034
 96  5 11 21  5 59.9690000  0  6  5  9  7 24  6  4
  11918644.417   -47541530.56549 -37002619.42649  11918645.3284   11918650.9044
  12568363.842   -61485905.57849 -47889739.88449  12568364.8194   12568371.3294
  14737563.293   -33792411.46749 -26312324.26249  14737562.7434   14737570.9744
  11369504.898   -60723172.49749 -46282473.26549  11369507.0734   11369513.6544
  15748593.172    -9088409.02959  -7044422.39659  15748597.7064   15748607.0744
  12138241.930   -69085445.28149 -53760929.08349  12138244.1794   12138249.7354
 96  5 11 21  6 29.9690000  0  6  5  9  7 24  6  4
  11888040.078   -47702353.74749 -37127936.18149  11888041.6554   11888047.6064
  12560253.196   -61528524.23449 -47922949.25349  12560254.6814   12560261.1154
  14731907.443   -33822105.07249 -26335462.18249  14731913.0864   14731920.8474
  11347324.443   -60839728.49349 -46373296.11149  11347327.3344   11347333.6184
  15714562.663    -9267263.04249  -7183789.07249  15714561.6074   15714571.8944
  12129441.430   -69131695.05049 -53796967.87049  12129443.1094   12129448.5234
 96  5 11 21  6 59.9690000  0  6  5  9  7 24  6  4
  11857484.362   -47862925.45149 -37253056.98249  11857485.8804   11857491.5654
  12552209.874   -61570793.32849 -47955886.23549  12552210.9404   12552217.2504
  14726256.727   -33851823.49149 -26358619.44849  14726259.0034   14726264.7294
  11325231.348   -60955830.68749 -46463765.34349  11325234.0214   11325240.2384
  15680523.196    -9446118.42449  -7323156.78749  15680527.5644   15680537.0854
  12120714.242   -69177553.50849 -53832701.74449  12120716.7584   12120722.1434
 96  5 11 21  7 29.9690000  0  6  5  9  7 24  6  4
  11826977.560   -48023239.05049 -37377976.65449  11826979.3714   11826985.2064
  12544233.011   -61612704.03449 -47988543.95449  12544235.7524   12544242.2674
  14720595.450   -33881568.36249 -26381797.31049  14720596.2444   14720606.7414
  11303225.938   -61071472.23549 -46553875.62449  11303228.1944   11303234.3344
  15646491.316    -9624978.04149  -7462527.81049  15646490.9604   15646500.1844
  12112061.277   -69223028.05949 -53868136.46149  12112062.9674   12112068.7054
 96  5 11 21  7 59.9690000  0  6  5  9  7 24  6  4
  11796545.432   -48183158.93349 -37502589.54649  11796547.6264   11796553.6104
  12536356.067   -61654103.05349 -48020802.95949  12536357.6704   12536364.4774
  14714963.504   -33911175.56549 -26404867.89749  14714963.3964   14714972.4984
  11281340.473   -61186478.11549 -46643490.59349  11281343.0254   11281349.4844
  15612480.920    -9803695.83649  -7601788.33849  15612482.3104   15612492.0164
  12103505.938   -69267975.72149 -53903160.63249  12103510.0094   12103515.5774
 96  5 11 21  8 29.9690000  0  6  5  9  7 24  6  4
  11766124.112   -48343022.98649 -37627158.92749  11766126.4684   11766132.4734
  12528513.526   -61695317.52949 -48052918.17149  12528514.7144   12528521.5504
  14709290.648   -33940981.45849 -26428093.32149  14709292.0524   14709298.0644
  11259513.553   -61301185.97649 -46732873.32949  11259515.0514   11259521.3554
  15578432.689    -9982608.88049  -7741200.99149  15578436.4354   15578445.4864
  12094994.214   -69312711.69449 -53938019.84449  12094996.8234   12095002.5164
 96  5 11 21  8 59.9690000  0  6  5  9  7 24  6  4
  11735749.433   -48502643.36249 -37751538.43149  11735751.8254   11735757.6434
  12520744.407   -61736140.83349 -48084728.56749  12520746.9564   12520753.1844
  14703617.596   -33970805.07949 -26451332.53249  14703615.7004   14703623.4694
  11237779.533   -61415394.77349 -46821867.18249  11237781.8584   11237788.1264
  15544392.144   -10161505.79849  -7880601.10949  15544392.0924   15544402.1394
  12086556.729   -69357055.05949 -53972573.11949  12086558.5904   12086564.3604
 96  5 11 21  9 29.9690000  0  6  5  9  7 24  6  4
  11705455.025   -48661850.12249 -37875595.63849  11705455.9324   11705461.4264
  12513089.181   -61776379.87849 -48116083.70149  12513089.2594   12513095.8684
  14697969.097   -34000467.95449 -26474446.52149  14697973.2034   14697979.9854
  11216178.211   -61528910.08949 -46910320.66849  11216180.5524   11216186.7574
  15510393.214   -10340173.40749  -8019822.52949  15510394.3514   15510403.4194
  12078224.452   -69400837.36049 -54006689.20749  12078227.1324   12078232.6524
 96  5 11 21  9 59.9690000  0  6  5  9  7 24  6  4
  11675157.000   -48821062.93549 -37999657.55949  11675158.4594   11675164.1284
  12505460.709   -61816456.56549 -48147312.31949  12505462.7974   12505469.5034
  14692274.409   -34030382.21249 -26497756.38449  14692279.0134   14692288.0254
  11194626.356   -61642164.15749 -46998570.58049  11194628.9304   11194635.2794
  15476350.173   -10519028.76249  -8159190.23649  15476357.6474   15476368.7004
  12069922.274   -69444468.08549 -54040687.17849  12069924.5264   12069929.9404
 96  5 11 21 10 29.9690000  0  6  5  9  7 24  6  4
  11644881.654   -48980159.90749 -38123629.21549  11644883.0784   11644889.1884
  12497885.444   -61856267.35549 -48178333.74049  12497887.0994   12497893.4914
  14686558.075   -34060456.41149 -26521190.86149  14686557.3964   14686563.2754
  11173141.169   -61755069.30749 -47086548.60549  11173143.5264   11173150.0024
  15442306.640   -10697962.32849  -8298618.89249  15442308.3384   15442317.3914
  12061668.442   -69487845.75349 -54074487.96449  12061670.0124   12061675.3944
 96  5 11 21 10 59.9680000  0  6  5  9  7 24  6  4
  11614673.010   -49138900.22449 -38247322.95649  11614675.6754   11614681.6484
  12490401.701   -61895585.93449 -48208971.62449  12490405.2184   12490411.5694
  14680848.178   -34090453.12449 -26544564.97549  14680847.5804   14680855.6364
  11151768.987   -61867379.95549 -47174063.38749  11151771.5074   11151777.8564
  15408285.572   -10876737.08849  -8437923.79449  15408289.8124   15408297.5454
  12053504.828   -69530747.04349 -54107917.54749  12053506.1454   12053511.6174
 96  5 11 21 11 29.9680000  0  6  5  9  7 24  6  4
  11584517.302   -49297376.19849 -38370810.71949  11584519.0474   11584524.7804
  12482995.454   -61934523.71649 -48239312.78149  12482995.5004   12483001.9234
  14675137.580   -34120458.88149 -26567946.10349  14675138.4604   14675146.7264
  11130490.258   -61979200.12749 -47261195.98149  11130492.9904   11130499.4164
  15374276.736   -11055467.93149  -8577194.46549  15374277.4534   15374286.9264
  12045416.857   -69573251.24349 -54141037.70649  12045417.9204   12045423.1784
 96  5 11 21 11 59.9680000  0  6  5  9  7 24  6  4
  11554433.785   -49455465.49449 -38493997.17249  11554435.5374   11554441.6324
  12475672.268   -61972997.84149 -48269292.65049  12475674.2694   12475680.9154
  14669444.630   -34150384.47649 -26591264.79749  14669444.9994   14669450.7214
  11109324.268   -62090421.63449 -47347862.07949  11109328.4104   11109334.4494
  15340287.442   -11234068.55449  -8716363.68349  15340290.4034   15340299.8684
  12037423.119   -69615250.15449 -54173764.13849  12037425.8014   12037431.3984
 96  5 11 21 12 29.9680000  0  6  5  9  7 24  6  4
  11524413.753   -49613218.55749 -38616921.62849  11524415.9334   11524421.9384
  12468425.558   -62011075.34149 -48298963.46549  12468428.5754   12468435.2254
  14663746.553   -34180302.74849 -26614577.78749  14663750.6324   14663758.8514
  11088268.116   -62201082.35549 -47434091.20449  11088270.2134   11088276.3704
  15306318.636   -11412600.97149  -8855479.74849  15306318.2384   15306325.6894
  12029513.852   -69656815.25749 -54206152.53849  12029516.0854   12029521.4554
 96  5 11 21 12 59.9680000  0  6  5  9  7 24  6  4
  11494425.126   -49770817.44849 -38739725.95549  11494426.0594   11494431.8344
  12461220.604   -62048937.58449 -48328466.53749  12461223.3524   12461230.0664
  14658025.443   -34210386.99849 -26638020.11149  14658026.1004   14658035.0944
  11067284.746   -62311352.04749 -47520015.63049  11067286.7414   11067292.9194
  15272314.612   -11591252.78849  -8994688.86049  15272321.1144   15272330.1894
  12021652.580   -69698131.84449 -54238347.28649  12021653.8074   12021659.4644
 96  5 11 21 13 29.9680000  0  6  5  9  7 24  6  4
  11464487.994   -49928134.88249 -38862310.96149  11464489.3774   11464495.5624
  12454078.723   -62086468.81149 -48357711.68649  12454081.7214   12454088.3324
  14652291.529   -34240516.98749 -26661498.06249  14652292.0874   14652299.8044
  11046396.678   -62421114.73749 -47605544.99149  11046399.7124   11046405.8274
  15238323.674   -11769894.85149  -9133890.36449  15238326.8784   15238335.3094
  12013859.914   -69739081.07949 -54270255.79049  12013861.5534   12013867.1934
 96  5 11 21 13 59.9680000  0  6  5  9  7 24  6  4
  11434612.115   -50085128.88349 -38984643.93849  11434614.4974   11434620.5894
  12447008.270   -62123625.35849 -48386664.87349  12447010.8124   12447017.5354
  14646556.176   -34270656.11549 -26684983.14749  14646556.3064   14646562.9804
  11025615.355   -62530325.73649 -47690644.46149  11025617.5184   11025623.7384
  15204340.919   -11948486.96249  -9273052.95749  15204341.5064   15204349.8574
  12006140.682   -69779643.85649 -54301863.15749  12006142.8454   12006148.3504
 96  5 11 21 14 29.9680000  0  6  5  9  7 24  6  4
  11404804.221   -50241774.21849 -39106705.23149  11404805.8674   11404811.7684
  12440014.851   -62160366.09249 -48415294.04949  12440019.2244   12440025.9174
  14640825.936   -34300753.41749 -26708435.63349  14640830.6774   14640836.3854
  11004939.769   -62638969.42149 -47775301.87249  11004943.0574   11004949.4564
  15170373.351   -12126988.78549  -9412145.19049  15170374.3144   15170381.8534
  11998501.548   -69819787.53349 -54333143.94949  11998503.8484   11998509.1264
 96  5 11 21 14 59.9680000  0  6  5  9  7 24  6  4
  11375054.611   -50398103.51949 -39228520.26649  11375057.3804   11375063.3854
  12433097.915   -62196724.00049 -48443624.92649  12433100.8394   12433106.9894
  14635107.572   -34330830.88349 -26731872.66849  14635107.9854   14635113.8874
  10984367.436   -62747084.78149 -47859547.59649  10984369.2854   10984375.7824
  15136417.035   -12305431.08549  -9551191.07149  15136417.2954   15136425.1574
  11990938.523   -69859532.47849 -54364114.04849  11990940.4864   11990946.1244
 96  5 11 21 15 29.9680000  0  6  5  9  7 24  6  4
  11345370.307   -50554102.13849 -39350077.62849  11345372.0714   11345378.0424
  12426251.158   -62232703.20049 -48471660.70649  12426253.9224   12426260.8564
  14629384.847   -34360885.34649 -26755291.76149  14629387.2014   14629395.3634
  10963894.513   -62854668.03949 -47943378.70449  10963897.0024   10963903.7364
  15102470.048   -12483797.70849  -9690177.98749  15102475.5374   15102485.4184
  11983452.232   -69898871.56049 -54394767.88849  11983454.4554   11983460.2724
 96  5 11 21 15 59.9680000  0  6  5  9  7 24  6  4
  11315750.402   -50709756.61649 -39471366.82649  11315751.7954   11315757.7804
  12419482.247   -62268287.46849 -48499388.74449  12419482.8234   12419489.7134
  14623670.512   -34390916.84149 -26778692.97849  14623673.2584   14623681.8074
  10943523.655   -62961711.78649 -48026789.41149  10943527.3344   10943534.0484
  15068545.075   -12662093.88749  -9829109.97149  15068546.0034   15068554.0104
  11976043.952   -69937804.24849 -54425105.05849  11976045.5414   11976051.4734
 96  5 11 21 16 29.9680000  0  6  5  9  7 24  6  4
  11286191.026   -50865087.91449 -39592404.19349  11286193.0444   11286199.1684
  12412777.496   -62303506.95549 -48526832.54049  12412780.7524   12412787.3764
  14617956.928   -34420942.98649 -26802090.01249  14617958.3624   14617966.7924
  10923252.832   -63068239.23249 -48109797.80449  10923255.5014   10923262.1804
  15034621.562   -12840340.62849  -9968003.43249  15034627.6744   15034635.4444
  11968709.637   -69976342.47849 -54455134.86649  11968711.9904   11968717.9124
 96  5 11 21 16 59.9680000  0  6  5  9  7 24  6  4
  11256706.677   -51020029.64149 -39713138.00149  11256708.8924   11256714.8564
  12406155.814   -62338311.08649 -48553952.67449  12406158.2584   12406164.5564
  14612252.438   -34450910.10849 -26825441.07349  14612255.8494   14612262.8604
  10903093.184   -63174177.53949 -48192347.13049  10903096.4344   10903102.8774
  15000725.593   -13018476.74949 -10106810.70149  15000729.2294   15000738.4354
  11961460.548   -70014437.30649 -54484819.15849  11961463.0094   11961468.7764
 96  5 11 21 17 29.9680000  0  7  5  9  7 24  6 16  4
  11227265.438   -51174745.54249 -39833695.83949  11227267.5664   11227273.2424
  12399580.440   -62372860.26449 -48580874.14849  12399583.0554   12399589.9524
  14606529.539   -34480978.10849 -26848870.74949  14606533.7964   14606542.4034
  10883015.580   -63279689.65349 -48274564.35149  10883017.9694   10883024.4694
  14966821.392   -13196657.28349 -10245652.58249  14966821.4204   14966831.1144
  15064202.176   -11772431.73059  -8621931.85359  15064203.0724   15064213.4234
  11954262.772   -70052260.02449 -54514291.41849  11954265.5314   11954271.2624
 96  5 11 21 17 59.9680000  0  7  5  9  7 24  6 16  4
  11197902.364   -51329049.82649 -39953932.93349  11197904.2844   11197910.3794
  12393093.964   -62406949.98449 -48607437.60149  12393096.2884   12393102.7264
  14600830.632   -34510942.66049 -26872219.77549  14600831.1294   14600840.2184
  10863055.621   -63384580.01349 -48356297.09349  10863057.9124   10863064.6244
  14932941.706   -13374682.32949 -10384373.30249  14932944.7254   14932953.2844
  15026419.915   -11970938.11249  -8776611.98449  15026428.5314   15026438.6334
  11947155.655   -70089614.14949 -54543398.54049  11947157.8374   11947163.3144
 96  5 11 21 18 29.9680000  0  7  5  9  7 24  6 16  4
  11168595.670   -51483054.30049 -40073936.41649  11168598.5084   11168604.2834
  12386673.668   -62440692.90849 -48633730.82849  12386675.1304   12386682.0244
  14595130.695   -34540895.44649 -26895559.63949  14595132.8574   14595140.3634
  10843193.150   -63488959.67049 -48437631.88249  10843194.9414   10843201.6204
  14899075.631   -13552643.56949 -10523044.29549  14899079.4964   14899089.5014
  14988635.104   -12169514.15149  -8931346.39849  14988640.2094   14988651.3754
  11940115.331   -70126608.22349 -54572225.10549  11940117.6024   11940123.3324
 96  5 11 21 18 59.9670000  0  7  5  9  7 24  6 16  4
  11139360.908   -51636686.60549 -40193649.89549  11139363.0794   11139368.9064
  12380335.031   -62474008.65649 -48659691.18949  12380335.7904   12380342.4714
  14589446.831   -34570769.60749 -26918838.25149  14589447.9174   14589456.1294
  10823440.271   -63592755.77649 -48518511.96049  10823443.5754   10823449.9894
  14865239.756   -13730447.17249 -10661592.47449  14865245.3924   14865254.8894
  14950852.280   -12368087.42449  -9086078.64849  14950853.0744   14950863.6914
  11933155.808   -70163181.80649 -54600724.01449  11933158.0784   11933163.6484
 96  5 11 21 19 29.9670000  0  7  5  9  7 24  6 16  4
  11110173.359   -51790073.17849 -40313171.88849  11110174.5954   11110180.5014
  12374053.282   -62507014.38549 -48685409.97649  12374055.2644   12374061.5964
  14583753.904   -34600690.76649 -26942153.46949  14583753.4734   14583761.9054
  10803773.302   -63696105.82849 -48599044.45949  10803776.6954   10803783.0764
  14831414.871   -13908226.17349 -10800121.48249  14831414.9604   14831423.4014
  14913036.434   -12566792.73249  -9240913.79949  14913040.7374   14913051.2094
  11926251.689   -70199459.06049 -54628992.01749  11926254.5784   11926260.2054
 96  5 11 21 19 59.9670000  0  7  5  9  7 24  6 16  4
  11081059.150   -51943067.19049 -40432387.99549  11081060.8274   11081066.6144
  12367856.667   -62539576.30349 -48710782.93349  12367858.4154   12367865.3084
  14578073.453   -34630535.85349 -26965409.42749  14578075.1214   14578082.7154
  10784215.469   -63798886.12949 -48679132.99649  10784218.2244   10784224.4274
  14797611.271   -14085854.91149 -10938533.41049  14797612.7284   14797620.3904
  14875216.472   -12765510.11849  -9395758.36349  14875225.9024   14875236.3194
  11919428.590   -70235306.38849 -54656925.01649  11919433.1744   11919438.6204
 96  5 11 21 20 29.9670000  0  7  5  9  7 24  6 16  4
  11051999.541   -52095776.61749 -40551382.34749  11052001.0994   11052006.8034
  12361721.154   -62571817.81049 -48735906.22249  12361723.1974   12361729.9234
  14572384.613   -34660431.45449 -26988704.72749  14572386.7384   14572393.4144
  10764744.220   -63901210.66149 -48758866.38849  10764746.6594   10764752.9574
  14763814.434   -14263460.09849 -11076926.95549  14763815.2424   14763824.5174
  14837380.191   -12964373.88349  -9550716.99149  14837383.6104   14837393.4394
  11912668.353   -70270837.54049 -54684611.64149  11912671.8044   11912677.5824
 96  5 11 21 20 59.9670000  0  7  5  9  7 24  6 16  4
  11023020.293   -52248061.64149 -40670045.99049  11023022.3024   11023028.1174
  12355671.756   -62603616.94849 -48760684.80749  12355671.9704   12355678.5264
  14566709.036   -34690264.23949 -27011951.08749  14566709.3664   14566716.6114
  10745383.655   -64002951.50249 -48838144.95849  10745385.8004   10745392.0364
  14730041.985   -14440929.77049 -11215214.91649  14730044.7354   14730051.6534
  14799532.368   -13163259.40249  -9705692.57049  14799536.6644   14799546.5274
  11905994.199   -70305914.33649 -54711944.21949  11905996.8224   11906002.8104
 96  5 11 21 21 29.9670000  0  7  5  9  7 24  6 16  4
  10994124.344   -52399914.23749 -40788372.68549  10994125.8234   10994131.3644
  12349701.100   -62634985.58049 -48785127.93949  12349703.2094   12349709.1984
  14561041.296   -34720033.04549 -27035147.59549  14561043.3764   14561051.8814
  10726131.878   -64104114.14649 -48916972.98549  10726135.1654   10726141.7154
  14696289.722   -14618306.72149 -11353430.62749  14696289.5704   14696299.1434
  14761684.102   -13362161.69049  -9860681.23449  14761686.8354   14761696.4454
  11899407.538   -70340534.04949 -54738920.63549  11899408.8724   11899414.5664
